<?xml version="1.0" encoding="UTF-8" standalone="no" ?>
<gpx xmlns="http://www.topografix.com/GPX/1/1" xmlns:xsi="http://www.w3.org/2001/XMLSchema-instance" xsi:schemaLocation="http://www.topografix.com/GPX/1/1 http://www.topografix.com/GPX/1/1/gpx.xsd" version="1.1" creator="VisuGPX - https://www.visugpx.com">
  <metadata>
    <name>Rando 2021 Bourgogne</name>
    <desc><![CDATA[Beaune - Gergy]]></desc>
  </metadata>
  <trk>
    <name><![CDATA[Rando 2021 Bourgogne]]></name>
    <extensions>
      <line xmlns="http://www.topografix.com/GPX/gpx_style/0/2">
        <color>00FF00</color>
        <width>4</width>
      </line>
    </extensions>
    <trkseg>
      <trkpt lat="47.03455" lon="4.83961">
        <ele>232.78</ele>
        <time>2021-07-23T13:17:01Z</time>
      </trkpt>
      <trkpt lat="47.03438" lon="4.83944">
        <ele>232.78</ele>
        <time>2021-07-23T13:17:09Z</time>
      </trkpt>
      <trkpt lat="47.0342" lon="4.83944">
        <ele>232.3</ele>
        <time>2021-07-23T13:17:19Z</time>
      </trkpt>
      <trkpt lat="47.03411" lon="4.8394">
        <ele>232.3</ele>
        <time>2021-07-23T13:17:23Z</time>
      </trkpt>
      <trkpt lat="47.0341" lon="4.83937">
        <ele>232.3</ele>
        <time>2021-07-23T13:17:24Z</time>
      </trkpt>
      <trkpt lat="47.03411" lon="4.83934">
        <ele>232.3</ele>
        <time>2021-07-23T13:17:25Z</time>
      </trkpt>
      <trkpt lat="47.0341" lon="4.83919">
        <ele>232.3</ele>
        <time>2021-07-23T13:17:30Z</time>
      </trkpt>
      <trkpt lat="47.03409" lon="4.83918">
        <ele>232.3</ele>
        <time>2021-07-23T13:17:31Z</time>
      </trkpt>
      <trkpt lat="47.03403" lon="4.8392">
        <ele>232.3</ele>
        <time>2021-07-23T13:17:41Z</time>
      </trkpt>
      <trkpt lat="47.03402" lon="4.8392">
        <ele>232.3</ele>
        <time>2021-07-23T13:18:01Z</time>
      </trkpt>
      <trkpt lat="47.03403" lon="4.83918">
        <ele>232.78</ele>
        <time>2021-07-23T13:18:33Z</time>
      </trkpt>
      <trkpt lat="47.03404" lon="4.83919">
        <ele>232.3</ele>
        <time>2021-07-23T13:19:00Z</time>
      </trkpt>
      <trkpt lat="47.03406" lon="4.83917">
        <ele>232.3</ele>
        <time>2021-07-23T13:19:27Z</time>
      </trkpt>
      <trkpt lat="47.03407" lon="4.83918">
        <ele>232.3</ele>
        <time>2021-07-23T13:19:57Z</time>
      </trkpt>
      <trkpt lat="47.03406" lon="4.83915">
        <ele>232.3</ele>
        <time>2021-07-23T13:20:32Z</time>
      </trkpt>
      <trkpt lat="47.03405" lon="4.83917">
        <ele>231.81</ele>
        <time>2021-07-23T13:21:10Z</time>
      </trkpt>
      <trkpt lat="47.03406" lon="4.83924">
        <ele>231.81</ele>
        <time>2021-07-23T13:21:48Z</time>
      </trkpt>
      <trkpt lat="47.03406" lon="4.83922">
        <ele>231.33</ele>
        <time>2021-07-23T13:22:16Z</time>
      </trkpt>
      <trkpt lat="47.03404" lon="4.83917">
        <ele>231.81</ele>
        <time>2021-07-23T13:22:46Z</time>
      </trkpt>
      <trkpt lat="47.03405" lon="4.83917">
        <ele>230.85</ele>
        <time>2021-07-23T13:23:00Z</time>
      </trkpt>
      <trkpt lat="47.03397" lon="4.83923">
        <ele>238.54</ele>
        <time>2021-07-24T06:46:13Z</time>
      </trkpt>
      <trkpt lat="47.03403" lon="4.83917">
        <ele>236.62</ele>
        <time>2021-07-24T06:46:38Z</time>
      </trkpt>
      <trkpt lat="47.03404" lon="4.83918">
        <ele>229.89</ele>
        <time>2021-07-24T06:46:58Z</time>
      </trkpt>
      <trkpt lat="47.03406" lon="4.83922">
        <ele>224.12</ele>
        <time>2021-07-24T06:47:45Z</time>
      </trkpt>
      <trkpt lat="47.03406" lon="4.8392">
        <ele>224.12</ele>
        <time>2021-07-24T06:48:19Z</time>
      </trkpt>
      <trkpt lat="47.03411" lon="4.8392">
        <ele>224.12</ele>
        <time>2021-07-24T06:48:54Z</time>
      </trkpt>
      <trkpt lat="47.03406" lon="4.8392">
        <ele>224.12</ele>
        <time>2021-07-24T06:49:27Z</time>
      </trkpt>
      <trkpt lat="47.03409" lon="4.83922">
        <ele>224.12</ele>
        <time>2021-07-24T06:49:57Z</time>
      </trkpt>
      <trkpt lat="47.03406" lon="4.83919">
        <ele>224.12</ele>
        <time>2021-07-24T06:50:29Z</time>
      </trkpt>
      <trkpt lat="47.03405" lon="4.83921">
        <ele>224.12</ele>
        <time>2021-07-24T06:51:06Z</time>
      </trkpt>
      <trkpt lat="47.0341" lon="4.83923">
        <ele>224.61</ele>
        <time>2021-07-24T06:51:39Z</time>
      </trkpt>
      <trkpt lat="47.03408" lon="4.83917">
        <ele>224.61</ele>
        <time>2021-07-24T06:52:06Z</time>
      </trkpt>
      <trkpt lat="47.03408" lon="4.8392">
        <ele>224.61</ele>
        <time>2021-07-24T06:52:45Z</time>
      </trkpt>
      <trkpt lat="47.0341" lon="4.83919">
        <ele>224.61</ele>
        <time>2021-07-24T06:53:20Z</time>
      </trkpt>
      <trkpt lat="47.03404" lon="4.8392">
        <ele>226.05</ele>
        <time>2021-07-24T06:53:56Z</time>
      </trkpt>
      <trkpt lat="47.03406" lon="4.83922">
        <ele>226.05</ele>
        <time>2021-07-24T06:54:28Z</time>
      </trkpt>
      <trkpt lat="47.03405" lon="4.83921">
        <ele>226.53</ele>
        <time>2021-07-24T06:55:23Z</time>
      </trkpt>
      <trkpt lat="47.03403" lon="4.83922">
        <ele>226.53</ele>
        <time>2021-07-24T06:56:00Z</time>
      </trkpt>
      <trkpt lat="47.03407" lon="4.8392">
        <ele>226.53</ele>
        <time>2021-07-24T06:56:43Z</time>
      </trkpt>
      <trkpt lat="47.03406" lon="4.83918">
        <ele>228.45</ele>
        <time>2021-07-24T06:57:17Z</time>
      </trkpt>
      <trkpt lat="47.03407" lon="4.83918">
        <ele>226.53</ele>
        <time>2021-07-24T06:57:39Z</time>
      </trkpt>
      <trkpt lat="47.03409" lon="4.83921">
        <ele>226.53</ele>
        <time>2021-07-24T06:58:09Z</time>
      </trkpt>
      <trkpt lat="47.03409" lon="4.8392">
        <ele>226.53</ele>
        <time>2021-07-24T06:58:27Z</time>
      </trkpt>
      <trkpt lat="47.03409" lon="4.83923">
        <ele>227.01</ele>
        <time>2021-07-24T06:58:59Z</time>
      </trkpt>
      <trkpt lat="47.03408" lon="4.83919">
        <ele>227.01</ele>
        <time>2021-07-24T07:00:11Z</time>
      </trkpt>
      <trkpt lat="47.03413" lon="4.83919">
        <ele>227.01</ele>
        <time>2021-07-24T07:00:46Z</time>
      </trkpt>
      <trkpt lat="47.03417" lon="4.83922">
        <ele>227.01</ele>
        <time>2021-07-24T07:01:14Z</time>
      </trkpt>
      <trkpt lat="47.03418" lon="4.8392">
        <ele>227.49</ele>
        <time>2021-07-24T07:01:48Z</time>
      </trkpt>
      <trkpt lat="47.03414" lon="4.83925">
        <ele>227.49</ele>
        <time>2021-07-24T07:02:21Z</time>
      </trkpt>
      <trkpt lat="47.03412" lon="4.83919">
        <ele>228.93</ele>
        <time>2021-07-24T07:02:58Z</time>
      </trkpt>
      <trkpt lat="47.03411" lon="4.83918">
        <ele>228.93</ele>
        <time>2021-07-24T07:03:05Z</time>
      </trkpt>
      <trkpt lat="47.03412" lon="4.83941">
        <ele>228.93</ele>
        <time>2021-07-24T07:03:15Z</time>
      </trkpt>
      <trkpt lat="47.03406" lon="4.83948">
        <ele>228.93</ele>
        <time>2021-07-24T07:03:19Z</time>
      </trkpt>
      <trkpt lat="47.03404" lon="4.83949">
        <ele>228.93</ele>
        <time>2021-07-24T07:03:20Z</time>
      </trkpt>
      <trkpt lat="47.03402" lon="4.8395">
        <ele>228.93</ele>
        <time>2021-07-24T07:03:21Z</time>
      </trkpt>
      <trkpt lat="47.03374" lon="4.83949">
        <ele>228.93</ele>
        <time>2021-07-24T07:03:32Z</time>
      </trkpt>
      <trkpt lat="47.0333" lon="4.83942">
        <ele>227.97</ele>
        <time>2021-07-24T07:03:46Z</time>
      </trkpt>
      <trkpt lat="47.03318" lon="4.83939">
        <ele>227.49</ele>
        <time>2021-07-24T07:03:58Z</time>
      </trkpt>
      <trkpt lat="47.03317" lon="4.83938">
        <ele>227.49</ele>
        <time>2021-07-24T07:03:59Z</time>
      </trkpt>
      <trkpt lat="47.03316" lon="4.83936">
        <ele>227.49</ele>
        <time>2021-07-24T07:04:00Z</time>
      </trkpt>
      <trkpt lat="47.03315" lon="4.83936">
        <ele>227.49</ele>
        <time>2021-07-24T07:04:01Z</time>
      </trkpt>
      <trkpt lat="47.03313" lon="4.83936">
        <ele>227.49</ele>
        <time>2021-07-24T07:04:02Z</time>
      </trkpt>
      <trkpt lat="47.03311" lon="4.83938">
        <ele>227.49</ele>
        <time>2021-07-24T07:04:05Z</time>
      </trkpt>
      <trkpt lat="47.03307" lon="4.83939">
        <ele>227.49</ele>
        <time>2021-07-24T07:04:10Z</time>
      </trkpt>
      <trkpt lat="47.03303" lon="4.83936">
        <ele>227.49</ele>
        <time>2021-07-24T07:04:12Z</time>
      </trkpt>
      <trkpt lat="47.03299" lon="4.83933">
        <ele>227.49</ele>
        <time>2021-07-24T07:04:14Z</time>
      </trkpt>
      <trkpt lat="47.03295" lon="4.83928">
        <ele>227.49</ele>
        <time>2021-07-24T07:04:16Z</time>
      </trkpt>
      <trkpt lat="47.03284" lon="4.83912">
        <ele>227.49</ele>
        <time>2021-07-24T07:04:22Z</time>
      </trkpt>
      <trkpt lat="47.03281" lon="4.83901">
        <ele>227.49</ele>
        <time>2021-07-24T07:04:34Z</time>
      </trkpt>
      <trkpt lat="47.03279" lon="4.83901">
        <ele>227.49</ele>
        <time>2021-07-24T07:04:55Z</time>
      </trkpt>
      <trkpt lat="47.03279" lon="4.839">
        <ele>228.45</ele>
        <time>2021-07-24T07:05:18Z</time>
      </trkpt>
      <trkpt lat="47.0328" lon="4.83897">
        <ele>228.45</ele>
        <time>2021-07-24T07:05:51Z</time>
      </trkpt>
      <trkpt lat="47.03281" lon="4.83895">
        <ele>228.45</ele>
        <time>2021-07-24T07:05:52Z</time>
      </trkpt>
      <trkpt lat="47.03281" lon="4.83893">
        <ele>228.45</ele>
        <time>2021-07-24T07:05:53Z</time>
      </trkpt>
      <trkpt lat="47.03304" lon="4.83857">
        <ele>228.45</ele>
        <time>2021-07-24T07:06:06Z</time>
      </trkpt>
      <trkpt lat="47.03322" lon="4.83818">
        <ele>228.45</ele>
        <time>2021-07-24T07:06:18Z</time>
      </trkpt>
      <trkpt lat="47.03337" lon="4.83763">
        <ele>228.45</ele>
        <time>2021-07-24T07:06:30Z</time>
      </trkpt>
      <trkpt lat="47.03361" lon="4.83678">
        <ele>228.45</ele>
        <time>2021-07-24T07:06:48Z</time>
      </trkpt>
      <trkpt lat="47.03376" lon="4.83624">
        <ele>228.93</ele>
        <time>2021-07-24T07:07:03Z</time>
      </trkpt>
      <trkpt lat="47.03387" lon="4.83594">
        <ele>228.93</ele>
        <time>2021-07-24T07:07:13Z</time>
      </trkpt>
      <trkpt lat="47.03386" lon="4.83592">
        <ele>228.93</ele>
        <time>2021-07-24T07:07:14Z</time>
      </trkpt>
      <trkpt lat="47.03384" lon="4.83592">
        <ele>228.93</ele>
        <time>2021-07-24T07:07:15Z</time>
      </trkpt>
      <trkpt lat="47.03382" lon="4.83593">
        <ele>228.93</ele>
        <time>2021-07-24T07:07:16Z</time>
      </trkpt>
      <trkpt lat="47.03379" lon="4.83595">
        <ele>228.93</ele>
        <time>2021-07-24T07:07:17Z</time>
      </trkpt>
      <trkpt lat="47.03376" lon="4.83594">
        <ele>228.93</ele>
        <time>2021-07-24T07:07:18Z</time>
      </trkpt>
      <trkpt lat="47.03373" lon="4.83592">
        <ele>228.93</ele>
        <time>2021-07-24T07:07:19Z</time>
      </trkpt>
      <trkpt lat="47.0337" lon="4.83589">
        <ele>228.93</ele>
        <time>2021-07-24T07:07:20Z</time>
      </trkpt>
      <trkpt lat="47.03367" lon="4.83587">
        <ele>228.93</ele>
        <time>2021-07-24T07:07:21Z</time>
      </trkpt>
      <trkpt lat="47.03364" lon="4.83584">
        <ele>228.93</ele>
        <time>2021-07-24T07:07:22Z</time>
      </trkpt>
      <trkpt lat="47.03296" lon="4.83519">
        <ele>228.45</ele>
        <time>2021-07-24T07:07:41Z</time>
      </trkpt>
      <trkpt lat="47.03263" lon="4.83487">
        <ele>228.45</ele>
        <time>2021-07-24T07:07:54Z</time>
      </trkpt>
      <trkpt lat="47.03259" lon="4.83483">
        <ele>228.45</ele>
        <time>2021-07-24T07:08:05Z</time>
      </trkpt>
      <trkpt lat="47.0326" lon="4.83483">
        <ele>228.45</ele>
        <time>2021-07-24T07:08:31Z</time>
      </trkpt>
      <trkpt lat="47.03259" lon="4.83483">
        <ele>228.45</ele>
        <time>2021-07-24T07:08:38Z</time>
      </trkpt>
      <trkpt lat="47.03258" lon="4.83483">
        <ele>228.45</ele>
        <time>2021-07-24T07:08:39Z</time>
      </trkpt>
      <trkpt lat="47.03256" lon="4.83482">
        <ele>227.49</ele>
        <time>2021-07-24T07:08:40Z</time>
      </trkpt>
      <trkpt lat="47.03254" lon="4.83481">
        <ele>227.49</ele>
        <time>2021-07-24T07:08:41Z</time>
      </trkpt>
      <trkpt lat="47.03252" lon="4.8348">
        <ele>227.49</ele>
        <time>2021-07-24T07:08:42Z</time>
      </trkpt>
      <trkpt lat="47.03206" lon="4.83447">
        <ele>227.01</ele>
        <time>2021-07-24T07:08:55Z</time>
      </trkpt>
      <trkpt lat="47.03149" lon="4.83411">
        <ele>226.53</ele>
        <time>2021-07-24T07:09:08Z</time>
      </trkpt>
      <trkpt lat="47.03077" lon="4.83371">
        <ele>225.57</ele>
        <time>2021-07-24T07:09:24Z</time>
      </trkpt>
      <trkpt lat="47.03058" lon="4.8336">
        <ele>225.09</ele>
        <time>2021-07-24T07:09:28Z</time>
      </trkpt>
      <trkpt lat="47.02986" lon="4.83315">
        <ele>224.61</ele>
        <time>2021-07-24T07:09:44Z</time>
      </trkpt>
      <trkpt lat="47.0293" lon="4.83278">
        <ele>224.12</ele>
        <time>2021-07-24T07:09:57Z</time>
      </trkpt>
      <trkpt lat="47.02926" lon="4.83273">
        <ele>224.12</ele>
        <time>2021-07-24T07:09:58Z</time>
      </trkpt>
      <trkpt lat="47.02923" lon="4.83268">
        <ele>223.64</ele>
        <time>2021-07-24T07:09:59Z</time>
      </trkpt>
      <trkpt lat="47.0292" lon="4.83262">
        <ele>223.64</ele>
        <time>2021-07-24T07:10:00Z</time>
      </trkpt>
      <trkpt lat="47.02917" lon="4.83256">
        <ele>223.64</ele>
        <time>2021-07-24T07:10:01Z</time>
      </trkpt>
      <trkpt lat="47.02914" lon="4.8325">
        <ele>223.64</ele>
        <time>2021-07-24T07:10:02Z</time>
      </trkpt>
      <trkpt lat="47.0291" lon="4.83245">
        <ele>223.64</ele>
        <time>2021-07-24T07:10:03Z</time>
      </trkpt>
      <trkpt lat="47.02906" lon="4.8324">
        <ele>223.64</ele>
        <time>2021-07-24T07:10:04Z</time>
      </trkpt>
      <trkpt lat="47.0286" lon="4.83167">
        <ele>222.68</ele>
        <time>2021-07-24T07:10:19Z</time>
      </trkpt>
      <trkpt lat="47.02825" lon="4.83102">
        <ele>221.72</ele>
        <time>2021-07-24T07:10:32Z</time>
      </trkpt>
      <trkpt lat="47.02784" lon="4.83023">
        <ele>221.24</ele>
        <time>2021-07-24T07:10:48Z</time>
      </trkpt>
      <trkpt lat="47.02775" lon="4.83016">
        <ele>220.76</ele>
        <time>2021-07-24T07:10:52Z</time>
      </trkpt>
      <trkpt lat="47.02773" lon="4.83018">
        <ele>220.76</ele>
        <time>2021-07-24T07:10:53Z</time>
      </trkpt>
      <trkpt lat="47.02771" lon="4.83021">
        <ele>220.76</ele>
        <time>2021-07-24T07:10:54Z</time>
      </trkpt>
      <trkpt lat="47.02769" lon="4.83025">
        <ele>220.76</ele>
        <time>2021-07-24T07:10:55Z</time>
      </trkpt>
      <trkpt lat="47.02767" lon="4.83029">
        <ele>220.76</ele>
        <time>2021-07-24T07:10:56Z</time>
      </trkpt>
      <trkpt lat="47.02736" lon="4.83099">
        <ele>220.28</ele>
        <time>2021-07-24T07:11:10Z</time>
      </trkpt>
      <trkpt lat="47.02734" lon="4.83104">
        <ele>220.28</ele>
        <time>2021-07-24T07:11:11Z</time>
      </trkpt>
      <trkpt lat="47.02732" lon="4.83109">
        <ele>220.28</ele>
        <time>2021-07-24T07:11:12Z</time>
      </trkpt>
      <trkpt lat="47.02696" lon="4.8318">
        <ele>220.28</ele>
        <time>2021-07-24T07:11:27Z</time>
      </trkpt>
      <trkpt lat="47.02693" lon="4.83184">
        <ele>220.28</ele>
        <time>2021-07-24T07:11:28Z</time>
      </trkpt>
      <trkpt lat="47.02682" lon="4.83208">
        <ele>220.28</ele>
        <time>2021-07-24T07:11:33Z</time>
      </trkpt>
      <trkpt lat="47.02648" lon="4.83275">
        <ele>220.28</ele>
        <time>2021-07-24T07:11:47Z</time>
      </trkpt>
      <trkpt lat="47.02608" lon="4.83339">
        <ele>219.32</ele>
        <time>2021-07-24T07:12:01Z</time>
      </trkpt>
      <trkpt lat="47.02593" lon="4.83418">
        <ele>220.76</ele>
        <time>2021-07-24T07:12:13Z</time>
      </trkpt>
      <trkpt lat="47.02591" lon="4.83423">
        <ele>220.76</ele>
        <time>2021-07-24T07:12:14Z</time>
      </trkpt>
      <trkpt lat="47.02588" lon="4.83432">
        <ele>220.76</ele>
        <time>2021-07-24T07:12:16Z</time>
      </trkpt>
      <trkpt lat="47.02583" lon="4.83434">
        <ele>220.76</ele>
        <time>2021-07-24T07:12:18Z</time>
      </trkpt>
      <trkpt lat="47.02578" lon="4.83432">
        <ele>220.76</ele>
        <time>2021-07-24T07:12:19Z</time>
      </trkpt>
      <trkpt lat="47.02575" lon="4.8343">
        <ele>220.76</ele>
        <time>2021-07-24T07:12:20Z</time>
      </trkpt>
      <trkpt lat="47.02572" lon="4.83428">
        <ele>220.76</ele>
        <time>2021-07-24T07:12:21Z</time>
      </trkpt>
      <trkpt lat="47.02548" lon="4.83407">
        <ele>220.76</ele>
        <time>2021-07-24T07:12:32Z</time>
      </trkpt>
      <trkpt lat="47.02547" lon="4.83406">
        <ele>220.76</ele>
        <time>2021-07-24T07:12:33Z</time>
      </trkpt>
      <trkpt lat="47.02544" lon="4.83407">
        <ele>220.76</ele>
        <time>2021-07-24T07:12:34Z</time>
      </trkpt>
      <trkpt lat="47.02542" lon="4.83408">
        <ele>220.76</ele>
        <time>2021-07-24T07:12:35Z</time>
      </trkpt>
      <trkpt lat="47.0254" lon="4.83408">
        <ele>220.76</ele>
        <time>2021-07-24T07:12:36Z</time>
      </trkpt>
      <trkpt lat="47.02539" lon="4.83408">
        <ele>220.76</ele>
        <time>2021-07-24T07:12:37Z</time>
      </trkpt>
      <trkpt lat="47.02537" lon="4.83407">
        <ele>220.76</ele>
        <time>2021-07-24T07:12:38Z</time>
      </trkpt>
      <trkpt lat="47.02535" lon="4.83405">
        <ele>220.76</ele>
        <time>2021-07-24T07:12:39Z</time>
      </trkpt>
      <trkpt lat="47.02533" lon="4.83402">
        <ele>220.76</ele>
        <time>2021-07-24T07:12:40Z</time>
      </trkpt>
      <trkpt lat="47.02521" lon="4.83389">
        <ele>220.76</ele>
        <time>2021-07-24T07:12:46Z</time>
      </trkpt>
      <trkpt lat="47.02519" lon="4.83389">
        <ele>220.76</ele>
        <time>2021-07-24T07:12:47Z</time>
      </trkpt>
      <trkpt lat="47.02517" lon="4.83393">
        <ele>220.76</ele>
        <time>2021-07-24T07:12:49Z</time>
      </trkpt>
      <trkpt lat="47.02515" lon="4.83396">
        <ele>220.76</ele>
        <time>2021-07-24T07:12:50Z</time>
      </trkpt>
      <trkpt lat="47.02495" lon="4.83431">
        <ele>219.8</ele>
        <time>2021-07-24T07:13:03Z</time>
      </trkpt>
      <trkpt lat="47.02461" lon="4.83466">
        <ele>219.32</ele>
        <time>2021-07-24T07:13:18Z</time>
      </trkpt>
      <trkpt lat="47.02432" lon="4.83489">
        <ele>218.84</ele>
        <time>2021-07-24T07:13:29Z</time>
      </trkpt>
      <trkpt lat="47.02405" lon="4.83521">
        <ele>218.36</ele>
        <time>2021-07-24T07:13:41Z</time>
      </trkpt>
      <trkpt lat="47.02388" lon="4.83535">
        <ele>217.88</ele>
        <time>2021-07-24T07:13:52Z</time>
      </trkpt>
      <trkpt lat="47.02369" lon="4.83547">
        <ele>217.88</ele>
        <time>2021-07-24T07:14:10Z</time>
      </trkpt>
      <trkpt lat="47.02363" lon="4.83552">
        <ele>217.88</ele>
        <time>2021-07-24T07:14:17Z</time>
      </trkpt>
      <trkpt lat="47.0236" lon="4.83556">
        <ele>217.88</ele>
        <time>2021-07-24T07:14:20Z</time>
      </trkpt>
      <trkpt lat="47.02346" lon="4.83571">
        <ele>217.88</ele>
        <time>2021-07-24T07:14:35Z</time>
      </trkpt>
      <trkpt lat="47.02329" lon="4.83585">
        <ele>217.4</ele>
        <time>2021-07-24T07:14:50Z</time>
      </trkpt>
      <trkpt lat="47.02311" lon="4.83602">
        <ele>216.91</ele>
        <time>2021-07-24T07:15:07Z</time>
      </trkpt>
      <trkpt lat="47.02293" lon="4.8361">
        <ele>216.91</ele>
        <time>2021-07-24T07:15:22Z</time>
      </trkpt>
      <trkpt lat="47.0229" lon="4.83614">
        <ele>216.91</ele>
        <time>2021-07-24T07:15:25Z</time>
      </trkpt>
      <trkpt lat="47.0229" lon="4.83616">
        <ele>216.91</ele>
        <time>2021-07-24T07:15:26Z</time>
      </trkpt>
      <trkpt lat="47.02281" lon="4.83632">
        <ele>216.91</ele>
        <time>2021-07-24T07:15:38Z</time>
      </trkpt>
      <trkpt lat="47.02276" lon="4.83646">
        <ele>216.91</ele>
        <time>2021-07-24T07:15:53Z</time>
      </trkpt>
      <trkpt lat="47.02273" lon="4.8367">
        <ele>216.91</ele>
        <time>2021-07-24T07:16:05Z</time>
      </trkpt>
      <trkpt lat="47.02274" lon="4.83687">
        <ele>216.43</ele>
        <time>2021-07-24T07:16:20Z</time>
      </trkpt>
      <trkpt lat="47.02276" lon="4.83704">
        <ele>216.43</ele>
        <time>2021-07-24T07:16:34Z</time>
      </trkpt>
      <trkpt lat="47.02278" lon="4.83722">
        <ele>216.43</ele>
        <time>2021-07-24T07:16:48Z</time>
      </trkpt>
      <trkpt lat="47.02276" lon="4.83732">
        <ele>216.43</ele>
        <time>2021-07-24T07:16:55Z</time>
      </trkpt>
      <trkpt lat="47.02276" lon="4.83733">
        <ele>216.43</ele>
        <time>2021-07-24T07:16:56Z</time>
      </trkpt>
      <trkpt lat="47.02276" lon="4.83735">
        <ele>216.43</ele>
        <time>2021-07-24T07:16:57Z</time>
      </trkpt>
      <trkpt lat="47.02271" lon="4.83745">
        <ele>216.43</ele>
        <time>2021-07-24T07:17:05Z</time>
      </trkpt>
      <trkpt lat="47.02271" lon="4.83747">
        <ele>216.43</ele>
        <time>2021-07-24T07:17:06Z</time>
      </trkpt>
      <trkpt lat="47.02267" lon="4.83753">
        <ele>216.43</ele>
        <time>2021-07-24T07:17:11Z</time>
      </trkpt>
      <trkpt lat="47.02267" lon="4.83755">
        <ele>216.43</ele>
        <time>2021-07-24T07:17:12Z</time>
      </trkpt>
      <trkpt lat="47.02255" lon="4.83772">
        <ele>216.43</ele>
        <time>2021-07-24T07:17:27Z</time>
      </trkpt>
      <trkpt lat="47.02257" lon="4.83788">
        <ele>216.43</ele>
        <time>2021-07-24T07:17:40Z</time>
      </trkpt>
      <trkpt lat="47.02263" lon="4.83808">
        <ele>216.43</ele>
        <time>2021-07-24T07:17:56Z</time>
      </trkpt>
      <trkpt lat="47.02265" lon="4.83821">
        <ele>216.91</ele>
        <time>2021-07-24T07:18:14Z</time>
      </trkpt>
      <trkpt lat="47.02263" lon="4.83826">
        <ele>216.91</ele>
        <time>2021-07-24T07:18:43Z</time>
      </trkpt>
      <trkpt lat="47.02264" lon="4.83834">
        <ele>216.91</ele>
        <time>2021-07-24T07:18:48Z</time>
      </trkpt>
      <trkpt lat="47.02265" lon="4.83843">
        <ele>216.91</ele>
        <time>2021-07-24T07:18:54Z</time>
      </trkpt>
      <trkpt lat="47.02263" lon="4.83863">
        <ele>216.91</ele>
        <time>2021-07-24T07:19:08Z</time>
      </trkpt>
      <trkpt lat="47.02262" lon="4.83876">
        <ele>216.91</ele>
        <time>2021-07-24T07:19:17Z</time>
      </trkpt>
      <trkpt lat="47.02263" lon="4.83878">
        <ele>216.91</ele>
        <time>2021-07-24T07:19:18Z</time>
      </trkpt>
      <trkpt lat="47.0226" lon="4.839">
        <ele>216.91</ele>
        <time>2021-07-24T07:19:34Z</time>
      </trkpt>
      <trkpt lat="47.0226" lon="4.83901">
        <ele>216.91</ele>
        <time>2021-07-24T07:19:53Z</time>
      </trkpt>
      <trkpt lat="47.0226" lon="4.83902">
        <ele>216.91</ele>
        <time>2021-07-24T07:20:19Z</time>
      </trkpt>
      <trkpt lat="47.02261" lon="4.83906">
        <ele>218.36</ele>
        <time>2021-07-24T07:20:41Z</time>
      </trkpt>
      <trkpt lat="47.02256" lon="4.83906">
        <ele>218.36</ele>
        <time>2021-07-24T07:21:09Z</time>
      </trkpt>
      <trkpt lat="47.0226" lon="4.83906">
        <ele>219.32</ele>
        <time>2021-07-24T07:21:30Z</time>
      </trkpt>
      <trkpt lat="47.02261" lon="4.83905">
        <ele>219.32</ele>
        <time>2021-07-24T07:21:32Z</time>
      </trkpt>
      <trkpt lat="47.02262" lon="4.83898">
        <ele>219.32</ele>
        <time>2021-07-24T07:21:36Z</time>
      </trkpt>
      <trkpt lat="47.02252" lon="4.83882">
        <ele>219.32</ele>
        <time>2021-07-24T07:21:49Z</time>
      </trkpt>
      <trkpt lat="47.02237" lon="4.83863">
        <ele>219.32</ele>
        <time>2021-07-24T07:22:04Z</time>
      </trkpt>
      <trkpt lat="47.02228" lon="4.83848">
        <ele>219.32</ele>
        <time>2021-07-24T07:22:13Z</time>
      </trkpt>
      <trkpt lat="47.02224" lon="4.83831">
        <ele>218.36</ele>
        <time>2021-07-24T07:22:26Z</time>
      </trkpt>
      <trkpt lat="47.02225" lon="4.83815">
        <ele>217.88</ele>
        <time>2021-07-24T07:22:36Z</time>
      </trkpt>
      <trkpt lat="47.02221" lon="4.83802">
        <ele>217.88</ele>
        <time>2021-07-24T07:22:42Z</time>
      </trkpt>
      <trkpt lat="47.02217" lon="4.83796">
        <ele>217.88</ele>
        <time>2021-07-24T07:22:44Z</time>
      </trkpt>
      <trkpt lat="47.02216" lon="4.83791">
        <ele>217.88</ele>
        <time>2021-07-24T07:22:46Z</time>
      </trkpt>
      <trkpt lat="47.02215" lon="4.83788">
        <ele>217.88</ele>
        <time>2021-07-24T07:22:47Z</time>
      </trkpt>
      <trkpt lat="47.02214" lon="4.83784">
        <ele>217.4</ele>
        <time>2021-07-24T07:22:48Z</time>
      </trkpt>
      <trkpt lat="47.02213" lon="4.8378">
        <ele>217.4</ele>
        <time>2021-07-24T07:22:49Z</time>
      </trkpt>
      <trkpt lat="47.02204" lon="4.83736">
        <ele>216.91</ele>
        <time>2021-07-24T07:23:00Z</time>
      </trkpt>
      <trkpt lat="47.02187" lon="4.8374">
        <ele>216.91</ele>
        <time>2021-07-24T07:23:10Z</time>
      </trkpt>
      <trkpt lat="47.02148" lon="4.83735">
        <ele>216.91</ele>
        <time>2021-07-24T07:23:25Z</time>
      </trkpt>
      <trkpt lat="47.02118" lon="4.83749">
        <ele>218.36</ele>
        <time>2021-07-24T07:23:37Z</time>
      </trkpt>
      <trkpt lat="47.02107" lon="4.83752">
        <ele>218.36</ele>
        <time>2021-07-24T07:23:42Z</time>
      </trkpt>
      <trkpt lat="47.0208" lon="4.83754">
        <ele>218.36</ele>
        <time>2021-07-24T07:23:53Z</time>
      </trkpt>
      <trkpt lat="47.02077" lon="4.83734">
        <ele>218.36</ele>
        <time>2021-07-24T07:24:06Z</time>
      </trkpt>
      <trkpt lat="47.02074" lon="4.83696">
        <ele>218.36</ele>
        <time>2021-07-24T07:24:17Z</time>
      </trkpt>
      <trkpt lat="47.02071" lon="4.83617">
        <ele>218.84</ele>
        <time>2021-07-24T07:24:33Z</time>
      </trkpt>
      <trkpt lat="47.02079" lon="4.83572">
        <ele>218.84</ele>
        <time>2021-07-24T07:24:46Z</time>
      </trkpt>
      <trkpt lat="47.0208" lon="4.83569">
        <ele>218.84</ele>
        <time>2021-07-24T07:24:47Z</time>
      </trkpt>
      <trkpt lat="47.02079" lon="4.83566">
        <ele>218.84</ele>
        <time>2021-07-24T07:24:48Z</time>
      </trkpt>
      <trkpt lat="47.02078" lon="4.83563">
        <ele>218.84</ele>
        <time>2021-07-24T07:24:49Z</time>
      </trkpt>
      <trkpt lat="47.02078" lon="4.83561">
        <ele>219.32</ele>
        <time>2021-07-24T07:24:50Z</time>
      </trkpt>
      <trkpt lat="47.02079" lon="4.83559">
        <ele>219.32</ele>
        <time>2021-07-24T07:24:51Z</time>
      </trkpt>
      <trkpt lat="47.02074" lon="4.83553">
        <ele>219.8</ele>
        <time>2021-07-24T07:25:06Z</time>
      </trkpt>
      <trkpt lat="47.02077" lon="4.83555">
        <ele>220.76</ele>
        <time>2021-07-24T07:26:08Z</time>
      </trkpt>
      <trkpt lat="47.02078" lon="4.83554">
        <ele>220.76</ele>
        <time>2021-07-24T07:26:09Z</time>
      </trkpt>
      <trkpt lat="47.0208" lon="4.83552">
        <ele>220.76</ele>
        <time>2021-07-24T07:26:10Z</time>
      </trkpt>
      <trkpt lat="47.02082" lon="4.83551">
        <ele>220.76</ele>
        <time>2021-07-24T07:26:11Z</time>
      </trkpt>
      <trkpt lat="47.02084" lon="4.83549">
        <ele>220.76</ele>
        <time>2021-07-24T07:26:12Z</time>
      </trkpt>
      <trkpt lat="47.02086" lon="4.83547">
        <ele>220.76</ele>
        <time>2021-07-24T07:26:13Z</time>
      </trkpt>
      <trkpt lat="47.02115" lon="4.83512">
        <ele>220.76</ele>
        <time>2021-07-24T07:26:26Z</time>
      </trkpt>
      <trkpt lat="47.02134" lon="4.83479">
        <ele>222.2</ele>
        <time>2021-07-24T07:26:38Z</time>
      </trkpt>
      <trkpt lat="47.02152" lon="4.83449">
        <ele>222.2</ele>
        <time>2021-07-24T07:26:49Z</time>
      </trkpt>
      <trkpt lat="47.02171" lon="4.83413">
        <ele>222.2</ele>
        <time>2021-07-24T07:26:59Z</time>
      </trkpt>
      <trkpt lat="47.02187" lon="4.83373">
        <ele>222.2</ele>
        <time>2021-07-24T07:27:08Z</time>
      </trkpt>
      <trkpt lat="47.02206" lon="4.83341">
        <ele>221.24</ele>
        <time>2021-07-24T07:27:17Z</time>
      </trkpt>
      <trkpt lat="47.02208" lon="4.83334">
        <ele>221.24</ele>
        <time>2021-07-24T07:27:20Z</time>
      </trkpt>
      <trkpt lat="47.02203" lon="4.83322">
        <ele>221.24</ele>
        <time>2021-07-24T07:27:24Z</time>
      </trkpt>
      <trkpt lat="47.02201" lon="4.83321">
        <ele>221.24</ele>
        <time>2021-07-24T07:27:25Z</time>
      </trkpt>
      <trkpt lat="47.02198" lon="4.83321">
        <ele>221.24</ele>
        <time>2021-07-24T07:27:26Z</time>
      </trkpt>
      <trkpt lat="47.02196" lon="4.83322">
        <ele>221.24</ele>
        <time>2021-07-24T07:27:27Z</time>
      </trkpt>
      <trkpt lat="47.02195" lon="4.83323">
        <ele>221.24</ele>
        <time>2021-07-24T07:27:28Z</time>
      </trkpt>
      <trkpt lat="47.02193" lon="4.83324">
        <ele>221.24</ele>
        <time>2021-07-24T07:27:29Z</time>
      </trkpt>
      <trkpt lat="47.0219" lon="4.83323">
        <ele>221.24</ele>
        <time>2021-07-24T07:27:30Z</time>
      </trkpt>
      <trkpt lat="47.02188" lon="4.83321">
        <ele>221.24</ele>
        <time>2021-07-24T07:27:31Z</time>
      </trkpt>
      <trkpt lat="47.02186" lon="4.83319">
        <ele>221.24</ele>
        <time>2021-07-24T07:27:32Z</time>
      </trkpt>
      <trkpt lat="47.02184" lon="4.83317">
        <ele>221.24</ele>
        <time>2021-07-24T07:27:33Z</time>
      </trkpt>
      <trkpt lat="47.02182" lon="4.83314">
        <ele>221.24</ele>
        <time>2021-07-24T07:27:34Z</time>
      </trkpt>
      <trkpt lat="47.0218" lon="4.8331">
        <ele>221.24</ele>
        <time>2021-07-24T07:27:35Z</time>
      </trkpt>
      <trkpt lat="47.02178" lon="4.83307">
        <ele>221.24</ele>
        <time>2021-07-24T07:27:36Z</time>
      </trkpt>
      <trkpt lat="47.02175" lon="4.83304">
        <ele>221.24</ele>
        <time>2021-07-24T07:27:37Z</time>
      </trkpt>
      <trkpt lat="47.02133" lon="4.83253">
        <ele>220.76</ele>
        <time>2021-07-24T07:27:52Z</time>
      </trkpt>
      <trkpt lat="47.02103" lon="4.83205">
        <ele>220.76</ele>
        <time>2021-07-24T07:28:06Z</time>
      </trkpt>
      <trkpt lat="47.02083" lon="4.83173">
        <ele>220.76</ele>
        <time>2021-07-24T07:28:15Z</time>
      </trkpt>
      <trkpt lat="47.02083" lon="4.83168">
        <ele>220.76</ele>
        <time>2021-07-24T07:28:16Z</time>
      </trkpt>
      <trkpt lat="47.02085" lon="4.83163">
        <ele>220.76</ele>
        <time>2021-07-24T07:28:17Z</time>
      </trkpt>
      <trkpt lat="47.02086" lon="4.83159">
        <ele>220.76</ele>
        <time>2021-07-24T07:28:18Z</time>
      </trkpt>
      <trkpt lat="47.02088" lon="4.83154">
        <ele>220.76</ele>
        <time>2021-07-24T07:28:19Z</time>
      </trkpt>
      <trkpt lat="47.02091" lon="4.83149">
        <ele>220.76</ele>
        <time>2021-07-24T07:28:20Z</time>
      </trkpt>
      <trkpt lat="47.02114" lon="4.83096">
        <ele>222.68</ele>
        <time>2021-07-24T07:28:32Z</time>
      </trkpt>
      <trkpt lat="47.02117" lon="4.83075">
        <ele>222.68</ele>
        <time>2021-07-24T07:28:36Z</time>
      </trkpt>
      <trkpt lat="47.0212" lon="4.83072">
        <ele>222.68</ele>
        <time>2021-07-24T07:28:37Z</time>
      </trkpt>
      <trkpt lat="47.02124" lon="4.8307">
        <ele>222.68</ele>
        <time>2021-07-24T07:28:38Z</time>
      </trkpt>
      <trkpt lat="47.02128" lon="4.8307">
        <ele>222.68</ele>
        <time>2021-07-24T07:28:39Z</time>
      </trkpt>
      <trkpt lat="47.02132" lon="4.83069">
        <ele>222.68</ele>
        <time>2021-07-24T07:28:40Z</time>
      </trkpt>
      <trkpt lat="47.02136" lon="4.8307">
        <ele>222.68</ele>
        <time>2021-07-24T07:28:41Z</time>
      </trkpt>
      <trkpt lat="47.02153" lon="4.83072">
        <ele>222.68</ele>
        <time>2021-07-24T07:28:45Z</time>
      </trkpt>
      <trkpt lat="47.02157" lon="4.83072">
        <ele>222.68</ele>
        <time>2021-07-24T07:28:46Z</time>
      </trkpt>
      <trkpt lat="47.02161" lon="4.83072">
        <ele>222.68</ele>
        <time>2021-07-24T07:28:47Z</time>
      </trkpt>
      <trkpt lat="47.02164" lon="4.83072">
        <ele>222.68</ele>
        <time>2021-07-24T07:28:48Z</time>
      </trkpt>
      <trkpt lat="47.02168" lon="4.83071">
        <ele>222.68</ele>
        <time>2021-07-24T07:28:49Z</time>
      </trkpt>
      <trkpt lat="47.02171" lon="4.83068">
        <ele>222.68</ele>
        <time>2021-07-24T07:28:50Z</time>
      </trkpt>
      <trkpt lat="47.02174" lon="4.83064">
        <ele>222.68</ele>
        <time>2021-07-24T07:28:51Z</time>
      </trkpt>
      <trkpt lat="47.02177" lon="4.83059">
        <ele>222.68</ele>
        <time>2021-07-24T07:28:52Z</time>
      </trkpt>
      <trkpt lat="47.02205" lon="4.83006">
        <ele>222.68</ele>
        <time>2021-07-24T07:29:05Z</time>
      </trkpt>
      <trkpt lat="47.02204" lon="4.83001">
        <ele>222.68</ele>
        <time>2021-07-24T07:29:06Z</time>
      </trkpt>
      <trkpt lat="47.02202" lon="4.82994">
        <ele>222.68</ele>
        <time>2021-07-24T07:29:07Z</time>
      </trkpt>
      <trkpt lat="47.02201" lon="4.82992">
        <ele>222.68</ele>
        <time>2021-07-24T07:29:08Z</time>
      </trkpt>
      <trkpt lat="47.02199" lon="4.82989">
        <ele>222.68</ele>
        <time>2021-07-24T07:29:09Z</time>
      </trkpt>
      <trkpt lat="47.02197" lon="4.82984">
        <ele>222.68</ele>
        <time>2021-07-24T07:29:10Z</time>
      </trkpt>
      <trkpt lat="47.02198" lon="4.82981">
        <ele>222.68</ele>
        <time>2021-07-24T07:29:11Z</time>
      </trkpt>
      <trkpt lat="47.02199" lon="4.82975">
        <ele>223.16</ele>
        <time>2021-07-24T07:29:13Z</time>
      </trkpt>
      <trkpt lat="47.02218" lon="4.82922">
        <ele>223.16</ele>
        <time>2021-07-24T07:29:30Z</time>
      </trkpt>
      <trkpt lat="47.02218" lon="4.82921">
        <ele>223.64</ele>
        <time>2021-07-24T07:29:42Z</time>
      </trkpt>
      <trkpt lat="47.02219" lon="4.82918">
        <ele>223.16</ele>
        <time>2021-07-24T07:29:44Z</time>
      </trkpt>
      <trkpt lat="47.02219" lon="4.82916">
        <ele>223.64</ele>
        <time>2021-07-24T07:29:45Z</time>
      </trkpt>
      <trkpt lat="47.0222" lon="4.82914">
        <ele>223.64</ele>
        <time>2021-07-24T07:29:46Z</time>
      </trkpt>
      <trkpt lat="47.02221" lon="4.82911">
        <ele>223.64</ele>
        <time>2021-07-24T07:29:47Z</time>
      </trkpt>
      <trkpt lat="47.02223" lon="4.82908">
        <ele>223.64</ele>
        <time>2021-07-24T07:29:48Z</time>
      </trkpt>
      <trkpt lat="47.02245" lon="4.82858">
        <ele>223.64</ele>
        <time>2021-07-24T07:30:00Z</time>
      </trkpt>
      <trkpt lat="47.02279" lon="4.82789">
        <ele>224.12</ele>
        <time>2021-07-24T07:30:15Z</time>
      </trkpt>
      <trkpt lat="47.02303" lon="4.82708">
        <ele>224.61</ele>
        <time>2021-07-24T07:30:32Z</time>
      </trkpt>
      <trkpt lat="47.02319" lon="4.82625">
        <ele>225.57</ele>
        <time>2021-07-24T07:30:49Z</time>
      </trkpt>
      <trkpt lat="47.02328" lon="4.82557">
        <ele>226.53</ele>
        <time>2021-07-24T07:31:03Z</time>
      </trkpt>
      <trkpt lat="47.02329" lon="4.82484">
        <ele>227.01</ele>
        <time>2021-07-24T07:31:16Z</time>
      </trkpt>
      <trkpt lat="47.02331" lon="4.8248">
        <ele>227.01</ele>
        <time>2021-07-24T07:31:17Z</time>
      </trkpt>
      <trkpt lat="47.02347" lon="4.82427">
        <ele>227.49</ele>
        <time>2021-07-24T07:31:30Z</time>
      </trkpt>
      <trkpt lat="47.02374" lon="4.82344">
        <ele>228.45</ele>
        <time>2021-07-24T07:31:49Z</time>
      </trkpt>
      <trkpt lat="47.02393" lon="4.8229">
        <ele>229.41</ele>
        <time>2021-07-24T07:32:03Z</time>
      </trkpt>
      <trkpt lat="47.02419" lon="4.82225">
        <ele>229.89</ele>
        <time>2021-07-24T07:32:20Z</time>
      </trkpt>
      <trkpt lat="47.02441" lon="4.82164">
        <ele>230.85</ele>
        <time>2021-07-24T07:32:36Z</time>
      </trkpt>
      <trkpt lat="47.02437" lon="4.82142">
        <ele>231.33</ele>
        <time>2021-07-24T07:32:46Z</time>
      </trkpt>
      <trkpt lat="47.02439" lon="4.82142">
        <ele>231.33</ele>
        <time>2021-07-24T07:33:22Z</time>
      </trkpt>
      <trkpt lat="47.02428" lon="4.82128">
        <ele>231.33</ele>
        <time>2021-07-24T07:33:34Z</time>
      </trkpt>
      <trkpt lat="47.02393" lon="4.8208">
        <ele>231.33</ele>
        <time>2021-07-24T07:33:50Z</time>
      </trkpt>
      <trkpt lat="47.02358" lon="4.8204">
        <ele>232.78</ele>
        <time>2021-07-24T07:34:04Z</time>
      </trkpt>
      <trkpt lat="47.02315" lon="4.82009">
        <ele>234.7</ele>
        <time>2021-07-24T07:34:19Z</time>
      </trkpt>
      <trkpt lat="47.0228" lon="4.81967">
        <ele>234.7</ele>
        <time>2021-07-24T07:34:33Z</time>
      </trkpt>
      <trkpt lat="47.02235" lon="4.81905">
        <ele>235.18</ele>
        <time>2021-07-24T07:34:50Z</time>
      </trkpt>
      <trkpt lat="47.02182" lon="4.81844">
        <ele>235.66</ele>
        <time>2021-07-24T07:35:08Z</time>
      </trkpt>
      <trkpt lat="47.02146" lon="4.81796">
        <ele>236.14</ele>
        <time>2021-07-24T07:35:22Z</time>
      </trkpt>
      <trkpt lat="47.02116" lon="4.81759">
        <ele>236.62</ele>
        <time>2021-07-24T07:35:33Z</time>
      </trkpt>
      <trkpt lat="47.02071" lon="4.81706">
        <ele>237.1</ele>
        <time>2021-07-24T07:35:49Z</time>
      </trkpt>
      <trkpt lat="47.02054" lon="4.81684">
        <ele>235.66</ele>
        <time>2021-07-24T07:35:55Z</time>
      </trkpt>
      <trkpt lat="47.02051" lon="4.8168">
        <ele>235.66</ele>
        <time>2021-07-24T07:35:56Z</time>
      </trkpt>
      <trkpt lat="47.02048" lon="4.81676">
        <ele>235.66</ele>
        <time>2021-07-24T07:35:57Z</time>
      </trkpt>
      <trkpt lat="47.02044" lon="4.81675">
        <ele>235.18</ele>
        <time>2021-07-24T07:35:58Z</time>
      </trkpt>
      <trkpt lat="47.02039" lon="4.81676">
        <ele>234.7</ele>
        <time>2021-07-24T07:35:59Z</time>
      </trkpt>
      <trkpt lat="47.02035" lon="4.81678">
        <ele>234.7</ele>
        <time>2021-07-24T07:36:00Z</time>
      </trkpt>
      <trkpt lat="47.02031" lon="4.81681">
        <ele>234.7</ele>
        <time>2021-07-24T07:36:01Z</time>
      </trkpt>
      <trkpt lat="47.02026" lon="4.81683">
        <ele>234.7</ele>
        <time>2021-07-24T07:36:02Z</time>
      </trkpt>
      <trkpt lat="47.02021" lon="4.81685">
        <ele>234.22</ele>
        <time>2021-07-24T07:36:03Z</time>
      </trkpt>
      <trkpt lat="47.02017" lon="4.81686">
        <ele>234.22</ele>
        <time>2021-07-24T07:36:04Z</time>
      </trkpt>
      <trkpt lat="47.02012" lon="4.81686">
        <ele>234.22</ele>
        <time>2021-07-24T07:36:05Z</time>
      </trkpt>
      <trkpt lat="47.02007" lon="4.81686">
        <ele>234.22</ele>
        <time>2021-07-24T07:36:06Z</time>
      </trkpt>
      <trkpt lat="47.01998" lon="4.81685">
        <ele>234.22</ele>
        <time>2021-07-24T07:36:08Z</time>
      </trkpt>
      <trkpt lat="47.01988" lon="4.81681">
        <ele>233.74</ele>
        <time>2021-07-24T07:36:10Z</time>
      </trkpt>
      <trkpt lat="47.01928" lon="4.81643">
        <ele>232.78</ele>
        <time>2021-07-24T07:36:25Z</time>
      </trkpt>
      <trkpt lat="47.01924" lon="4.8164">
        <ele>232.3</ele>
        <time>2021-07-24T07:36:26Z</time>
      </trkpt>
      <trkpt lat="47.0192" lon="4.81637">
        <ele>232.3</ele>
        <time>2021-07-24T07:36:27Z</time>
      </trkpt>
      <trkpt lat="47.01887" lon="4.81604">
        <ele>232.3</ele>
        <time>2021-07-24T07:36:38Z</time>
      </trkpt>
      <trkpt lat="47.01884" lon="4.816">
        <ele>232.3</ele>
        <time>2021-07-24T07:36:39Z</time>
      </trkpt>
      <trkpt lat="47.01876" lon="4.81586">
        <ele>232.3</ele>
        <time>2021-07-24T07:36:42Z</time>
      </trkpt>
      <trkpt lat="47.0184" lon="4.81527">
        <ele>232.3</ele>
        <time>2021-07-24T07:36:56Z</time>
      </trkpt>
      <trkpt lat="47.01831" lon="4.81449">
        <ele>233.74</ele>
        <time>2021-07-24T07:37:10Z</time>
      </trkpt>
      <trkpt lat="47.01799" lon="4.81357">
        <ele>234.7</ele>
        <time>2021-07-24T07:37:29Z</time>
      </trkpt>
      <trkpt lat="47.01768" lon="4.81307">
        <ele>235.18</ele>
        <time>2021-07-24T07:37:41Z</time>
      </trkpt>
      <trkpt lat="47.01723" lon="4.81239">
        <ele>237.1</ele>
        <time>2021-07-24T07:37:58Z</time>
      </trkpt>
      <trkpt lat="47.01704" lon="4.81178">
        <ele>238.54</ele>
        <time>2021-07-24T07:38:11Z</time>
      </trkpt>
      <trkpt lat="47.01694" lon="4.81113">
        <ele>240.47</ele>
        <time>2021-07-24T07:38:26Z</time>
      </trkpt>
      <trkpt lat="47.01675" lon="4.81051">
        <ele>242.87</ele>
        <time>2021-07-24T07:38:43Z</time>
      </trkpt>
      <trkpt lat="47.01659" lon="4.8099">
        <ele>244.79</ele>
        <time>2021-07-24T07:38:59Z</time>
      </trkpt>
      <trkpt lat="47.01642" lon="4.80939">
        <ele>246.72</ele>
        <time>2021-07-24T07:39:14Z</time>
      </trkpt>
      <trkpt lat="47.01624" lon="4.80893">
        <ele>248.16</ele>
        <time>2021-07-24T07:39:28Z</time>
      </trkpt>
      <trkpt lat="47.01598" lon="4.80846">
        <ele>248.64</ele>
        <time>2021-07-24T07:39:43Z</time>
      </trkpt>
      <trkpt lat="47.01548" lon="4.80792">
        <ele>249.6</ele>
        <time>2021-07-24T07:40:02Z</time>
      </trkpt>
      <trkpt lat="47.01506" lon="4.80739">
        <ele>250.56</ele>
        <time>2021-07-24T07:40:18Z</time>
      </trkpt>
      <trkpt lat="47.01483" lon="4.80663">
        <ele>251.52</ele>
        <time>2021-07-24T07:40:35Z</time>
      </trkpt>
      <trkpt lat="47.01461" lon="4.80583">
        <ele>252.96</ele>
        <time>2021-07-24T07:40:52Z</time>
      </trkpt>
      <trkpt lat="47.01447" lon="4.80526">
        <ele>252.96</ele>
        <time>2021-07-24T07:41:05Z</time>
      </trkpt>
      <trkpt lat="47.01425" lon="4.80461">
        <ele>253.44</ele>
        <time>2021-07-24T07:41:19Z</time>
      </trkpt>
      <trkpt lat="47.01422" lon="4.80383">
        <ele>253.93</ele>
        <time>2021-07-24T07:41:34Z</time>
      </trkpt>
      <trkpt lat="47.01408" lon="4.80311">
        <ele>254.89</ele>
        <time>2021-07-24T07:41:48Z</time>
      </trkpt>
      <trkpt lat="47.0138" lon="4.80217">
        <ele>255.85</ele>
        <time>2021-07-24T07:42:07Z</time>
      </trkpt>
      <trkpt lat="47.01355" lon="4.8012">
        <ele>257.77</ele>
        <time>2021-07-24T07:42:27Z</time>
      </trkpt>
      <trkpt lat="47.01333" lon="4.80064">
        <ele>258.25</ele>
        <time>2021-07-24T07:42:40Z</time>
      </trkpt>
      <trkpt lat="47.01311" lon="4.79992">
        <ele>258.73</ele>
        <time>2021-07-24T07:42:56Z</time>
      </trkpt>
      <trkpt lat="47.01287" lon="4.79941">
        <ele>261.14</ele>
        <time>2021-07-24T07:43:10Z</time>
      </trkpt>
      <trkpt lat="47.01293" lon="4.7991">
        <ele>262.58</ele>
        <time>2021-07-24T07:43:19Z</time>
      </trkpt>
      <trkpt lat="47.01293" lon="4.79908">
        <ele>262.58</ele>
        <time>2021-07-24T07:43:20Z</time>
      </trkpt>
      <trkpt lat="47.01293" lon="4.79905">
        <ele>263.54</ele>
        <time>2021-07-24T07:43:21Z</time>
      </trkpt>
      <trkpt lat="47.01293" lon="4.79902">
        <ele>263.54</ele>
        <time>2021-07-24T07:43:22Z</time>
      </trkpt>
      <trkpt lat="47.01293" lon="4.79899">
        <ele>263.54</ele>
        <time>2021-07-24T07:43:23Z</time>
      </trkpt>
      <trkpt lat="47.01292" lon="4.79896">
        <ele>263.54</ele>
        <time>2021-07-24T07:43:24Z</time>
      </trkpt>
      <trkpt lat="47.01291" lon="4.79893">
        <ele>263.54</ele>
        <time>2021-07-24T07:43:25Z</time>
      </trkpt>
      <trkpt lat="47.0129" lon="4.7989">
        <ele>263.54</ele>
        <time>2021-07-24T07:43:26Z</time>
      </trkpt>
      <trkpt lat="47.01288" lon="4.79887">
        <ele>263.54</ele>
        <time>2021-07-24T07:43:27Z</time>
      </trkpt>
      <trkpt lat="47.01286" lon="4.79885">
        <ele>263.54</ele>
        <time>2021-07-24T07:43:28Z</time>
      </trkpt>
      <trkpt lat="47.01255" lon="4.79832">
        <ele>262.58</ele>
        <time>2021-07-24T07:43:46Z</time>
      </trkpt>
      <trkpt lat="47.01249" lon="4.79818">
        <ele>261.62</ele>
        <time>2021-07-24T07:43:49Z</time>
      </trkpt>
      <trkpt lat="47.01247" lon="4.79813">
        <ele>261.62</ele>
        <time>2021-07-24T07:43:50Z</time>
      </trkpt>
      <trkpt lat="47.01219" lon="4.79769">
        <ele>259.69</ele>
        <time>2021-07-24T07:44:03Z</time>
      </trkpt>
      <trkpt lat="47.01182" lon="4.79724">
        <ele>257.77</ele>
        <time>2021-07-24T07:44:14Z</time>
      </trkpt>
      <trkpt lat="47.01179" lon="4.79718">
        <ele>257.29</ele>
        <time>2021-07-24T07:44:15Z</time>
      </trkpt>
      <trkpt lat="47.01173" lon="4.79705">
        <ele>256.33</ele>
        <time>2021-07-24T07:44:17Z</time>
      </trkpt>
      <trkpt lat="47.01169" lon="4.79699">
        <ele>256.33</ele>
        <time>2021-07-24T07:44:18Z</time>
      </trkpt>
      <trkpt lat="47.01165" lon="4.79695">
        <ele>256.33</ele>
        <time>2021-07-24T07:44:19Z</time>
      </trkpt>
      <trkpt lat="47.01079" lon="4.79618">
        <ele>254.41</ele>
        <time>2021-07-24T07:44:38Z</time>
      </trkpt>
      <trkpt lat="47.01043" lon="4.79572">
        <ele>252.96</ele>
        <time>2021-07-24T07:44:51Z</time>
      </trkpt>
      <trkpt lat="47.01039" lon="4.79562">
        <ele>252.48</ele>
        <time>2021-07-24T07:44:53Z</time>
      </trkpt>
      <trkpt lat="47.01003" lon="4.79506">
        <ele>250.08</ele>
        <time>2021-07-24T07:45:05Z</time>
      </trkpt>
      <trkpt lat="47.00979" lon="4.79483">
        <ele>250.08</ele>
        <time>2021-07-24T07:45:16Z</time>
      </trkpt>
      <trkpt lat="47.00949" lon="4.79446">
        <ele>250.08</ele>
        <time>2021-07-24T07:45:31Z</time>
      </trkpt>
      <trkpt lat="47.00946" lon="4.79442">
        <ele>250.08</ele>
        <time>2021-07-24T07:45:35Z</time>
      </trkpt>
      <trkpt lat="47.00945" lon="4.79442">
        <ele>250.08</ele>
        <time>2021-07-24T07:45:36Z</time>
      </trkpt>
      <trkpt lat="47.00943" lon="4.79442">
        <ele>250.08</ele>
        <time>2021-07-24T07:45:37Z</time>
      </trkpt>
      <trkpt lat="47.00941" lon="4.79441">
        <ele>250.08</ele>
        <time>2021-07-24T07:45:38Z</time>
      </trkpt>
      <trkpt lat="47.00939" lon="4.7944">
        <ele>250.08</ele>
        <time>2021-07-24T07:45:39Z</time>
      </trkpt>
      <trkpt lat="47.00937" lon="4.7944">
        <ele>250.08</ele>
        <time>2021-07-24T07:45:40Z</time>
      </trkpt>
      <trkpt lat="47.00935" lon="4.79441">
        <ele>250.08</ele>
        <time>2021-07-24T07:45:41Z</time>
      </trkpt>
      <trkpt lat="47.00933" lon="4.79442">
        <ele>250.08</ele>
        <time>2021-07-24T07:45:42Z</time>
      </trkpt>
      <trkpt lat="47.0093" lon="4.79442">
        <ele>250.08</ele>
        <time>2021-07-24T07:45:43Z</time>
      </trkpt>
      <trkpt lat="47.00928" lon="4.79441">
        <ele>250.08</ele>
        <time>2021-07-24T07:45:44Z</time>
      </trkpt>
      <trkpt lat="47.00925" lon="4.7944">
        <ele>250.08</ele>
        <time>2021-07-24T07:45:45Z</time>
      </trkpt>
      <trkpt lat="47.00923" lon="4.79438">
        <ele>250.08</ele>
        <time>2021-07-24T07:45:46Z</time>
      </trkpt>
      <trkpt lat="47.00896" lon="4.79411">
        <ele>249.6</ele>
        <time>2021-07-24T07:45:58Z</time>
      </trkpt>
      <trkpt lat="47.00896" lon="4.79413">
        <ele>249.6</ele>
        <time>2021-07-24T07:45:59Z</time>
      </trkpt>
      <trkpt lat="47.00895" lon="4.79414">
        <ele>249.6</ele>
        <time>2021-07-24T07:46:00Z</time>
      </trkpt>
      <trkpt lat="47.00876" lon="4.79456">
        <ele>249.12</ele>
        <time>2021-07-24T07:46:14Z</time>
      </trkpt>
      <trkpt lat="47.00861" lon="4.79479">
        <ele>249.12</ele>
        <time>2021-07-24T07:46:25Z</time>
      </trkpt>
      <trkpt lat="47.00861" lon="4.79481">
        <ele>249.12</ele>
        <time>2021-07-24T07:46:26Z</time>
      </trkpt>
      <trkpt lat="47.0086" lon="4.79484">
        <ele>249.12</ele>
        <time>2021-07-24T07:46:27Z</time>
      </trkpt>
      <trkpt lat="47.00859" lon="4.79485">
        <ele>249.12</ele>
        <time>2021-07-24T07:46:28Z</time>
      </trkpt>
      <trkpt lat="47.00857" lon="4.79486">
        <ele>249.12</ele>
        <time>2021-07-24T07:46:29Z</time>
      </trkpt>
      <trkpt lat="47.00856" lon="4.79488">
        <ele>249.12</ele>
        <time>2021-07-24T07:46:30Z</time>
      </trkpt>
      <trkpt lat="47.00856" lon="4.79492">
        <ele>248.64</ele>
        <time>2021-07-24T07:46:33Z</time>
      </trkpt>
      <trkpt lat="47.00858" lon="4.79493">
        <ele>248.64</ele>
        <time>2021-07-24T07:46:45Z</time>
      </trkpt>
      <trkpt lat="47.00859" lon="4.79494">
        <ele>248.64</ele>
        <time>2021-07-24T07:47:17Z</time>
      </trkpt>
      <trkpt lat="47.00856" lon="4.79495">
        <ele>248.64</ele>
        <time>2021-07-24T07:47:50Z</time>
      </trkpt>
      <trkpt lat="47.00862" lon="4.7949">
        <ele>248.64</ele>
        <time>2021-07-24T07:48:26Z</time>
      </trkpt>
      <trkpt lat="47.00858" lon="4.79492">
        <ele>248.64</ele>
        <time>2021-07-24T07:49:01Z</time>
      </trkpt>
      <trkpt lat="47.00864" lon="4.79503">
        <ele>248.64</ele>
        <time>2021-07-24T07:49:21Z</time>
      </trkpt>
      <trkpt lat="47.00887" lon="4.79539">
        <ele>248.64</ele>
        <time>2021-07-24T07:49:37Z</time>
      </trkpt>
      <trkpt lat="47.00883" lon="4.79553">
        <ele>248.16</ele>
        <time>2021-07-24T07:49:40Z</time>
      </trkpt>
      <trkpt lat="47.00881" lon="4.79559">
        <ele>248.16</ele>
        <time>2021-07-24T07:49:41Z</time>
      </trkpt>
      <trkpt lat="47.0088" lon="4.79565">
        <ele>248.16</ele>
        <time>2021-07-24T07:49:42Z</time>
      </trkpt>
      <trkpt lat="47.00867" lon="4.7963">
        <ele>247.68</ele>
        <time>2021-07-24T07:49:54Z</time>
      </trkpt>
      <trkpt lat="47.00867" lon="4.79643">
        <ele>248.16</ele>
        <time>2021-07-24T07:49:57Z</time>
      </trkpt>
      <trkpt lat="47.00865" lon="4.79647">
        <ele>248.16</ele>
        <time>2021-07-24T07:49:58Z</time>
      </trkpt>
      <trkpt lat="47.00862" lon="4.7965">
        <ele>248.16</ele>
        <time>2021-07-24T07:49:59Z</time>
      </trkpt>
      <trkpt lat="47.00824" lon="4.79684">
        <ele>247.68</ele>
        <time>2021-07-24T07:50:14Z</time>
      </trkpt>
      <trkpt lat="47.00811" lon="4.79693">
        <ele>247.68</ele>
        <time>2021-07-24T07:50:26Z</time>
      </trkpt>
      <trkpt lat="47.00812" lon="4.79689">
        <ele>247.68</ele>
        <time>2021-07-24T07:50:39Z</time>
      </trkpt>
      <trkpt lat="47.00815" lon="4.79691">
        <ele>247.68</ele>
        <time>2021-07-24T07:50:43Z</time>
      </trkpt>
      <trkpt lat="47.00816" lon="4.79692">
        <ele>247.68</ele>
        <time>2021-07-24T07:50:44Z</time>
      </trkpt>
      <trkpt lat="47.00818" lon="4.79692">
        <ele>247.68</ele>
        <time>2021-07-24T07:50:46Z</time>
      </trkpt>
      <trkpt lat="47.0084" lon="4.79672">
        <ele>247.68</ele>
        <time>2021-07-24T07:50:59Z</time>
      </trkpt>
      <trkpt lat="47.00861" lon="4.79648">
        <ele>247.68</ele>
        <time>2021-07-24T07:51:13Z</time>
      </trkpt>
      <trkpt lat="47.00865" lon="4.7964">
        <ele>247.68</ele>
        <time>2021-07-24T07:51:17Z</time>
      </trkpt>
      <trkpt lat="47.00865" lon="4.79638">
        <ele>247.68</ele>
        <time>2021-07-24T07:51:18Z</time>
      </trkpt>
      <trkpt lat="47.00866" lon="4.79634">
        <ele>247.68</ele>
        <time>2021-07-24T07:51:35Z</time>
      </trkpt>
      <trkpt lat="47.00864" lon="4.79631">
        <ele>247.68</ele>
        <time>2021-07-24T07:51:37Z</time>
      </trkpt>
      <trkpt lat="47.00863" lon="4.79629">
        <ele>247.68</ele>
        <time>2021-07-24T07:51:38Z</time>
      </trkpt>
      <trkpt lat="47.00861" lon="4.79627">
        <ele>247.68</ele>
        <time>2021-07-24T07:51:39Z</time>
      </trkpt>
      <trkpt lat="47.0086" lon="4.79626">
        <ele>247.68</ele>
        <time>2021-07-24T07:51:40Z</time>
      </trkpt>
      <trkpt lat="47.00857" lon="4.79625">
        <ele>247.68</ele>
        <time>2021-07-24T07:51:41Z</time>
      </trkpt>
      <trkpt lat="47.00855" lon="4.79624">
        <ele>247.68</ele>
        <time>2021-07-24T07:51:42Z</time>
      </trkpt>
      <trkpt lat="47.00826" lon="4.7962">
        <ele>247.68</ele>
        <time>2021-07-24T07:51:52Z</time>
      </trkpt>
      <trkpt lat="47.00794" lon="4.79641">
        <ele>247.68</ele>
        <time>2021-07-24T07:52:04Z</time>
      </trkpt>
      <trkpt lat="47.00777" lon="4.79657">
        <ele>247.68</ele>
        <time>2021-07-24T07:52:13Z</time>
      </trkpt>
      <trkpt lat="47.00776" lon="4.79659">
        <ele>247.68</ele>
        <time>2021-07-24T07:52:27Z</time>
      </trkpt>
      <trkpt lat="47.00776" lon="4.79658">
        <ele>247.68</ele>
        <time>2021-07-24T07:52:42Z</time>
      </trkpt>
      <trkpt lat="47.00778" lon="4.79659">
        <ele>247.68</ele>
        <time>2021-07-24T07:53:09Z</time>
      </trkpt>
      <trkpt lat="47.00778" lon="4.79658">
        <ele>247.68</ele>
        <time>2021-07-24T07:53:43Z</time>
      </trkpt>
      <trkpt lat="47.00778" lon="4.79656">
        <ele>248.16</ele>
        <time>2021-07-24T07:54:27Z</time>
      </trkpt>
      <trkpt lat="47.00779" lon="4.79659">
        <ele>249.12</ele>
        <time>2021-07-24T07:55:04Z</time>
      </trkpt>
      <trkpt lat="47.00778" lon="4.79661">
        <ele>249.12</ele>
        <time>2021-07-24T07:55:42Z</time>
      </trkpt>
      <trkpt lat="47.00779" lon="4.79659">
        <ele>249.12</ele>
        <time>2021-07-24T07:56:16Z</time>
      </trkpt>
      <trkpt lat="47.00777" lon="4.79661">
        <ele>249.6</ele>
        <time>2021-07-24T07:56:48Z</time>
      </trkpt>
      <trkpt lat="47.00775" lon="4.79656">
        <ele>249.6</ele>
        <time>2021-07-24T07:57:23Z</time>
      </trkpt>
      <trkpt lat="47.00776" lon="4.79655">
        <ele>249.6</ele>
        <time>2021-07-24T07:57:46Z</time>
      </trkpt>
      <trkpt lat="47.00777" lon="4.79654">
        <ele>249.6</ele>
        <time>2021-07-24T07:57:47Z</time>
      </trkpt>
      <trkpt lat="47.00778" lon="4.79652">
        <ele>249.6</ele>
        <time>2021-07-24T07:57:48Z</time>
      </trkpt>
      <trkpt lat="47.0078" lon="4.7965">
        <ele>249.6</ele>
        <time>2021-07-24T07:57:49Z</time>
      </trkpt>
      <trkpt lat="47.00792" lon="4.79639">
        <ele>249.6</ele>
        <time>2021-07-24T07:57:56Z</time>
      </trkpt>
      <trkpt lat="47.00794" lon="4.79637">
        <ele>249.6</ele>
        <time>2021-07-24T07:57:57Z</time>
      </trkpt>
      <trkpt lat="47.00796" lon="4.79635">
        <ele>249.6</ele>
        <time>2021-07-24T07:57:58Z</time>
      </trkpt>
      <trkpt lat="47.00802" lon="4.79627">
        <ele>249.6</ele>
        <time>2021-07-24T07:58:08Z</time>
      </trkpt>
      <trkpt lat="47.00803" lon="4.79621">
        <ele>250.08</ele>
        <time>2021-07-24T07:58:31Z</time>
      </trkpt>
      <trkpt lat="47.00806" lon="4.79619">
        <ele>250.08</ele>
        <time>2021-07-24T07:58:35Z</time>
      </trkpt>
      <trkpt lat="47.00807" lon="4.79618">
        <ele>250.08</ele>
        <time>2021-07-24T07:58:36Z</time>
      </trkpt>
      <trkpt lat="47.0081" lon="4.79615">
        <ele>250.08</ele>
        <time>2021-07-24T07:58:39Z</time>
      </trkpt>
      <trkpt lat="47.00812" lon="4.79614">
        <ele>250.08</ele>
        <time>2021-07-24T07:58:40Z</time>
      </trkpt>
      <trkpt lat="47.00818" lon="4.79611">
        <ele>250.08</ele>
        <time>2021-07-24T07:58:47Z</time>
      </trkpt>
      <trkpt lat="47.0082" lon="4.79611">
        <ele>250.08</ele>
        <time>2021-07-24T07:58:48Z</time>
      </trkpt>
      <trkpt lat="47.00822" lon="4.79611">
        <ele>250.08</ele>
        <time>2021-07-24T07:58:49Z</time>
      </trkpt>
      <trkpt lat="47.00824" lon="4.79611">
        <ele>250.08</ele>
        <time>2021-07-24T07:58:50Z</time>
      </trkpt>
      <trkpt lat="47.00826" lon="4.79612">
        <ele>250.08</ele>
        <time>2021-07-24T07:58:51Z</time>
      </trkpt>
      <trkpt lat="47.00828" lon="4.79612">
        <ele>250.08</ele>
        <time>2021-07-24T07:58:52Z</time>
      </trkpt>
      <trkpt lat="47.00831" lon="4.79614">
        <ele>250.08</ele>
        <time>2021-07-24T07:58:53Z</time>
      </trkpt>
      <trkpt lat="47.00834" lon="4.79615">
        <ele>250.08</ele>
        <time>2021-07-24T07:58:54Z</time>
      </trkpt>
      <trkpt lat="47.00837" lon="4.79615">
        <ele>250.08</ele>
        <time>2021-07-24T07:58:55Z</time>
      </trkpt>
      <trkpt lat="47.00855" lon="4.7962">
        <ele>250.08</ele>
        <time>2021-07-24T07:59:03Z</time>
      </trkpt>
      <trkpt lat="47.00857" lon="4.79619">
        <ele>250.08</ele>
        <time>2021-07-24T07:59:04Z</time>
      </trkpt>
      <trkpt lat="47.00859" lon="4.79618">
        <ele>250.08</ele>
        <time>2021-07-24T07:59:05Z</time>
      </trkpt>
      <trkpt lat="47.00861" lon="4.79615">
        <ele>251.04</ele>
        <time>2021-07-24T07:59:06Z</time>
      </trkpt>
      <trkpt lat="47.00862" lon="4.79612">
        <ele>251.04</ele>
        <time>2021-07-24T07:59:07Z</time>
      </trkpt>
      <trkpt lat="47.00863" lon="4.7961">
        <ele>251.04</ele>
        <time>2021-07-24T07:59:08Z</time>
      </trkpt>
      <trkpt lat="47.00875" lon="4.79574">
        <ele>251.52</ele>
        <time>2021-07-24T07:59:20Z</time>
      </trkpt>
      <trkpt lat="47.00892" lon="4.79524">
        <ele>251.52</ele>
        <time>2021-07-24T07:59:33Z</time>
      </trkpt>
      <trkpt lat="47.00912" lon="4.79481">
        <ele>252.96</ele>
        <time>2021-07-24T07:59:46Z</time>
      </trkpt>
      <trkpt lat="47.00913" lon="4.79478">
        <ele>252.96</ele>
        <time>2021-07-24T07:59:47Z</time>
      </trkpt>
      <trkpt lat="47.00919" lon="4.79442">
        <ele>253.44</ele>
        <time>2021-07-24T07:59:57Z</time>
      </trkpt>
      <trkpt lat="47.00899" lon="4.79414">
        <ele>253.44</ele>
        <time>2021-07-24T08:00:06Z</time>
      </trkpt>
      <trkpt lat="47.00865" lon="4.79368">
        <ele>253.44</ele>
        <time>2021-07-24T08:00:20Z</time>
      </trkpt>
      <trkpt lat="47.00838" lon="4.79344">
        <ele>254.89</ele>
        <time>2021-07-24T08:00:30Z</time>
      </trkpt>
      <trkpt lat="47.00835" lon="4.7934">
        <ele>255.37</ele>
        <time>2021-07-24T08:00:32Z</time>
      </trkpt>
      <trkpt lat="47.00799" lon="4.79295">
        <ele>256.81</ele>
        <time>2021-07-24T08:00:49Z</time>
      </trkpt>
      <trkpt lat="47.00783" lon="4.79256">
        <ele>257.77</ele>
        <time>2021-07-24T08:01:01Z</time>
      </trkpt>
      <trkpt lat="47.00756" lon="4.79195">
        <ele>259.69</ele>
        <time>2021-07-24T08:01:20Z</time>
      </trkpt>
      <trkpt lat="47.00737" lon="4.79146">
        <ele>261.62</ele>
        <time>2021-07-24T08:01:36Z</time>
      </trkpt>
      <trkpt lat="47.00711" lon="4.79099">
        <ele>264.02</ele>
        <time>2021-07-24T08:01:54Z</time>
      </trkpt>
      <trkpt lat="47.0071" lon="4.79096">
        <ele>264.02</ele>
        <time>2021-07-24T08:01:55Z</time>
      </trkpt>
      <trkpt lat="47.00709" lon="4.79093">
        <ele>264.02</ele>
        <time>2021-07-24T08:01:56Z</time>
      </trkpt>
      <trkpt lat="47.00707" lon="4.7909">
        <ele>264.02</ele>
        <time>2021-07-24T08:01:57Z</time>
      </trkpt>
      <trkpt lat="47.00706" lon="4.79088">
        <ele>264.02</ele>
        <time>2021-07-24T08:01:58Z</time>
      </trkpt>
      <trkpt lat="47.00705" lon="4.79085">
        <ele>264.5</ele>
        <time>2021-07-24T08:01:59Z</time>
      </trkpt>
      <trkpt lat="47.00704" lon="4.79082">
        <ele>264.5</ele>
        <time>2021-07-24T08:02:00Z</time>
      </trkpt>
      <trkpt lat="47.00686" lon="4.79041">
        <ele>265.94</ele>
        <time>2021-07-24T08:02:14Z</time>
      </trkpt>
      <trkpt lat="47.00674" lon="4.79007">
        <ele>267.38</ele>
        <time>2021-07-24T08:02:27Z</time>
      </trkpt>
      <trkpt lat="47.00674" lon="4.79004">
        <ele>267.86</ele>
        <time>2021-07-24T08:02:37Z</time>
      </trkpt>
      <trkpt lat="47.00676" lon="4.79006">
        <ele>268.35</ele>
        <time>2021-07-24T08:03:09Z</time>
      </trkpt>
      <trkpt lat="47.00674" lon="4.79004">
        <ele>268.35</ele>
        <time>2021-07-24T08:03:19Z</time>
      </trkpt>
      <trkpt lat="47.00673" lon="4.79003">
        <ele>268.35</ele>
        <time>2021-07-24T08:03:20Z</time>
      </trkpt>
      <trkpt lat="47.00672" lon="4.79002">
        <ele>268.35</ele>
        <time>2021-07-24T08:03:21Z</time>
      </trkpt>
      <trkpt lat="47.0067" lon="4.79001">
        <ele>268.83</ele>
        <time>2021-07-24T08:03:22Z</time>
      </trkpt>
      <trkpt lat="47.00669" lon="4.78999">
        <ele>268.83</ele>
        <time>2021-07-24T08:03:23Z</time>
      </trkpt>
      <trkpt lat="47.00654" lon="4.78958">
        <ele>270.75</ele>
        <time>2021-07-24T08:03:39Z</time>
      </trkpt>
      <trkpt lat="47.00642" lon="4.7892">
        <ele>272.19</ele>
        <time>2021-07-24T08:03:53Z</time>
      </trkpt>
      <trkpt lat="47.00633" lon="4.78885">
        <ele>274.11</ele>
        <time>2021-07-24T08:04:06Z</time>
      </trkpt>
      <trkpt lat="47.00631" lon="4.7888">
        <ele>274.11</ele>
        <time>2021-07-24T08:04:08Z</time>
      </trkpt>
      <trkpt lat="47.00631" lon="4.78878">
        <ele>274.59</ele>
        <time>2021-07-24T08:04:09Z</time>
      </trkpt>
      <trkpt lat="47.00631" lon="4.78876">
        <ele>274.59</ele>
        <time>2021-07-24T08:04:10Z</time>
      </trkpt>
      <trkpt lat="47.0063" lon="4.78874">
        <ele>274.59</ele>
        <time>2021-07-24T08:04:11Z</time>
      </trkpt>
      <trkpt lat="47.00629" lon="4.78871">
        <ele>274.59</ele>
        <time>2021-07-24T08:04:12Z</time>
      </trkpt>
      <trkpt lat="47.00628" lon="4.7887">
        <ele>275.07</ele>
        <time>2021-07-24T08:04:13Z</time>
      </trkpt>
      <trkpt lat="47.00627" lon="4.78867">
        <ele>275.07</ele>
        <time>2021-07-24T08:04:14Z</time>
      </trkpt>
      <trkpt lat="47.00625" lon="4.7886">
        <ele>275.07</ele>
        <time>2021-07-24T08:04:17Z</time>
      </trkpt>
      <trkpt lat="47.00624" lon="4.78857">
        <ele>275.07</ele>
        <time>2021-07-24T08:04:18Z</time>
      </trkpt>
      <trkpt lat="47.00603" lon="4.78823">
        <ele>277.48</ele>
        <time>2021-07-24T08:04:33Z</time>
      </trkpt>
      <trkpt lat="47.00574" lon="4.78787">
        <ele>278.92</ele>
        <time>2021-07-24T08:04:51Z</time>
      </trkpt>
      <trkpt lat="47.00554" lon="4.78753">
        <ele>280.36</ele>
        <time>2021-07-24T08:05:05Z</time>
      </trkpt>
      <trkpt lat="47.00538" lon="4.78723">
        <ele>281.32</ele>
        <time>2021-07-24T08:05:17Z</time>
      </trkpt>
      <trkpt lat="47.00538" lon="4.78721">
        <ele>281.8</ele>
        <time>2021-07-24T08:05:18Z</time>
      </trkpt>
      <trkpt lat="47.00538" lon="4.78718">
        <ele>281.8</ele>
        <time>2021-07-24T08:05:19Z</time>
      </trkpt>
      <trkpt lat="47.00538" lon="4.78715">
        <ele>281.8</ele>
        <time>2021-07-24T08:05:20Z</time>
      </trkpt>
      <trkpt lat="47.00539" lon="4.78712">
        <ele>282.28</ele>
        <time>2021-07-24T08:05:21Z</time>
      </trkpt>
      <trkpt lat="47.00539" lon="4.78709">
        <ele>282.28</ele>
        <time>2021-07-24T08:05:22Z</time>
      </trkpt>
      <trkpt lat="47.00543" lon="4.78669">
        <ele>285.17</ele>
        <time>2021-07-24T08:05:38Z</time>
      </trkpt>
      <trkpt lat="47.00517" lon="4.78644">
        <ele>287.09</ele>
        <time>2021-07-24T08:05:54Z</time>
      </trkpt>
      <trkpt lat="47.00497" lon="4.78625">
        <ele>289.01</ele>
        <time>2021-07-24T08:06:07Z</time>
      </trkpt>
      <trkpt lat="47.00496" lon="4.78623">
        <ele>289.01</ele>
        <time>2021-07-24T08:06:08Z</time>
      </trkpt>
      <trkpt lat="47.00494" lon="4.78621">
        <ele>289.01</ele>
        <time>2021-07-24T08:06:09Z</time>
      </trkpt>
      <trkpt lat="47.00493" lon="4.78619">
        <ele>289.01</ele>
        <time>2021-07-24T08:06:10Z</time>
      </trkpt>
      <trkpt lat="47.00492" lon="4.78618">
        <ele>289.01</ele>
        <time>2021-07-24T08:06:11Z</time>
      </trkpt>
      <trkpt lat="47.0049" lon="4.78616">
        <ele>289.01</ele>
        <time>2021-07-24T08:06:12Z</time>
      </trkpt>
      <trkpt lat="47.00489" lon="4.78614">
        <ele>289.49</ele>
        <time>2021-07-24T08:06:13Z</time>
      </trkpt>
      <trkpt lat="47.00471" lon="4.78564">
        <ele>292.38</ele>
        <time>2021-07-24T08:06:32Z</time>
      </trkpt>
      <trkpt lat="47.00448" lon="4.78531">
        <ele>293.34</ele>
        <time>2021-07-24T08:06:46Z</time>
      </trkpt>
      <trkpt lat="47.00405" lon="4.78495">
        <ele>293.82</ele>
        <time>2021-07-24T08:07:03Z</time>
      </trkpt>
      <trkpt lat="47.00356" lon="4.7842">
        <ele>294.78</ele>
        <time>2021-07-24T08:07:24Z</time>
      </trkpt>
      <trkpt lat="47.0034" lon="4.78402">
        <ele>294.78</ele>
        <time>2021-07-24T08:07:29Z</time>
      </trkpt>
      <trkpt lat="47.00336" lon="4.784">
        <ele>294.78</ele>
        <time>2021-07-24T08:07:30Z</time>
      </trkpt>
      <trkpt lat="47.00322" lon="4.78392">
        <ele>294.3</ele>
        <time>2021-07-24T08:07:33Z</time>
      </trkpt>
      <trkpt lat="47.00296" lon="4.78378">
        <ele>293.34</ele>
        <time>2021-07-24T08:07:39Z</time>
      </trkpt>
      <trkpt lat="47.00279" lon="4.78371">
        <ele>292.86</ele>
        <time>2021-07-24T08:07:49Z</time>
      </trkpt>
      <trkpt lat="47.00282" lon="4.78369">
        <ele>292.86</ele>
        <time>2021-07-24T08:08:27Z</time>
      </trkpt>
      <trkpt lat="47.00281" lon="4.78368">
        <ele>292.38</ele>
        <time>2021-07-24T08:09:00Z</time>
      </trkpt>
      <trkpt lat="47.00279" lon="4.78366">
        <ele>291.9</ele>
        <time>2021-07-24T08:09:44Z</time>
      </trkpt>
      <trkpt lat="47.00279" lon="4.78372">
        <ele>291.42</ele>
        <time>2021-07-24T08:10:28Z</time>
      </trkpt>
      <trkpt lat="47.00278" lon="4.7837">
        <ele>290.94</ele>
        <time>2021-07-24T08:10:37Z</time>
      </trkpt>
      <trkpt lat="47.00276" lon="4.78368">
        <ele>290.94</ele>
        <time>2021-07-24T08:10:38Z</time>
      </trkpt>
      <trkpt lat="47.00275" lon="4.78367">
        <ele>290.94</ele>
        <time>2021-07-24T08:10:39Z</time>
      </trkpt>
      <trkpt lat="47.00273" lon="4.78365">
        <ele>290.94</ele>
        <time>2021-07-24T08:10:40Z</time>
      </trkpt>
      <trkpt lat="47.0024" lon="4.7834">
        <ele>290.94</ele>
        <time>2021-07-24T08:10:52Z</time>
      </trkpt>
      <trkpt lat="47.00209" lon="4.78302">
        <ele>289.49</ele>
        <time>2021-07-24T08:11:05Z</time>
      </trkpt>
      <trkpt lat="47.00182" lon="4.78258">
        <ele>289.01</ele>
        <time>2021-07-24T08:11:18Z</time>
      </trkpt>
      <trkpt lat="47.00153" lon="4.78221">
        <ele>289.01</ele>
        <time>2021-07-24T08:11:32Z</time>
      </trkpt>
      <trkpt lat="47.00131" lon="4.78186">
        <ele>290.46</ele>
        <time>2021-07-24T08:11:44Z</time>
      </trkpt>
      <trkpt lat="47.00132" lon="4.78184">
        <ele>290.46</ele>
        <time>2021-07-24T08:11:45Z</time>
      </trkpt>
      <trkpt lat="47.00132" lon="4.78182">
        <ele>290.94</ele>
        <time>2021-07-24T08:11:46Z</time>
      </trkpt>
      <trkpt lat="47.00143" lon="4.78141">
        <ele>292.38</ele>
        <time>2021-07-24T08:12:01Z</time>
      </trkpt>
      <trkpt lat="47.00152" lon="4.78108">
        <ele>294.3</ele>
        <time>2021-07-24T08:12:13Z</time>
      </trkpt>
      <trkpt lat="47.00151" lon="4.78106">
        <ele>294.78</ele>
        <time>2021-07-24T08:12:14Z</time>
      </trkpt>
      <trkpt lat="47.0015" lon="4.78105">
        <ele>294.78</ele>
        <time>2021-07-24T08:12:15Z</time>
      </trkpt>
      <trkpt lat="47.00117" lon="4.78095">
        <ele>293.34</ele>
        <time>2021-07-24T08:12:30Z</time>
      </trkpt>
      <trkpt lat="47.00114" lon="4.78094">
        <ele>293.34</ele>
        <time>2021-07-24T08:12:31Z</time>
      </trkpt>
      <trkpt lat="47.00072" lon="4.78087">
        <ele>290.94</ele>
        <time>2021-07-24T08:12:43Z</time>
      </trkpt>
      <trkpt lat="47.0003" lon="4.78078">
        <ele>289.01</ele>
        <time>2021-07-24T08:12:54Z</time>
      </trkpt>
      <trkpt lat="47.00029" lon="4.78076">
        <ele>288.53</ele>
        <time>2021-07-24T08:13:04Z</time>
      </trkpt>
      <trkpt lat="47.00031" lon="4.78077">
        <ele>289.01</ele>
        <time>2021-07-24T08:13:23Z</time>
      </trkpt>
      <trkpt lat="47.00031" lon="4.78078">
        <ele>289.01</ele>
        <time>2021-07-24T08:13:27Z</time>
      </trkpt>
      <trkpt lat="47.00029" lon="4.78077">
        <ele>289.01</ele>
        <time>2021-07-24T08:13:28Z</time>
      </trkpt>
      <trkpt lat="47.00027" lon="4.78076">
        <ele>289.01</ele>
        <time>2021-07-24T08:13:29Z</time>
      </trkpt>
      <trkpt lat="47.00025" lon="4.78075">
        <ele>289.01</ele>
        <time>2021-07-24T08:13:30Z</time>
      </trkpt>
      <trkpt lat="47.00023" lon="4.78074">
        <ele>289.01</ele>
        <time>2021-07-24T08:13:31Z</time>
      </trkpt>
      <trkpt lat="47.00008" lon="4.7807">
        <ele>288.53</ele>
        <time>2021-07-24T08:13:38Z</time>
      </trkpt>
      <trkpt lat="47.00006" lon="4.78069">
        <ele>288.05</ele>
        <time>2021-07-24T08:13:39Z</time>
      </trkpt>
      <trkpt lat="47.00001" lon="4.7806">
        <ele>288.05</ele>
        <time>2021-07-24T08:13:49Z</time>
      </trkpt>
      <trkpt lat="47" lon="4.78064">
        <ele>288.05</ele>
        <time>2021-07-24T08:13:52Z</time>
      </trkpt>
      <trkpt lat="46.99997" lon="4.7807">
        <ele>288.05</ele>
        <time>2021-07-24T08:13:57Z</time>
      </trkpt>
      <trkpt lat="46.99996" lon="4.78069">
        <ele>288.05</ele>
        <time>2021-07-24T08:13:58Z</time>
      </trkpt>
      <trkpt lat="46.99994" lon="4.78068">
        <ele>288.53</ele>
        <time>2021-07-24T08:13:59Z</time>
      </trkpt>
      <trkpt lat="46.99975" lon="4.78064">
        <ele>289.49</ele>
        <time>2021-07-24T08:14:10Z</time>
      </trkpt>
      <trkpt lat="46.99973" lon="4.78064">
        <ele>289.49</ele>
        <time>2021-07-24T08:14:11Z</time>
      </trkpt>
      <trkpt lat="46.99972" lon="4.78066">
        <ele>289.49</ele>
        <time>2021-07-24T08:14:12Z</time>
      </trkpt>
      <trkpt lat="46.99972" lon="4.78067">
        <ele>289.49</ele>
        <time>2021-07-24T08:14:13Z</time>
      </trkpt>
      <trkpt lat="46.99973" lon="4.78068">
        <ele>289.49</ele>
        <time>2021-07-24T08:14:14Z</time>
      </trkpt>
      <trkpt lat="46.99975" lon="4.78068">
        <ele>289.49</ele>
        <time>2021-07-24T08:14:15Z</time>
      </trkpt>
      <trkpt lat="46.99978" lon="4.78065">
        <ele>289.97</ele>
        <time>2021-07-24T08:14:28Z</time>
      </trkpt>
      <trkpt lat="46.99987" lon="4.78064">
        <ele>289.01</ele>
        <time>2021-07-24T08:14:59Z</time>
      </trkpt>
      <trkpt lat="47.00005" lon="4.78074">
        <ele>288.53</ele>
        <time>2021-07-24T08:15:08Z</time>
      </trkpt>
      <trkpt lat="47.00005" lon="4.78076">
        <ele>288.53</ele>
        <time>2021-07-24T08:15:09Z</time>
      </trkpt>
      <trkpt lat="47.00005" lon="4.78079">
        <ele>288.05</ele>
        <time>2021-07-24T08:15:10Z</time>
      </trkpt>
      <trkpt lat="47.00005" lon="4.78083">
        <ele>288.05</ele>
        <time>2021-07-24T08:15:11Z</time>
      </trkpt>
      <trkpt lat="47.00003" lon="4.78088">
        <ele>287.57</ele>
        <time>2021-07-24T08:15:12Z</time>
      </trkpt>
      <trkpt lat="47.00001" lon="4.78094">
        <ele>287.57</ele>
        <time>2021-07-24T08:15:13Z</time>
      </trkpt>
      <trkpt lat="46.99999" lon="4.78099">
        <ele>287.09</ele>
        <time>2021-07-24T08:15:14Z</time>
      </trkpt>
      <trkpt lat="46.99997" lon="4.78105">
        <ele>287.09</ele>
        <time>2021-07-24T08:15:15Z</time>
      </trkpt>
      <trkpt lat="46.99995" lon="4.78111">
        <ele>286.13</ele>
        <time>2021-07-24T08:15:16Z</time>
      </trkpt>
      <trkpt lat="46.99976" lon="4.78154">
        <ele>284.69</ele>
        <time>2021-07-24T08:15:26Z</time>
      </trkpt>
      <trkpt lat="46.99954" lon="4.78195">
        <ele>281.8</ele>
        <time>2021-07-24T08:15:39Z</time>
      </trkpt>
      <trkpt lat="46.99947" lon="4.78211">
        <ele>280.84</ele>
        <time>2021-07-24T08:15:48Z</time>
      </trkpt>
      <trkpt lat="46.99948" lon="4.78209">
        <ele>280.84</ele>
        <time>2021-07-24T08:15:49Z</time>
      </trkpt>
      <trkpt lat="46.99951" lon="4.78203">
        <ele>280.84</ele>
        <time>2021-07-24T08:15:53Z</time>
      </trkpt>
      <trkpt lat="46.99951" lon="4.782">
        <ele>280.84</ele>
        <time>2021-07-24T08:16:10Z</time>
      </trkpt>
      <trkpt lat="46.99952" lon="4.78203">
        <ele>280.84</ele>
        <time>2021-07-24T08:16:27Z</time>
      </trkpt>
      <trkpt lat="46.99935" lon="4.78237">
        <ele>279.4</ele>
        <time>2021-07-24T08:16:40Z</time>
      </trkpt>
      <trkpt lat="46.99912" lon="4.78273">
        <ele>277</ele>
        <time>2021-07-24T08:16:52Z</time>
      </trkpt>
      <trkpt lat="46.99899" lon="4.78298">
        <ele>275.56</ele>
        <time>2021-07-24T08:17:01Z</time>
      </trkpt>
      <trkpt lat="46.99899" lon="4.78292">
        <ele>275.56</ele>
        <time>2021-07-24T08:17:15Z</time>
      </trkpt>
      <trkpt lat="46.999" lon="4.78293">
        <ele>275.56</ele>
        <time>2021-07-24T08:17:56Z</time>
      </trkpt>
      <trkpt lat="46.99899" lon="4.7829">
        <ele>275.56</ele>
        <time>2021-07-24T08:18:32Z</time>
      </trkpt>
      <trkpt lat="46.99902" lon="4.78293">
        <ele>275.07</ele>
        <time>2021-07-24T08:18:47Z</time>
      </trkpt>
      <trkpt lat="46.99901" lon="4.78295">
        <ele>275.07</ele>
        <time>2021-07-24T08:18:48Z</time>
      </trkpt>
      <trkpt lat="46.999" lon="4.78297">
        <ele>275.07</ele>
        <time>2021-07-24T08:18:49Z</time>
      </trkpt>
      <trkpt lat="46.99874" lon="4.78341">
        <ele>272.67</ele>
        <time>2021-07-24T08:19:01Z</time>
      </trkpt>
      <trkpt lat="46.99854" lon="4.78369">
        <ele>271.23</ele>
        <time>2021-07-24T08:19:10Z</time>
      </trkpt>
      <trkpt lat="46.99837" lon="4.78379">
        <ele>270.27</ele>
        <time>2021-07-24T08:19:18Z</time>
      </trkpt>
      <trkpt lat="46.99833" lon="4.78383">
        <ele>269.31</ele>
        <time>2021-07-24T08:19:19Z</time>
      </trkpt>
      <trkpt lat="46.9983" lon="4.78388">
        <ele>268.83</ele>
        <time>2021-07-24T08:19:20Z</time>
      </trkpt>
      <trkpt lat="46.99826" lon="4.78394">
        <ele>268.83</ele>
        <time>2021-07-24T08:19:21Z</time>
      </trkpt>
      <trkpt lat="46.99823" lon="4.78401">
        <ele>268.35</ele>
        <time>2021-07-24T08:19:22Z</time>
      </trkpt>
      <trkpt lat="46.99811" lon="4.78428">
        <ele>266.9</ele>
        <time>2021-07-24T08:19:26Z</time>
      </trkpt>
      <trkpt lat="46.998" lon="4.78456">
        <ele>265.94</ele>
        <time>2021-07-24T08:19:30Z</time>
      </trkpt>
      <trkpt lat="46.99796" lon="4.78462">
        <ele>265.94</ele>
        <time>2021-07-24T08:19:31Z</time>
      </trkpt>
      <trkpt lat="46.9979" lon="4.78474">
        <ele>264.98</ele>
        <time>2021-07-24T08:19:33Z</time>
      </trkpt>
      <trkpt lat="46.99786" lon="4.78478">
        <ele>264.98</ele>
        <time>2021-07-24T08:19:34Z</time>
      </trkpt>
      <trkpt lat="46.99782" lon="4.78482">
        <ele>264.5</ele>
        <time>2021-07-24T08:19:35Z</time>
      </trkpt>
      <trkpt lat="46.99777" lon="4.78484">
        <ele>264.5</ele>
        <time>2021-07-24T08:19:36Z</time>
      </trkpt>
      <trkpt lat="46.99772" lon="4.78485">
        <ele>264.5</ele>
        <time>2021-07-24T08:19:37Z</time>
      </trkpt>
      <trkpt lat="46.99746" lon="4.78493">
        <ele>263.06</ele>
        <time>2021-07-24T08:19:42Z</time>
      </trkpt>
      <trkpt lat="46.99741" lon="4.78497">
        <ele>263.06</ele>
        <time>2021-07-24T08:19:43Z</time>
      </trkpt>
      <trkpt lat="46.99703" lon="4.78521">
        <ele>259.21</ele>
        <time>2021-07-24T08:19:50Z</time>
      </trkpt>
      <trkpt lat="46.99698" lon="4.78525">
        <ele>259.21</ele>
        <time>2021-07-24T08:19:51Z</time>
      </trkpt>
      <trkpt lat="46.99687" lon="4.78533">
        <ele>258.25</ele>
        <time>2021-07-24T08:19:53Z</time>
      </trkpt>
      <trkpt lat="46.99682" lon="4.78535">
        <ele>258.25</ele>
        <time>2021-07-24T08:19:54Z</time>
      </trkpt>
      <trkpt lat="46.99676" lon="4.78535">
        <ele>257.77</ele>
        <time>2021-07-24T08:19:55Z</time>
      </trkpt>
      <trkpt lat="46.99671" lon="4.78536">
        <ele>256.81</ele>
        <time>2021-07-24T08:19:56Z</time>
      </trkpt>
      <trkpt lat="46.99665" lon="4.78539">
        <ele>256.81</ele>
        <time>2021-07-24T08:19:57Z</time>
      </trkpt>
      <trkpt lat="46.9966" lon="4.78542">
        <ele>256.81</ele>
        <time>2021-07-24T08:19:58Z</time>
      </trkpt>
      <trkpt lat="46.99655" lon="4.78546">
        <ele>256.33</ele>
        <time>2021-07-24T08:19:59Z</time>
      </trkpt>
      <trkpt lat="46.9965" lon="4.78552">
        <ele>255.85</ele>
        <time>2021-07-24T08:20:00Z</time>
      </trkpt>
      <trkpt lat="46.99646" lon="4.78558">
        <ele>255.37</ele>
        <time>2021-07-24T08:20:01Z</time>
      </trkpt>
      <trkpt lat="46.99628" lon="4.7858">
        <ele>253.93</ele>
        <time>2021-07-24T08:20:06Z</time>
      </trkpt>
      <trkpt lat="46.99625" lon="4.78578">
        <ele>253.93</ele>
        <time>2021-07-24T08:20:07Z</time>
      </trkpt>
      <trkpt lat="46.99622" lon="4.78576">
        <ele>253.93</ele>
        <time>2021-07-24T08:20:08Z</time>
      </trkpt>
      <trkpt lat="46.99597" lon="4.78558">
        <ele>252.96</ele>
        <time>2021-07-24T08:20:15Z</time>
      </trkpt>
      <trkpt lat="46.99593" lon="4.78555">
        <ele>252.96</ele>
        <time>2021-07-24T08:20:16Z</time>
      </trkpt>
      <trkpt lat="46.99581" lon="4.78548">
        <ele>252.48</ele>
        <time>2021-07-24T08:20:19Z</time>
      </trkpt>
      <trkpt lat="46.99514" lon="4.78502">
        <ele>251.04</ele>
        <time>2021-07-24T08:20:36Z</time>
      </trkpt>
      <trkpt lat="46.99511" lon="4.78499">
        <ele>251.04</ele>
        <time>2021-07-24T08:20:37Z</time>
      </trkpt>
      <trkpt lat="46.99508" lon="4.78495">
        <ele>251.04</ele>
        <time>2021-07-24T08:20:38Z</time>
      </trkpt>
      <trkpt lat="46.99488" lon="4.78472">
        <ele>250.56</ele>
        <time>2021-07-24T08:20:49Z</time>
      </trkpt>
      <trkpt lat="46.99488" lon="4.78469">
        <ele>250.08</ele>
        <time>2021-07-24T08:21:26Z</time>
      </trkpt>
      <trkpt lat="46.99485" lon="4.78467">
        <ele>249.6</ele>
        <time>2021-07-24T08:21:51Z</time>
      </trkpt>
      <trkpt lat="46.99484" lon="4.78466">
        <ele>249.6</ele>
        <time>2021-07-24T08:22:19Z</time>
      </trkpt>
      <trkpt lat="46.99483" lon="4.78465">
        <ele>249.6</ele>
        <time>2021-07-24T08:22:20Z</time>
      </trkpt>
      <trkpt lat="46.99482" lon="4.78463">
        <ele>249.6</ele>
        <time>2021-07-24T08:22:21Z</time>
      </trkpt>
      <trkpt lat="46.9948" lon="4.78461">
        <ele>249.6</ele>
        <time>2021-07-24T08:22:22Z</time>
      </trkpt>
      <trkpt lat="46.99478" lon="4.78459">
        <ele>249.6</ele>
        <time>2021-07-24T08:22:23Z</time>
      </trkpt>
      <trkpt lat="46.99452" lon="4.78432">
        <ele>249.6</ele>
        <time>2021-07-24T08:22:34Z</time>
      </trkpt>
      <trkpt lat="46.99408" lon="4.78399">
        <ele>249.6</ele>
        <time>2021-07-24T08:22:50Z</time>
      </trkpt>
      <trkpt lat="46.99379" lon="4.78374">
        <ele>249.12</ele>
        <time>2021-07-24T08:23:01Z</time>
      </trkpt>
      <trkpt lat="46.99378" lon="4.78373">
        <ele>249.12</ele>
        <time>2021-07-24T08:23:08Z</time>
      </trkpt>
      <trkpt lat="46.99376" lon="4.7837">
        <ele>249.12</ele>
        <time>2021-07-24T08:23:23Z</time>
      </trkpt>
      <trkpt lat="46.99374" lon="4.7837">
        <ele>249.12</ele>
        <time>2021-07-24T08:23:24Z</time>
      </trkpt>
      <trkpt lat="46.99373" lon="4.78368">
        <ele>249.12</ele>
        <time>2021-07-24T08:23:25Z</time>
      </trkpt>
      <trkpt lat="46.99328" lon="4.78333">
        <ele>248.16</ele>
        <time>2021-07-24T08:23:39Z</time>
      </trkpt>
      <trkpt lat="46.99269" lon="4.78303">
        <ele>246.72</ele>
        <time>2021-07-24T08:23:53Z</time>
      </trkpt>
      <trkpt lat="46.99242" lon="4.78289">
        <ele>246.72</ele>
        <time>2021-07-24T08:24:04Z</time>
      </trkpt>
      <trkpt lat="46.99242" lon="4.78288">
        <ele>246.72</ele>
        <time>2021-07-24T08:24:09Z</time>
      </trkpt>
      <trkpt lat="46.9924" lon="4.78287">
        <ele>246.72</ele>
        <time>2021-07-24T08:24:10Z</time>
      </trkpt>
      <trkpt lat="46.99199" lon="4.78268">
        <ele>245.27</ele>
        <time>2021-07-24T08:24:23Z</time>
      </trkpt>
      <trkpt lat="46.9914" lon="4.78227">
        <ele>244.79</ele>
        <time>2021-07-24T08:24:38Z</time>
      </trkpt>
      <trkpt lat="46.99086" lon="4.78173">
        <ele>244.79</ele>
        <time>2021-07-24T08:24:53Z</time>
      </trkpt>
      <trkpt lat="46.99083" lon="4.78175">
        <ele>244.79</ele>
        <time>2021-07-24T08:24:54Z</time>
      </trkpt>
      <trkpt lat="46.99081" lon="4.78179">
        <ele>244.31</ele>
        <time>2021-07-24T08:24:55Z</time>
      </trkpt>
      <trkpt lat="46.99081" lon="4.78184">
        <ele>244.31</ele>
        <time>2021-07-24T08:24:56Z</time>
      </trkpt>
      <trkpt lat="46.99082" lon="4.7819">
        <ele>244.31</ele>
        <time>2021-07-24T08:24:57Z</time>
      </trkpt>
      <trkpt lat="46.99083" lon="4.78195">
        <ele>244.31</ele>
        <time>2021-07-24T08:24:58Z</time>
      </trkpt>
      <trkpt lat="46.99084" lon="4.78202">
        <ele>244.31</ele>
        <time>2021-07-24T08:24:59Z</time>
      </trkpt>
      <trkpt lat="46.99086" lon="4.78209">
        <ele>243.83</ele>
        <time>2021-07-24T08:25:00Z</time>
      </trkpt>
      <trkpt lat="46.99087" lon="4.78215">
        <ele>243.83</ele>
        <time>2021-07-24T08:25:01Z</time>
      </trkpt>
      <trkpt lat="46.99089" lon="4.78222">
        <ele>243.83</ele>
        <time>2021-07-24T08:25:02Z</time>
      </trkpt>
      <trkpt lat="46.9909" lon="4.78229">
        <ele>243.35</ele>
        <time>2021-07-24T08:25:03Z</time>
      </trkpt>
      <trkpt lat="46.9909" lon="4.78236">
        <ele>242.87</ele>
        <time>2021-07-24T08:25:04Z</time>
      </trkpt>
      <trkpt lat="46.99091" lon="4.78244">
        <ele>242.87</ele>
        <time>2021-07-24T08:25:05Z</time>
      </trkpt>
      <trkpt lat="46.99091" lon="4.78251">
        <ele>242.39</ele>
        <time>2021-07-24T08:25:06Z</time>
      </trkpt>
      <trkpt lat="46.9909" lon="4.78259">
        <ele>242.39</ele>
        <time>2021-07-24T08:25:07Z</time>
      </trkpt>
      <trkpt lat="46.99089" lon="4.78267">
        <ele>241.43</ele>
        <time>2021-07-24T08:25:08Z</time>
      </trkpt>
      <trkpt lat="46.99087" lon="4.78275">
        <ele>241.43</ele>
        <time>2021-07-24T08:25:09Z</time>
      </trkpt>
      <trkpt lat="46.99085" lon="4.78282">
        <ele>240.95</ele>
        <time>2021-07-24T08:25:10Z</time>
      </trkpt>
      <trkpt lat="46.99083" lon="4.78289">
        <ele>240.95</ele>
        <time>2021-07-24T08:25:11Z</time>
      </trkpt>
      <trkpt lat="46.9908" lon="4.78296">
        <ele>240.95</ele>
        <time>2021-07-24T08:25:12Z</time>
      </trkpt>
      <trkpt lat="46.99055" lon="4.78364">
        <ele>237.58</ele>
        <time>2021-07-24T08:25:22Z</time>
      </trkpt>
      <trkpt lat="46.9901" lon="4.78474">
        <ele>235.66</ele>
        <time>2021-07-24T08:25:39Z</time>
      </trkpt>
      <trkpt lat="46.98957" lon="4.7853">
        <ele>233.74</ele>
        <time>2021-07-24T08:25:56Z</time>
      </trkpt>
      <trkpt lat="46.98917" lon="4.7859">
        <ele>232.78</ele>
        <time>2021-07-24T08:26:11Z</time>
      </trkpt>
      <trkpt lat="46.98908" lon="4.78607">
        <ele>232.78</ele>
        <time>2021-07-24T08:26:22Z</time>
      </trkpt>
      <trkpt lat="46.98909" lon="4.78607">
        <ele>232.3</ele>
        <time>2021-07-24T08:26:45Z</time>
      </trkpt>
      <trkpt lat="46.98909" lon="4.78606">
        <ele>233.74</ele>
        <time>2021-07-24T08:28:12Z</time>
      </trkpt>
      <trkpt lat="46.98909" lon="4.78605">
        <ele>231.81</ele>
        <time>2021-07-24T08:28:32Z</time>
      </trkpt>
      <trkpt lat="46.98908" lon="4.78604">
        <ele>231.33</ele>
        <time>2021-07-24T08:29:50Z</time>
      </trkpt>
      <trkpt lat="46.98907" lon="4.78605">
        <ele>230.85</ele>
        <time>2021-07-24T08:31:12Z</time>
      </trkpt>
      <trkpt lat="46.98907" lon="4.78606">
        <ele>230.85</ele>
        <time>2021-07-24T08:31:50Z</time>
      </trkpt>
      <trkpt lat="46.98908" lon="4.78605">
        <ele>232.78</ele>
        <time>2021-07-24T08:32:27Z</time>
      </trkpt>
      <trkpt lat="46.9891" lon="4.78603">
        <ele>233.26</ele>
        <time>2021-07-24T08:33:08Z</time>
      </trkpt>
      <trkpt lat="46.98909" lon="4.78603">
        <ele>234.22</ele>
        <time>2021-07-24T08:33:59Z</time>
      </trkpt>
      <trkpt lat="46.98908" lon="4.78606">
        <ele>235.66</ele>
        <time>2021-07-24T08:34:50Z</time>
      </trkpt>
      <trkpt lat="46.98909" lon="4.78606">
        <ele>237.1</ele>
        <time>2021-07-24T08:36:22Z</time>
      </trkpt>
      <trkpt lat="46.98908" lon="4.78605">
        <ele>237.58</ele>
        <time>2021-07-24T08:37:08Z</time>
      </trkpt>
      <trkpt lat="46.98909" lon="4.78603">
        <ele>237.58</ele>
        <time>2021-07-24T08:38:02Z</time>
      </trkpt>
      <trkpt lat="46.9891" lon="4.78605">
        <ele>237.58</ele>
        <time>2021-07-24T08:39:29Z</time>
      </trkpt>
      <trkpt lat="46.98911" lon="4.78605">
        <ele>237.58</ele>
        <time>2021-07-24T08:40:10Z</time>
      </trkpt>
      <trkpt lat="46.98911" lon="4.78604">
        <ele>237.58</ele>
        <time>2021-07-24T08:40:53Z</time>
      </trkpt>
      <trkpt lat="46.98911" lon="4.78607">
        <ele>237.58</ele>
        <time>2021-07-24T08:41:13Z</time>
      </trkpt>
      <trkpt lat="46.98912" lon="4.78608">
        <ele>237.58</ele>
        <time>2021-07-24T08:41:14Z</time>
      </trkpt>
      <trkpt lat="46.98914" lon="4.78605">
        <ele>237.58</ele>
        <time>2021-07-24T08:41:20Z</time>
      </trkpt>
      <trkpt lat="46.98914" lon="4.78603">
        <ele>237.58</ele>
        <time>2021-07-24T08:41:21Z</time>
      </trkpt>
      <trkpt lat="46.98915" lon="4.78602">
        <ele>237.58</ele>
        <time>2021-07-24T08:41:22Z</time>
      </trkpt>
      <trkpt lat="46.98916" lon="4.786">
        <ele>237.58</ele>
        <time>2021-07-24T08:41:23Z</time>
      </trkpt>
      <trkpt lat="46.98917" lon="4.78599">
        <ele>237.58</ele>
        <time>2021-07-24T08:41:24Z</time>
      </trkpt>
      <trkpt lat="46.98917" lon="4.78597">
        <ele>237.58</ele>
        <time>2021-07-24T08:41:25Z</time>
      </trkpt>
      <trkpt lat="46.98918" lon="4.78596">
        <ele>237.58</ele>
        <time>2021-07-24T08:41:26Z</time>
      </trkpt>
      <trkpt lat="46.98919" lon="4.78594">
        <ele>237.58</ele>
        <time>2021-07-24T08:41:27Z</time>
      </trkpt>
      <trkpt lat="46.98919" lon="4.78592">
        <ele>237.58</ele>
        <time>2021-07-24T08:41:28Z</time>
      </trkpt>
      <trkpt lat="46.98917" lon="4.78591">
        <ele>237.58</ele>
        <time>2021-07-24T08:41:43Z</time>
      </trkpt>
      <trkpt lat="46.98919" lon="4.78591">
        <ele>236.14</ele>
        <time>2021-07-24T08:42:09Z</time>
      </trkpt>
      <trkpt lat="46.98918" lon="4.78587">
        <ele>236.14</ele>
        <time>2021-07-24T08:42:24Z</time>
      </trkpt>
      <trkpt lat="46.98919" lon="4.78585">
        <ele>236.14</ele>
        <time>2021-07-24T08:42:25Z</time>
      </trkpt>
      <trkpt lat="46.9892" lon="4.78584">
        <ele>236.14</ele>
        <time>2021-07-24T08:42:26Z</time>
      </trkpt>
      <trkpt lat="46.98938" lon="4.78555">
        <ele>236.14</ele>
        <time>2021-07-24T08:42:45Z</time>
      </trkpt>
      <trkpt lat="46.98956" lon="4.78532">
        <ele>237.1</ele>
        <time>2021-07-24T08:43:03Z</time>
      </trkpt>
      <trkpt lat="46.98979" lon="4.78512">
        <ele>237.58</ele>
        <time>2021-07-24T08:43:22Z</time>
      </trkpt>
      <trkpt lat="46.99002" lon="4.78488">
        <ele>238.54</ele>
        <time>2021-07-24T08:43:43Z</time>
      </trkpt>
      <trkpt lat="46.99022" lon="4.78459">
        <ele>239.02</ele>
        <time>2021-07-24T08:44:04Z</time>
      </trkpt>
      <trkpt lat="46.99025" lon="4.78452">
        <ele>239.02</ele>
        <time>2021-07-24T08:44:20Z</time>
      </trkpt>
      <trkpt lat="46.99026" lon="4.78453">
        <ele>239.51</ele>
        <time>2021-07-24T08:45:00Z</time>
      </trkpt>
      <trkpt lat="46.99029" lon="4.78441">
        <ele>239.02</ele>
        <time>2021-07-24T08:45:31Z</time>
      </trkpt>
      <trkpt lat="46.99039" lon="4.78415">
        <ele>239.99</ele>
        <time>2021-07-24T08:45:48Z</time>
      </trkpt>
      <trkpt lat="46.99039" lon="4.78414">
        <ele>239.99</ele>
        <time>2021-07-24T08:45:54Z</time>
      </trkpt>
      <trkpt lat="46.9904" lon="4.78412">
        <ele>239.99</ele>
        <time>2021-07-24T08:45:56Z</time>
      </trkpt>
      <trkpt lat="46.99041" lon="4.7841">
        <ele>239.99</ele>
        <time>2021-07-24T08:45:57Z</time>
      </trkpt>
      <trkpt lat="46.99041" lon="4.78409">
        <ele>239.99</ele>
        <time>2021-07-24T08:45:58Z</time>
      </trkpt>
      <trkpt lat="46.9905" lon="4.78383">
        <ele>240.47</ele>
        <time>2021-07-24T08:46:11Z</time>
      </trkpt>
      <trkpt lat="46.99063" lon="4.78346">
        <ele>241.91</ele>
        <time>2021-07-24T08:46:26Z</time>
      </trkpt>
      <trkpt lat="46.99067" lon="4.78336">
        <ele>228.45</ele>
        <time>2021-07-24T08:46:30Z</time>
      </trkpt>
      <trkpt lat="46.99068" lon="4.78333">
        <ele>244.31</ele>
        <time>2021-07-24T08:46:31Z</time>
      </trkpt>
      <trkpt lat="46.99081" lon="4.783">
        <ele>243.83</ele>
        <time>2021-07-24T08:46:44Z</time>
      </trkpt>
      <trkpt lat="46.99092" lon="4.78261">
        <ele>245.27</ele>
        <time>2021-07-24T08:46:59Z</time>
      </trkpt>
      <trkpt lat="46.99086" lon="4.78198">
        <ele>247.68</ele>
        <time>2021-07-24T08:47:19Z</time>
      </trkpt>
      <trkpt lat="46.99084" lon="4.78189">
        <ele>248.16</ele>
        <time>2021-07-24T08:47:22Z</time>
      </trkpt>
      <trkpt lat="46.99083" lon="4.78186">
        <ele>248.16</ele>
        <time>2021-07-24T08:47:23Z</time>
      </trkpt>
      <trkpt lat="46.99082" lon="4.78184">
        <ele>248.16</ele>
        <time>2021-07-24T08:47:24Z</time>
      </trkpt>
      <trkpt lat="46.99081" lon="4.78181">
        <ele>248.16</ele>
        <time>2021-07-24T08:47:25Z</time>
      </trkpt>
      <trkpt lat="46.9908" lon="4.78178">
        <ele>248.16</ele>
        <time>2021-07-24T08:47:26Z</time>
      </trkpt>
      <trkpt lat="46.99069" lon="4.78134">
        <ele>249.6</ele>
        <time>2021-07-24T08:47:41Z</time>
      </trkpt>
      <trkpt lat="46.99049" lon="4.78096">
        <ele>250.56</ele>
        <time>2021-07-24T08:47:55Z</time>
      </trkpt>
      <trkpt lat="46.99015" lon="4.78063">
        <ele>250.56</ele>
        <time>2021-07-24T08:48:10Z</time>
      </trkpt>
      <trkpt lat="46.98976" lon="4.78043">
        <ele>250.56</ele>
        <time>2021-07-24T08:48:24Z</time>
      </trkpt>
      <trkpt lat="46.98935" lon="4.78026">
        <ele>249.6</ele>
        <time>2021-07-24T08:48:38Z</time>
      </trkpt>
      <trkpt lat="46.989" lon="4.78013">
        <ele>249.12</ele>
        <time>2021-07-24T08:48:51Z</time>
      </trkpt>
      <trkpt lat="46.98865" lon="4.77996">
        <ele>248.64</ele>
        <time>2021-07-24T08:49:05Z</time>
      </trkpt>
      <trkpt lat="46.98829" lon="4.7798">
        <ele>248.16</ele>
        <time>2021-07-24T08:49:19Z</time>
      </trkpt>
      <trkpt lat="46.98819" lon="4.77972">
        <ele>247.68</ele>
        <time>2021-07-24T08:49:24Z</time>
      </trkpt>
      <trkpt lat="46.98818" lon="4.77972">
        <ele>247.68</ele>
        <time>2021-07-24T08:49:25Z</time>
      </trkpt>
      <trkpt lat="46.98817" lon="4.77973">
        <ele>247.68</ele>
        <time>2021-07-24T08:49:26Z</time>
      </trkpt>
      <trkpt lat="46.98819" lon="4.77975">
        <ele>247.68</ele>
        <time>2021-07-24T08:49:30Z</time>
      </trkpt>
      <trkpt lat="46.9882" lon="4.77975">
        <ele>247.68</ele>
        <time>2021-07-24T08:49:31Z</time>
      </trkpt>
      <trkpt lat="46.98822" lon="4.77976">
        <ele>247.68</ele>
        <time>2021-07-24T08:49:32Z</time>
      </trkpt>
      <trkpt lat="46.98823" lon="4.77977">
        <ele>247.68</ele>
        <time>2021-07-24T08:49:33Z</time>
      </trkpt>
      <trkpt lat="46.98825" lon="4.77978">
        <ele>247.68</ele>
        <time>2021-07-24T08:49:34Z</time>
      </trkpt>
      <trkpt lat="46.98854" lon="4.77995">
        <ele>247.68</ele>
        <time>2021-07-24T08:49:46Z</time>
      </trkpt>
      <trkpt lat="46.98879" lon="4.78005">
        <ele>248.64</ele>
        <time>2021-07-24T08:49:59Z</time>
      </trkpt>
      <trkpt lat="46.98886" lon="4.78008">
        <ele>248.64</ele>
        <time>2021-07-24T08:50:04Z</time>
      </trkpt>
      <trkpt lat="46.98888" lon="4.78007">
        <ele>248.64</ele>
        <time>2021-07-24T08:50:05Z</time>
      </trkpt>
      <trkpt lat="46.98889" lon="4.78008">
        <ele>248.64</ele>
        <time>2021-07-24T08:50:06Z</time>
      </trkpt>
      <trkpt lat="46.9889" lon="4.78008">
        <ele>248.64</ele>
        <time>2021-07-24T08:50:07Z</time>
      </trkpt>
      <trkpt lat="46.98892" lon="4.7801">
        <ele>248.64</ele>
        <time>2021-07-24T08:50:08Z</time>
      </trkpt>
      <trkpt lat="46.98893" lon="4.78011">
        <ele>248.64</ele>
        <time>2021-07-24T08:50:09Z</time>
      </trkpt>
      <trkpt lat="46.98895" lon="4.78012">
        <ele>248.64</ele>
        <time>2021-07-24T08:50:10Z</time>
      </trkpt>
      <trkpt lat="46.98897" lon="4.78013">
        <ele>248.64</ele>
        <time>2021-07-24T08:50:11Z</time>
      </trkpt>
      <trkpt lat="46.98899" lon="4.78014">
        <ele>248.64</ele>
        <time>2021-07-24T08:50:12Z</time>
      </trkpt>
      <trkpt lat="46.98901" lon="4.78014">
        <ele>248.64</ele>
        <time>2021-07-24T08:50:13Z</time>
      </trkpt>
      <trkpt lat="46.98902" lon="4.78015">
        <ele>248.64</ele>
        <time>2021-07-24T08:50:14Z</time>
      </trkpt>
      <trkpt lat="46.98903" lon="4.78014">
        <ele>248.64</ele>
        <time>2021-07-24T08:50:15Z</time>
      </trkpt>
      <trkpt lat="46.98903" lon="4.78013">
        <ele>248.64</ele>
        <time>2021-07-24T08:50:16Z</time>
      </trkpt>
      <trkpt lat="46.98901" lon="4.78012">
        <ele>249.12</ele>
        <time>2021-07-24T08:50:29Z</time>
      </trkpt>
      <trkpt lat="46.989" lon="4.7801">
        <ele>249.12</ele>
        <time>2021-07-24T08:51:09Z</time>
      </trkpt>
      <trkpt lat="46.98876" lon="4.78001">
        <ele>248.64</ele>
        <time>2021-07-24T08:51:19Z</time>
      </trkpt>
      <trkpt lat="46.98854" lon="4.7799">
        <ele>248.64</ele>
        <time>2021-07-24T08:51:25Z</time>
      </trkpt>
      <trkpt lat="46.9885" lon="4.77989">
        <ele>248.64</ele>
        <time>2021-07-24T08:51:26Z</time>
      </trkpt>
      <trkpt lat="46.98846" lon="4.77987">
        <ele>248.64</ele>
        <time>2021-07-24T08:51:27Z</time>
      </trkpt>
      <trkpt lat="46.98838" lon="4.77984">
        <ele>248.64</ele>
        <time>2021-07-24T08:51:29Z</time>
      </trkpt>
      <trkpt lat="46.98835" lon="4.77982">
        <ele>247.68</ele>
        <time>2021-07-24T08:51:30Z</time>
      </trkpt>
      <trkpt lat="46.98809" lon="4.77964">
        <ele>247.2</ele>
        <time>2021-07-24T08:51:37Z</time>
      </trkpt>
      <trkpt lat="46.98765" lon="4.77904">
        <ele>246.72</ele>
        <time>2021-07-24T08:51:53Z</time>
      </trkpt>
      <trkpt lat="46.98763" lon="4.77899">
        <ele>246.72</ele>
        <time>2021-07-24T08:51:54Z</time>
      </trkpt>
      <trkpt lat="46.98762" lon="4.77893">
        <ele>246.72</ele>
        <time>2021-07-24T08:51:55Z</time>
      </trkpt>
      <trkpt lat="46.98761" lon="4.77887">
        <ele>246.72</ele>
        <time>2021-07-24T08:51:56Z</time>
      </trkpt>
      <trkpt lat="46.98762" lon="4.77882">
        <ele>246.72</ele>
        <time>2021-07-24T08:51:57Z</time>
      </trkpt>
      <trkpt lat="46.98763" lon="4.77876">
        <ele>246.72</ele>
        <time>2021-07-24T08:51:58Z</time>
      </trkpt>
      <trkpt lat="46.98765" lon="4.77871">
        <ele>246.72</ele>
        <time>2021-07-24T08:51:59Z</time>
      </trkpt>
      <trkpt lat="46.9877" lon="4.77847">
        <ele>248.16</ele>
        <time>2021-07-24T08:52:04Z</time>
      </trkpt>
      <trkpt lat="46.98777" lon="4.77786">
        <ele>249.6</ele>
        <time>2021-07-24T08:52:18Z</time>
      </trkpt>
      <trkpt lat="46.98779" lon="4.77739">
        <ele>250.08</ele>
        <time>2021-07-24T08:52:30Z</time>
      </trkpt>
      <trkpt lat="46.98781" lon="4.77682">
        <ele>251.04</ele>
        <time>2021-07-24T08:52:45Z</time>
      </trkpt>
      <trkpt lat="46.98734" lon="4.77632">
        <ele>251.04</ele>
        <time>2021-07-24T08:53:01Z</time>
      </trkpt>
      <trkpt lat="46.98673" lon="4.77593">
        <ele>251.04</ele>
        <time>2021-07-24T08:53:19Z</time>
      </trkpt>
      <trkpt lat="46.98642" lon="4.7754">
        <ele>252</ele>
        <time>2021-07-24T08:53:34Z</time>
      </trkpt>
      <trkpt lat="46.98645" lon="4.77484">
        <ele>252.96</ele>
        <time>2021-07-24T08:53:47Z</time>
      </trkpt>
      <trkpt lat="46.98613" lon="4.77447">
        <ele>252.96</ele>
        <time>2021-07-24T08:54:00Z</time>
      </trkpt>
      <trkpt lat="46.98565" lon="4.77404">
        <ele>252</ele>
        <time>2021-07-24T08:54:17Z</time>
      </trkpt>
      <trkpt lat="46.98538" lon="4.77349">
        <ele>251.04</ele>
        <time>2021-07-24T08:54:31Z</time>
      </trkpt>
      <trkpt lat="46.9853" lon="4.77321">
        <ele>251.04</ele>
        <time>2021-07-24T08:54:38Z</time>
      </trkpt>
      <trkpt lat="46.98531" lon="4.77318">
        <ele>251.04</ele>
        <time>2021-07-24T08:54:39Z</time>
      </trkpt>
      <trkpt lat="46.98545" lon="4.77283">
        <ele>251.04</ele>
        <time>2021-07-24T08:54:52Z</time>
      </trkpt>
      <trkpt lat="46.98547" lon="4.7728">
        <ele>251.04</ele>
        <time>2021-07-24T08:55:30Z</time>
      </trkpt>
      <trkpt lat="46.98549" lon="4.77276">
        <ele>251.04</ele>
        <time>2021-07-24T08:55:33Z</time>
      </trkpt>
      <trkpt lat="46.98559" lon="4.77248">
        <ele>252</ele>
        <time>2021-07-24T08:55:42Z</time>
      </trkpt>
      <trkpt lat="46.98571" lon="4.77206">
        <ele>253.44</ele>
        <time>2021-07-24T08:55:55Z</time>
      </trkpt>
      <trkpt lat="46.98586" lon="4.77157">
        <ele>255.85</ele>
        <time>2021-07-24T08:56:11Z</time>
      </trkpt>
      <trkpt lat="46.98599" lon="4.77123">
        <ele>257.77</ele>
        <time>2021-07-24T08:56:24Z</time>
      </trkpt>
      <trkpt lat="46.98601" lon="4.77082">
        <ele>259.69</ele>
        <time>2021-07-24T08:56:38Z</time>
      </trkpt>
      <trkpt lat="46.98595" lon="4.77031">
        <ele>261.62</ele>
        <time>2021-07-24T08:56:55Z</time>
      </trkpt>
      <trkpt lat="46.98582" lon="4.76978">
        <ele>262.1</ele>
        <time>2021-07-24T08:57:11Z</time>
      </trkpt>
      <trkpt lat="46.98566" lon="4.76921">
        <ele>262.58</ele>
        <time>2021-07-24T08:57:28Z</time>
      </trkpt>
      <trkpt lat="46.98556" lon="4.76875">
        <ele>262.58</ele>
        <time>2021-07-24T08:57:42Z</time>
      </trkpt>
      <trkpt lat="46.98555" lon="4.76848">
        <ele>262.58</ele>
        <time>2021-07-24T08:57:52Z</time>
      </trkpt>
      <trkpt lat="46.98556" lon="4.76848">
        <ele>262.58</ele>
        <time>2021-07-24T08:57:53Z</time>
      </trkpt>
      <trkpt lat="46.98556" lon="4.76847">
        <ele>263.06</ele>
        <time>2021-07-24T08:58:08Z</time>
      </trkpt>
      <trkpt lat="46.9856" lon="4.76845">
        <ele>263.06</ele>
        <time>2021-07-24T08:58:42Z</time>
      </trkpt>
      <trkpt lat="46.98561" lon="4.76845">
        <ele>263.06</ele>
        <time>2021-07-24T08:59:06Z</time>
      </trkpt>
      <trkpt lat="46.98559" lon="4.76844">
        <ele>263.06</ele>
        <time>2021-07-24T08:59:41Z</time>
      </trkpt>
      <trkpt lat="46.9856" lon="4.76847">
        <ele>263.06</ele>
        <time>2021-07-24T09:00:07Z</time>
      </trkpt>
      <trkpt lat="46.9856" lon="4.76848">
        <ele>263.06</ele>
        <time>2021-07-24T09:00:20Z</time>
      </trkpt>
      <trkpt lat="46.98563" lon="4.76841">
        <ele>263.06</ele>
        <time>2021-07-24T09:00:45Z</time>
      </trkpt>
      <trkpt lat="46.98563" lon="4.76839">
        <ele>263.06</ele>
        <time>2021-07-24T09:00:46Z</time>
      </trkpt>
      <trkpt lat="46.98562" lon="4.76836">
        <ele>263.06</ele>
        <time>2021-07-24T09:00:47Z</time>
      </trkpt>
      <trkpt lat="46.98561" lon="4.76834">
        <ele>263.06</ele>
        <time>2021-07-24T09:00:48Z</time>
      </trkpt>
      <trkpt lat="46.9856" lon="4.76831">
        <ele>263.06</ele>
        <time>2021-07-24T09:00:49Z</time>
      </trkpt>
      <trkpt lat="46.98559" lon="4.76829">
        <ele>263.06</ele>
        <time>2021-07-24T09:00:50Z</time>
      </trkpt>
      <trkpt lat="46.98554" lon="4.76824">
        <ele>262.1</ele>
        <time>2021-07-24T09:00:52Z</time>
      </trkpt>
      <trkpt lat="46.9854" lon="4.76803">
        <ele>261.14</ele>
        <time>2021-07-24T09:01:03Z</time>
      </trkpt>
      <trkpt lat="46.98537" lon="4.76802">
        <ele>261.14</ele>
        <time>2021-07-24T09:01:05Z</time>
      </trkpt>
      <trkpt lat="46.98535" lon="4.76803">
        <ele>261.14</ele>
        <time>2021-07-24T09:01:06Z</time>
      </trkpt>
      <trkpt lat="46.98498" lon="4.76823">
        <ele>258.73</ele>
        <time>2021-07-24T09:01:17Z</time>
      </trkpt>
      <trkpt lat="46.98438" lon="4.76851">
        <ele>255.37</ele>
        <time>2021-07-24T09:01:29Z</time>
      </trkpt>
      <trkpt lat="46.98411" lon="4.76857">
        <ele>254.41</ele>
        <time>2021-07-24T09:01:34Z</time>
      </trkpt>
      <trkpt lat="46.98406" lon="4.76857">
        <ele>254.41</ele>
        <time>2021-07-24T09:01:35Z</time>
      </trkpt>
      <trkpt lat="46.98322" lon="4.7683">
        <ele>251.52</ele>
        <time>2021-07-24T09:01:51Z</time>
      </trkpt>
      <trkpt lat="46.98317" lon="4.76824">
        <ele>251.04</ele>
        <time>2021-07-24T09:01:52Z</time>
      </trkpt>
      <trkpt lat="46.98301" lon="4.7681">
        <ele>250.56</ele>
        <time>2021-07-24T09:01:55Z</time>
      </trkpt>
      <trkpt lat="46.98248" lon="4.76782">
        <ele>249.6</ele>
        <time>2021-07-24T09:02:07Z</time>
      </trkpt>
      <trkpt lat="46.98199" lon="4.76785">
        <ele>248.16</ele>
        <time>2021-07-24T09:02:19Z</time>
      </trkpt>
      <trkpt lat="46.98183" lon="4.76791">
        <ele>247.68</ele>
        <time>2021-07-24T09:02:23Z</time>
      </trkpt>
      <trkpt lat="46.98179" lon="4.76792">
        <ele>247.2</ele>
        <time>2021-07-24T09:02:24Z</time>
      </trkpt>
      <trkpt lat="46.98175" lon="4.76793">
        <ele>247.2</ele>
        <time>2021-07-24T09:02:25Z</time>
      </trkpt>
      <trkpt lat="46.98127" lon="4.76816">
        <ele>246.23</ele>
        <time>2021-07-24T09:02:39Z</time>
      </trkpt>
      <trkpt lat="46.98086" lon="4.76836">
        <ele>246.23</ele>
        <time>2021-07-24T09:02:51Z</time>
      </trkpt>
      <trkpt lat="46.98051" lon="4.76862">
        <ele>246.23</ele>
        <time>2021-07-24T09:03:04Z</time>
      </trkpt>
      <trkpt lat="46.98006" lon="4.7687">
        <ele>249.12</ele>
        <time>2021-07-24T09:03:20Z</time>
      </trkpt>
      <trkpt lat="46.97985" lon="4.76869">
        <ele>249.12</ele>
        <time>2021-07-24T09:03:29Z</time>
      </trkpt>
      <trkpt lat="46.97983" lon="4.76869">
        <ele>249.12</ele>
        <time>2021-07-24T09:03:30Z</time>
      </trkpt>
      <trkpt lat="46.97981" lon="4.76868">
        <ele>249.12</ele>
        <time>2021-07-24T09:03:31Z</time>
      </trkpt>
      <trkpt lat="46.97959" lon="4.76852">
        <ele>249.6</ele>
        <time>2021-07-24T09:03:42Z</time>
      </trkpt>
      <trkpt lat="46.97911" lon="4.76837">
        <ele>249.6</ele>
        <time>2021-07-24T09:03:59Z</time>
      </trkpt>
      <trkpt lat="46.97885" lon="4.7684">
        <ele>249.6</ele>
        <time>2021-07-24T09:04:08Z</time>
      </trkpt>
      <trkpt lat="46.97877" lon="4.76861">
        <ele>251.04</ele>
        <time>2021-07-24T09:04:14Z</time>
      </trkpt>
      <trkpt lat="46.97875" lon="4.76862">
        <ele>251.04</ele>
        <time>2021-07-24T09:04:15Z</time>
      </trkpt>
      <trkpt lat="46.97872" lon="4.76862">
        <ele>251.52</ele>
        <time>2021-07-24T09:04:16Z</time>
      </trkpt>
      <trkpt lat="46.97843" lon="4.76867">
        <ele>251.52</ele>
        <time>2021-07-24T09:04:26Z</time>
      </trkpt>
      <trkpt lat="46.97841" lon="4.76872">
        <ele>251.52</ele>
        <time>2021-07-24T09:04:27Z</time>
      </trkpt>
      <trkpt lat="46.9784" lon="4.76928">
        <ele>253.93</ele>
        <time>2021-07-24T09:04:42Z</time>
      </trkpt>
      <trkpt lat="46.9784" lon="4.76938">
        <ele>254.41</ele>
        <time>2021-07-24T09:04:46Z</time>
      </trkpt>
      <trkpt lat="46.9784" lon="4.7694">
        <ele>254.41</ele>
        <time>2021-07-24T09:04:47Z</time>
      </trkpt>
      <trkpt lat="46.9784" lon="4.76942">
        <ele>254.41</ele>
        <time>2021-07-24T09:04:48Z</time>
      </trkpt>
      <trkpt lat="46.97838" lon="4.76945">
        <ele>254.41</ele>
        <time>2021-07-24T09:04:49Z</time>
      </trkpt>
      <trkpt lat="46.97837" lon="4.76947">
        <ele>254.41</ele>
        <time>2021-07-24T09:04:50Z</time>
      </trkpt>
      <trkpt lat="46.97835" lon="4.76949">
        <ele>254.41</ele>
        <time>2021-07-24T09:04:51Z</time>
      </trkpt>
      <trkpt lat="46.97833" lon="4.76952">
        <ele>254.41</ele>
        <time>2021-07-24T09:04:52Z</time>
      </trkpt>
      <trkpt lat="46.97832" lon="4.76954">
        <ele>254.41</ele>
        <time>2021-07-24T09:04:53Z</time>
      </trkpt>
      <trkpt lat="46.9783" lon="4.76957">
        <ele>254.41</ele>
        <time>2021-07-24T09:04:54Z</time>
      </trkpt>
      <trkpt lat="46.97829" lon="4.76959">
        <ele>254.41</ele>
        <time>2021-07-24T09:04:55Z</time>
      </trkpt>
      <trkpt lat="46.97803" lon="4.77001">
        <ele>254.41</ele>
        <time>2021-07-24T09:05:09Z</time>
      </trkpt>
      <trkpt lat="46.97794" lon="4.77009">
        <ele>254.41</ele>
        <time>2021-07-24T09:05:18Z</time>
      </trkpt>
      <trkpt lat="46.97794" lon="4.77008">
        <ele>254.41</ele>
        <time>2021-07-24T09:05:19Z</time>
      </trkpt>
      <trkpt lat="46.97793" lon="4.77004">
        <ele>254.41</ele>
        <time>2021-07-24T09:05:21Z</time>
      </trkpt>
      <trkpt lat="46.97791" lon="4.77">
        <ele>254.41</ele>
        <time>2021-07-24T09:05:23Z</time>
      </trkpt>
      <trkpt lat="46.97796" lon="4.76985">
        <ele>254.41</ele>
        <time>2021-07-24T09:05:31Z</time>
      </trkpt>
      <trkpt lat="46.97801" lon="4.76972">
        <ele>254.89</ele>
        <time>2021-07-24T09:05:37Z</time>
      </trkpt>
      <trkpt lat="46.97809" lon="4.7697">
        <ele>254.89</ele>
        <time>2021-07-24T09:05:42Z</time>
      </trkpt>
      <trkpt lat="46.97817" lon="4.76969">
        <ele>254.89</ele>
        <time>2021-07-24T09:05:48Z</time>
      </trkpt>
      <trkpt lat="46.97824" lon="4.76959">
        <ele>254.89</ele>
        <time>2021-07-24T09:05:54Z</time>
      </trkpt>
      <trkpt lat="46.97833" lon="4.76948">
        <ele>254.89</ele>
        <time>2021-07-24T09:06:07Z</time>
      </trkpt>
      <trkpt lat="46.97834" lon="4.76945">
        <ele>254.89</ele>
        <time>2021-07-24T09:06:09Z</time>
      </trkpt>
      <trkpt lat="46.97833" lon="4.7694">
        <ele>254.89</ele>
        <time>2021-07-24T09:06:12Z</time>
      </trkpt>
      <trkpt lat="46.97827" lon="4.76936">
        <ele>254.89</ele>
        <time>2021-07-24T09:06:16Z</time>
      </trkpt>
      <trkpt lat="46.97825" lon="4.76936">
        <ele>254.89</ele>
        <time>2021-07-24T09:06:17Z</time>
      </trkpt>
      <trkpt lat="46.97813" lon="4.76938">
        <ele>254.89</ele>
        <time>2021-07-24T09:06:23Z</time>
      </trkpt>
      <trkpt lat="46.97813" lon="4.76939">
        <ele>254.89</ele>
        <time>2021-07-24T09:06:24Z</time>
      </trkpt>
      <trkpt lat="46.9781" lon="4.76942">
        <ele>254.89</ele>
        <time>2021-07-24T09:06:37Z</time>
      </trkpt>
      <trkpt lat="46.97812" lon="4.76945">
        <ele>254.89</ele>
        <time>2021-07-24T09:07:07Z</time>
      </trkpt>
      <trkpt lat="46.9781" lon="4.76943">
        <ele>255.37</ele>
        <time>2021-07-24T09:07:49Z</time>
      </trkpt>
      <trkpt lat="46.97809" lon="4.76938">
        <ele>255.37</ele>
        <time>2021-07-24T09:08:19Z</time>
      </trkpt>
      <trkpt lat="46.97807" lon="4.76938">
        <ele>255.37</ele>
        <time>2021-07-24T09:08:56Z</time>
      </trkpt>
      <trkpt lat="46.9781" lon="4.7694">
        <ele>255.37</ele>
        <time>2021-07-24T09:09:29Z</time>
      </trkpt>
      <trkpt lat="46.97814" lon="4.76943">
        <ele>255.37</ele>
        <time>2021-07-24T09:10:04Z</time>
      </trkpt>
      <trkpt lat="46.9781" lon="4.76942">
        <ele>255.37</ele>
        <time>2021-07-24T09:10:38Z</time>
      </trkpt>
      <trkpt lat="46.97806" lon="4.76939">
        <ele>255.37</ele>
        <time>2021-07-24T09:11:02Z</time>
      </trkpt>
      <trkpt lat="46.97807" lon="4.76941">
        <ele>255.37</ele>
        <time>2021-07-24T09:11:32Z</time>
      </trkpt>
      <trkpt lat="46.97811" lon="4.7694">
        <ele>255.37</ele>
        <time>2021-07-24T09:12:06Z</time>
      </trkpt>
      <trkpt lat="46.9781" lon="4.76943">
        <ele>255.37</ele>
        <time>2021-07-24T09:12:58Z</time>
      </trkpt>
      <trkpt lat="46.97808" lon="4.76941">
        <ele>255.37</ele>
        <time>2021-07-24T09:13:28Z</time>
      </trkpt>
      <trkpt lat="46.97806" lon="4.76938">
        <ele>255.37</ele>
        <time>2021-07-24T09:13:34Z</time>
      </trkpt>
      <trkpt lat="46.97807" lon="4.76936">
        <ele>255.37</ele>
        <time>2021-07-24T09:13:35Z</time>
      </trkpt>
      <trkpt lat="46.97807" lon="4.76934">
        <ele>255.37</ele>
        <time>2021-07-24T09:13:36Z</time>
      </trkpt>
      <trkpt lat="46.97808" lon="4.76932">
        <ele>255.37</ele>
        <time>2021-07-24T09:13:37Z</time>
      </trkpt>
      <trkpt lat="46.97808" lon="4.7693">
        <ele>255.37</ele>
        <time>2021-07-24T09:13:38Z</time>
      </trkpt>
      <trkpt lat="46.97808" lon="4.76928">
        <ele>255.37</ele>
        <time>2021-07-24T09:13:39Z</time>
      </trkpt>
      <trkpt lat="46.97807" lon="4.76926">
        <ele>255.37</ele>
        <time>2021-07-24T09:13:40Z</time>
      </trkpt>
      <trkpt lat="46.97806" lon="4.76924">
        <ele>255.37</ele>
        <time>2021-07-24T09:13:41Z</time>
      </trkpt>
      <trkpt lat="46.97805" lon="4.76923">
        <ele>255.37</ele>
        <time>2021-07-24T09:13:42Z</time>
      </trkpt>
      <trkpt lat="46.97804" lon="4.76921">
        <ele>255.37</ele>
        <time>2021-07-24T09:13:43Z</time>
      </trkpt>
      <trkpt lat="46.97803" lon="4.7692">
        <ele>255.37</ele>
        <time>2021-07-24T09:13:44Z</time>
      </trkpt>
      <trkpt lat="46.97782" lon="4.76907">
        <ele>253.93</ele>
        <time>2021-07-24T09:13:55Z</time>
      </trkpt>
      <trkpt lat="46.97758" lon="4.76889">
        <ele>252</ele>
        <time>2021-07-24T09:14:05Z</time>
      </trkpt>
      <trkpt lat="46.97747" lon="4.76883">
        <ele>251.04</ele>
        <time>2021-07-24T09:14:08Z</time>
      </trkpt>
      <trkpt lat="46.97726" lon="4.76876">
        <ele>249.12</ele>
        <time>2021-07-24T09:14:12Z</time>
      </trkpt>
      <trkpt lat="46.97704" lon="4.76874">
        <ele>247.2</ele>
        <time>2021-07-24T09:14:16Z</time>
      </trkpt>
      <trkpt lat="46.97679" lon="4.76871">
        <ele>244.31</ele>
        <time>2021-07-24T09:14:21Z</time>
      </trkpt>
      <trkpt lat="46.97674" lon="4.76869">
        <ele>243.83</ele>
        <time>2021-07-24T09:14:22Z</time>
      </trkpt>
      <trkpt lat="46.97652" lon="4.76856">
        <ele>242.39</ele>
        <time>2021-07-24T09:14:26Z</time>
      </trkpt>
      <trkpt lat="46.97648" lon="4.76852">
        <ele>242.39</ele>
        <time>2021-07-24T09:14:27Z</time>
      </trkpt>
      <trkpt lat="46.97636" lon="4.76842">
        <ele>242.39</ele>
        <time>2021-07-24T09:14:30Z</time>
      </trkpt>
      <trkpt lat="46.97633" lon="4.76838">
        <ele>242.39</ele>
        <time>2021-07-24T09:14:31Z</time>
      </trkpt>
      <trkpt lat="46.9763" lon="4.76834">
        <ele>242.39</ele>
        <time>2021-07-24T09:14:32Z</time>
      </trkpt>
      <trkpt lat="46.97628" lon="4.76832">
        <ele>242.39</ele>
        <time>2021-07-24T09:14:33Z</time>
      </trkpt>
      <trkpt lat="46.97626" lon="4.76829">
        <ele>242.39</ele>
        <time>2021-07-24T09:14:44Z</time>
      </trkpt>
      <trkpt lat="46.97614" lon="4.76819">
        <ele>242.39</ele>
        <time>2021-07-24T09:14:58Z</time>
      </trkpt>
      <trkpt lat="46.97573" lon="4.76794">
        <ele>242.39</ele>
        <time>2021-07-24T09:15:12Z</time>
      </trkpt>
      <trkpt lat="46.97548" lon="4.76799">
        <ele>242.39</ele>
        <time>2021-07-24T09:15:22Z</time>
      </trkpt>
      <trkpt lat="46.97526" lon="4.76797">
        <ele>241.91</ele>
        <time>2021-07-24T09:15:29Z</time>
      </trkpt>
      <trkpt lat="46.97517" lon="4.76792">
        <ele>241.43</ele>
        <time>2021-07-24T09:15:31Z</time>
      </trkpt>
      <trkpt lat="46.97485" lon="4.76777">
        <ele>241.43</ele>
        <time>2021-07-24T09:15:40Z</time>
      </trkpt>
      <trkpt lat="46.97482" lon="4.76779">
        <ele>241.43</ele>
        <time>2021-07-24T09:15:41Z</time>
      </trkpt>
      <trkpt lat="46.9743" lon="4.76816">
        <ele>241.43</ele>
        <time>2021-07-24T09:15:56Z</time>
      </trkpt>
      <trkpt lat="46.97396" lon="4.76865">
        <ele>241.43</ele>
        <time>2021-07-24T09:16:09Z</time>
      </trkpt>
      <trkpt lat="46.97364" lon="4.76918">
        <ele>239.99</ele>
        <time>2021-07-24T09:16:23Z</time>
      </trkpt>
      <trkpt lat="46.97349" lon="4.76944">
        <ele>239.02</ele>
        <time>2021-07-24T09:16:30Z</time>
      </trkpt>
      <trkpt lat="46.97346" lon="4.76944">
        <ele>239.02</ele>
        <time>2021-07-24T09:16:31Z</time>
      </trkpt>
      <trkpt lat="46.97313" lon="4.76924">
        <ele>238.54</ele>
        <time>2021-07-24T09:16:43Z</time>
      </trkpt>
      <trkpt lat="46.97283" lon="4.76919">
        <ele>238.06</ele>
        <time>2021-07-24T09:16:52Z</time>
      </trkpt>
      <trkpt lat="46.97243" lon="4.76886">
        <ele>237.58</ele>
        <time>2021-07-24T09:17:05Z</time>
      </trkpt>
      <trkpt lat="46.97187" lon="4.76845">
        <ele>237.1</ele>
        <time>2021-07-24T09:17:21Z</time>
      </trkpt>
      <trkpt lat="46.97186" lon="4.76844">
        <ele>237.1</ele>
        <time>2021-07-24T09:17:22Z</time>
      </trkpt>
      <trkpt lat="46.97186" lon="4.76846">
        <ele>237.1</ele>
        <time>2021-07-24T09:17:24Z</time>
      </trkpt>
      <trkpt lat="46.97191" lon="4.7685">
        <ele>237.1</ele>
        <time>2021-07-24T09:17:28Z</time>
      </trkpt>
      <trkpt lat="46.97193" lon="4.76849">
        <ele>237.1</ele>
        <time>2021-07-24T09:17:36Z</time>
      </trkpt>
      <trkpt lat="46.97194" lon="4.7685">
        <ele>237.1</ele>
        <time>2021-07-24T09:17:50Z</time>
      </trkpt>
      <trkpt lat="46.97192" lon="4.76856">
        <ele>237.1</ele>
        <time>2021-07-24T09:18:19Z</time>
      </trkpt>
      <trkpt lat="46.97192" lon="4.76855">
        <ele>237.1</ele>
        <time>2021-07-24T09:18:22Z</time>
      </trkpt>
      <trkpt lat="46.97161" lon="4.76827">
        <ele>237.1</ele>
        <time>2021-07-24T09:18:35Z</time>
      </trkpt>
      <trkpt lat="46.97124" lon="4.76796">
        <ele>236.62</ele>
        <time>2021-07-24T09:18:49Z</time>
      </trkpt>
      <trkpt lat="46.97083" lon="4.76751">
        <ele>236.14</ele>
        <time>2021-07-24T09:19:03Z</time>
      </trkpt>
      <trkpt lat="46.97048" lon="4.76726">
        <ele>236.14</ele>
        <time>2021-07-24T09:19:15Z</time>
      </trkpt>
      <trkpt lat="46.97021" lon="4.76694">
        <ele>236.14</ele>
        <time>2021-07-24T09:19:28Z</time>
      </trkpt>
      <trkpt lat="46.97026" lon="4.76692">
        <ele>236.14</ele>
        <time>2021-07-24T09:19:53Z</time>
      </trkpt>
      <trkpt lat="46.97022" lon="4.76695">
        <ele>236.14</ele>
        <time>2021-07-24T09:20:30Z</time>
      </trkpt>
      <trkpt lat="46.9702" lon="4.76693">
        <ele>236.14</ele>
        <time>2021-07-24T09:21:06Z</time>
      </trkpt>
      <trkpt lat="46.97018" lon="4.76691">
        <ele>236.14</ele>
        <time>2021-07-24T09:21:23Z</time>
      </trkpt>
      <trkpt lat="46.97017" lon="4.7669">
        <ele>236.14</ele>
        <time>2021-07-24T09:21:24Z</time>
      </trkpt>
      <trkpt lat="46.96992" lon="4.76664">
        <ele>235.66</ele>
        <time>2021-07-24T09:21:35Z</time>
      </trkpt>
      <trkpt lat="46.96985" lon="4.76657">
        <ele>235.66</ele>
        <time>2021-07-24T09:21:37Z</time>
      </trkpt>
      <trkpt lat="46.96931" lon="4.76622">
        <ele>234.7</ele>
        <time>2021-07-24T09:21:51Z</time>
      </trkpt>
      <trkpt lat="46.9686" lon="4.76573">
        <ele>234.7</ele>
        <time>2021-07-24T09:22:08Z</time>
      </trkpt>
      <trkpt lat="46.96847" lon="4.76565">
        <ele>234.7</ele>
        <time>2021-07-24T09:22:11Z</time>
      </trkpt>
      <trkpt lat="46.96768" lon="4.76544">
        <ele>234.7</ele>
        <time>2021-07-24T09:22:28Z</time>
      </trkpt>
      <trkpt lat="46.96723" lon="4.76523">
        <ele>234.22</ele>
        <time>2021-07-24T09:22:38Z</time>
      </trkpt>
      <trkpt lat="46.96672" lon="4.76488">
        <ele>234.22</ele>
        <time>2021-07-24T09:22:51Z</time>
      </trkpt>
      <trkpt lat="46.9667" lon="4.76484">
        <ele>234.22</ele>
        <time>2021-07-24T09:22:52Z</time>
      </trkpt>
      <trkpt lat="46.96668" lon="4.76479">
        <ele>234.22</ele>
        <time>2021-07-24T09:22:53Z</time>
      </trkpt>
      <trkpt lat="46.96666" lon="4.76473">
        <ele>234.22</ele>
        <time>2021-07-24T09:22:54Z</time>
      </trkpt>
      <trkpt lat="46.96666" lon="4.76468">
        <ele>234.22</ele>
        <time>2021-07-24T09:22:55Z</time>
      </trkpt>
      <trkpt lat="46.96665" lon="4.76463">
        <ele>234.22</ele>
        <time>2021-07-24T09:22:56Z</time>
      </trkpt>
      <trkpt lat="46.96666" lon="4.76457">
        <ele>235.66</ele>
        <time>2021-07-24T09:22:57Z</time>
      </trkpt>
      <trkpt lat="46.96667" lon="4.76452">
        <ele>235.66</ele>
        <time>2021-07-24T09:22:58Z</time>
      </trkpt>
      <trkpt lat="46.96668" lon="4.76446">
        <ele>235.66</ele>
        <time>2021-07-24T09:22:59Z</time>
      </trkpt>
      <trkpt lat="46.96686" lon="4.76362">
        <ele>236.62</ele>
        <time>2021-07-24T09:23:15Z</time>
      </trkpt>
      <trkpt lat="46.9669" lon="4.76283">
        <ele>237.58</ele>
        <time>2021-07-24T09:23:30Z</time>
      </trkpt>
      <trkpt lat="46.96679" lon="4.76205">
        <ele>238.54</ele>
        <time>2021-07-24T09:23:46Z</time>
      </trkpt>
      <trkpt lat="46.96659" lon="4.76147">
        <ele>239.51</ele>
        <time>2021-07-24T09:24:00Z</time>
      </trkpt>
      <trkpt lat="46.96633" lon="4.7608">
        <ele>241.43</ele>
        <time>2021-07-24T09:24:17Z</time>
      </trkpt>
      <trkpt lat="46.96612" lon="4.76044">
        <ele>242.87</ele>
        <time>2021-07-24T09:24:29Z</time>
      </trkpt>
      <trkpt lat="46.96587" lon="4.75992">
        <ele>244.31</ele>
        <time>2021-07-24T09:24:45Z</time>
      </trkpt>
      <trkpt lat="46.96565" lon="4.75947">
        <ele>245.27</ele>
        <time>2021-07-24T09:24:59Z</time>
      </trkpt>
      <trkpt lat="46.96542" lon="4.75896">
        <ele>247.2</ele>
        <time>2021-07-24T09:25:16Z</time>
      </trkpt>
      <trkpt lat="46.96514" lon="4.75843">
        <ele>248.16</ele>
        <time>2021-07-24T09:25:32Z</time>
      </trkpt>
      <trkpt lat="46.96481" lon="4.75772">
        <ele>249.6</ele>
        <time>2021-07-24T09:25:52Z</time>
      </trkpt>
      <trkpt lat="46.96458" lon="4.75718">
        <ele>250.56</ele>
        <time>2021-07-24T09:26:07Z</time>
      </trkpt>
      <trkpt lat="46.96417" lon="4.75669">
        <ele>251.52</ele>
        <time>2021-07-24T09:26:24Z</time>
      </trkpt>
      <trkpt lat="46.96387" lon="4.75617">
        <ele>252.96</ele>
        <time>2021-07-24T09:26:39Z</time>
      </trkpt>
      <trkpt lat="46.96357" lon="4.75576">
        <ele>255.37</ele>
        <time>2021-07-24T09:26:54Z</time>
      </trkpt>
      <trkpt lat="46.96355" lon="4.75575">
        <ele>255.37</ele>
        <time>2021-07-24T09:26:55Z</time>
      </trkpt>
      <trkpt lat="46.96354" lon="4.75574">
        <ele>255.85</ele>
        <time>2021-07-24T09:26:56Z</time>
      </trkpt>
      <trkpt lat="46.96353" lon="4.75572">
        <ele>255.85</ele>
        <time>2021-07-24T09:26:57Z</time>
      </trkpt>
      <trkpt lat="46.96351" lon="4.75569">
        <ele>255.85</ele>
        <time>2021-07-24T09:26:58Z</time>
      </trkpt>
      <trkpt lat="46.9635" lon="4.75567">
        <ele>256.33</ele>
        <time>2021-07-24T09:26:59Z</time>
      </trkpt>
      <trkpt lat="46.96348" lon="4.75565">
        <ele>256.33</ele>
        <time>2021-07-24T09:27:00Z</time>
      </trkpt>
      <trkpt lat="46.96346" lon="4.75562">
        <ele>256.33</ele>
        <time>2021-07-24T09:27:01Z</time>
      </trkpt>
      <trkpt lat="46.9631" lon="4.75518">
        <ele>257.29</ele>
        <time>2021-07-24T09:27:19Z</time>
      </trkpt>
      <trkpt lat="46.9628" lon="4.75477">
        <ele>258.25</ele>
        <time>2021-07-24T09:27:33Z</time>
      </trkpt>
      <trkpt lat="46.96237" lon="4.75423">
        <ele>258.73</ele>
        <time>2021-07-24T09:27:50Z</time>
      </trkpt>
      <trkpt lat="46.96187" lon="4.75384">
        <ele>259.21</ele>
        <time>2021-07-24T09:28:06Z</time>
      </trkpt>
      <trkpt lat="46.96147" lon="4.75348">
        <ele>260.65</ele>
        <time>2021-07-24T09:28:20Z</time>
      </trkpt>
      <trkpt lat="46.96094" lon="4.75301">
        <ele>261.62</ele>
        <time>2021-07-24T09:28:37Z</time>
      </trkpt>
      <trkpt lat="46.96067" lon="4.75276">
        <ele>261.62</ele>
        <time>2021-07-24T09:28:45Z</time>
      </trkpt>
      <trkpt lat="46.96063" lon="4.75273">
        <ele>261.62</ele>
        <time>2021-07-24T09:28:46Z</time>
      </trkpt>
      <trkpt lat="46.9606" lon="4.7527">
        <ele>261.62</ele>
        <time>2021-07-24T09:28:47Z</time>
      </trkpt>
      <trkpt lat="46.95997" lon="4.75214">
        <ele>261.62</ele>
        <time>2021-07-24T09:29:04Z</time>
      </trkpt>
      <trkpt lat="46.95937" lon="4.75165">
        <ele>261.62</ele>
        <time>2021-07-24T09:29:20Z</time>
      </trkpt>
      <trkpt lat="46.95876" lon="4.75126">
        <ele>259.21</ele>
        <time>2021-07-24T09:29:34Z</time>
      </trkpt>
      <trkpt lat="46.95857" lon="4.75109">
        <ele>259.21</ele>
        <time>2021-07-24T09:29:38Z</time>
      </trkpt>
      <trkpt lat="46.95853" lon="4.75106">
        <ele>258.73</ele>
        <time>2021-07-24T09:29:39Z</time>
      </trkpt>
      <trkpt lat="46.95801" lon="4.75062">
        <ele>258.73</ele>
        <time>2021-07-24T09:29:50Z</time>
      </trkpt>
      <trkpt lat="46.95792" lon="4.75052">
        <ele>258.73</ele>
        <time>2021-07-24T09:29:52Z</time>
      </trkpt>
      <trkpt lat="46.95778" lon="4.75027">
        <ele>258.73</ele>
        <time>2021-07-24T09:29:56Z</time>
      </trkpt>
      <trkpt lat="46.95764" lon="4.75004">
        <ele>260.17</ele>
        <time>2021-07-24T09:30:00Z</time>
      </trkpt>
      <trkpt lat="46.95757" lon="4.74995">
        <ele>260.65</ele>
        <time>2021-07-24T09:30:02Z</time>
      </trkpt>
      <trkpt lat="46.95754" lon="4.7499">
        <ele>261.14</ele>
        <time>2021-07-24T09:30:03Z</time>
      </trkpt>
      <trkpt lat="46.9569" lon="4.7492">
        <ele>262.58</ele>
        <time>2021-07-24T09:30:20Z</time>
      </trkpt>
      <trkpt lat="46.95647" lon="4.74857">
        <ele>265.94</ele>
        <time>2021-07-24T09:30:33Z</time>
      </trkpt>
      <trkpt lat="46.95598" lon="4.74788">
        <ele>267.38</ele>
        <time>2021-07-24T09:30:49Z</time>
      </trkpt>
      <trkpt lat="46.95564" lon="4.74743">
        <ele>268.35</ele>
        <time>2021-07-24T09:31:04Z</time>
      </trkpt>
      <trkpt lat="46.95529" lon="4.74714">
        <ele>267.86</ele>
        <time>2021-07-24T09:31:16Z</time>
      </trkpt>
      <trkpt lat="46.95512" lon="4.74706">
        <ele>266.9</ele>
        <time>2021-07-24T09:31:21Z</time>
      </trkpt>
      <trkpt lat="46.95501" lon="4.74701">
        <ele>266.42</ele>
        <time>2021-07-24T09:31:24Z</time>
      </trkpt>
      <trkpt lat="46.95496" lon="4.74699">
        <ele>265.94</ele>
        <time>2021-07-24T09:31:25Z</time>
      </trkpt>
      <trkpt lat="46.95492" lon="4.74696">
        <ele>265.94</ele>
        <time>2021-07-24T09:31:26Z</time>
      </trkpt>
      <trkpt lat="46.95472" lon="4.74682">
        <ele>264.5</ele>
        <time>2021-07-24T09:31:30Z</time>
      </trkpt>
      <trkpt lat="46.95458" lon="4.74664">
        <ele>263.54</ele>
        <time>2021-07-24T09:31:33Z</time>
      </trkpt>
      <trkpt lat="46.95434" lon="4.74629">
        <ele>262.1</ele>
        <time>2021-07-24T09:31:38Z</time>
      </trkpt>
      <trkpt lat="46.95403" lon="4.746">
        <ele>258.73</ele>
        <time>2021-07-24T09:31:43Z</time>
      </trkpt>
      <trkpt lat="46.95373" lon="4.74577">
        <ele>256.81</ele>
        <time>2021-07-24T09:31:47Z</time>
      </trkpt>
      <trkpt lat="46.95304" lon="4.74534">
        <ele>255.37</ele>
        <time>2021-07-24T09:31:58Z</time>
      </trkpt>
      <trkpt lat="46.95302" lon="4.74534">
        <ele>255.37</ele>
        <time>2021-07-24T09:31:59Z</time>
      </trkpt>
      <trkpt lat="46.95299" lon="4.74534">
        <ele>254.89</ele>
        <time>2021-07-24T09:32:02Z</time>
      </trkpt>
      <trkpt lat="46.95299" lon="4.74529">
        <ele>254.89</ele>
        <time>2021-07-24T09:32:04Z</time>
      </trkpt>
      <trkpt lat="46.95299" lon="4.74526">
        <ele>254.89</ele>
        <time>2021-07-24T09:32:07Z</time>
      </trkpt>
      <trkpt lat="46.95298" lon="4.74525">
        <ele>254.89</ele>
        <time>2021-07-24T09:32:08Z</time>
      </trkpt>
      <trkpt lat="46.95265" lon="4.74489">
        <ele>253.93</ele>
        <time>2021-07-24T09:32:19Z</time>
      </trkpt>
      <trkpt lat="46.95217" lon="4.74435">
        <ele>253.93</ele>
        <time>2021-07-24T09:32:33Z</time>
      </trkpt>
      <trkpt lat="46.9518" lon="4.74403">
        <ele>253.44</ele>
        <time>2021-07-24T09:32:45Z</time>
      </trkpt>
      <trkpt lat="46.95181" lon="4.74404">
        <ele>253.44</ele>
        <time>2021-07-24T09:33:06Z</time>
      </trkpt>
      <trkpt lat="46.9518" lon="4.74406">
        <ele>253.44</ele>
        <time>2021-07-24T09:33:43Z</time>
      </trkpt>
      <trkpt lat="46.95179" lon="4.744">
        <ele>252.96</ele>
        <time>2021-07-24T09:34:15Z</time>
      </trkpt>
      <trkpt lat="46.95178" lon="4.74398">
        <ele>252.96</ele>
        <time>2021-07-24T09:34:16Z</time>
      </trkpt>
      <trkpt lat="46.95177" lon="4.74396">
        <ele>252.96</ele>
        <time>2021-07-24T09:34:17Z</time>
      </trkpt>
      <trkpt lat="46.95175" lon="4.74394">
        <ele>252.96</ele>
        <time>2021-07-24T09:34:18Z</time>
      </trkpt>
      <trkpt lat="46.95174" lon="4.74392">
        <ele>252.96</ele>
        <time>2021-07-24T09:34:19Z</time>
      </trkpt>
      <trkpt lat="46.95169" lon="4.74382">
        <ele>252.96</ele>
        <time>2021-07-24T09:34:31Z</time>
      </trkpt>
      <trkpt lat="46.95171" lon="4.74378">
        <ele>252.96</ele>
        <time>2021-07-24T09:35:01Z</time>
      </trkpt>
      <trkpt lat="46.95168" lon="4.7438">
        <ele>252.96</ele>
        <time>2021-07-24T09:35:16Z</time>
      </trkpt>
      <trkpt lat="46.95167" lon="4.7438">
        <ele>252.96</ele>
        <time>2021-07-24T09:35:17Z</time>
      </trkpt>
      <trkpt lat="46.95165" lon="4.74378">
        <ele>252.96</ele>
        <time>2021-07-24T09:35:18Z</time>
      </trkpt>
      <trkpt lat="46.95124" lon="4.74349">
        <ele>252.96</ele>
        <time>2021-07-24T09:35:32Z</time>
      </trkpt>
      <trkpt lat="46.95076" lon="4.7431">
        <ele>252.48</ele>
        <time>2021-07-24T09:35:47Z</time>
      </trkpt>
      <trkpt lat="46.95016" lon="4.74281">
        <ele>251.52</ele>
        <time>2021-07-24T09:36:03Z</time>
      </trkpt>
      <trkpt lat="46.95003" lon="4.74275">
        <ele>251.52</ele>
        <time>2021-07-24T09:36:07Z</time>
      </trkpt>
      <trkpt lat="46.94999" lon="4.74278">
        <ele>251.52</ele>
        <time>2021-07-24T09:36:08Z</time>
      </trkpt>
      <trkpt lat="46.94995" lon="4.74284">
        <ele>250.56</ele>
        <time>2021-07-24T09:36:09Z</time>
      </trkpt>
      <trkpt lat="46.94993" lon="4.74288">
        <ele>250.08</ele>
        <time>2021-07-24T09:36:10Z</time>
      </trkpt>
      <trkpt lat="46.94991" lon="4.74295">
        <ele>249.6</ele>
        <time>2021-07-24T09:36:11Z</time>
      </trkpt>
      <trkpt lat="46.94988" lon="4.74303">
        <ele>249.12</ele>
        <time>2021-07-24T09:36:12Z</time>
      </trkpt>
      <trkpt lat="46.94986" lon="4.74311">
        <ele>248.64</ele>
        <time>2021-07-24T09:36:13Z</time>
      </trkpt>
      <trkpt lat="46.94983" lon="4.7433">
        <ele>247.68</ele>
        <time>2021-07-24T09:36:15Z</time>
      </trkpt>
      <trkpt lat="46.94967" lon="4.74386">
        <ele>244.31</ele>
        <time>2021-07-24T09:36:21Z</time>
      </trkpt>
      <trkpt lat="46.94954" lon="4.74422">
        <ele>242.39</ele>
        <time>2021-07-24T09:36:25Z</time>
      </trkpt>
      <trkpt lat="46.94949" lon="4.74429">
        <ele>241.91</ele>
        <time>2021-07-24T09:36:26Z</time>
      </trkpt>
      <trkpt lat="46.94944" lon="4.74435">
        <ele>241.91</ele>
        <time>2021-07-24T09:36:27Z</time>
      </trkpt>
      <trkpt lat="46.94938" lon="4.7444">
        <ele>240.95</ele>
        <time>2021-07-24T09:36:28Z</time>
      </trkpt>
      <trkpt lat="46.94933" lon="4.74445">
        <ele>240.95</ele>
        <time>2021-07-24T09:36:29Z</time>
      </trkpt>
      <trkpt lat="46.94903" lon="4.74481">
        <ele>239.51</ele>
        <time>2021-07-24T09:36:39Z</time>
      </trkpt>
      <trkpt lat="46.949" lon="4.74505">
        <ele>239.02</ele>
        <time>2021-07-24T09:36:43Z</time>
      </trkpt>
      <trkpt lat="46.94891" lon="4.74609">
        <ele>237.58</ele>
        <time>2021-07-24T09:36:58Z</time>
      </trkpt>
      <trkpt lat="46.9489" lon="4.74615">
        <ele>237.58</ele>
        <time>2021-07-24T09:36:59Z</time>
      </trkpt>
      <trkpt lat="46.9488" lon="4.74722">
        <ele>236.14</ele>
        <time>2021-07-24T09:37:15Z</time>
      </trkpt>
      <trkpt lat="46.94866" lon="4.74799">
        <ele>235.66</ele>
        <time>2021-07-24T09:37:29Z</time>
      </trkpt>
      <trkpt lat="46.94852" lon="4.74842">
        <ele>234.7</ele>
        <time>2021-07-24T09:37:37Z</time>
      </trkpt>
      <trkpt lat="46.94834" lon="4.74945">
        <ele>234.22</ele>
        <time>2021-07-24T09:37:53Z</time>
      </trkpt>
      <trkpt lat="46.94837" lon="4.75033">
        <ele>234.22</ele>
        <time>2021-07-24T09:38:08Z</time>
      </trkpt>
      <trkpt lat="46.94837" lon="4.75045">
        <ele>234.22</ele>
        <time>2021-07-24T09:38:10Z</time>
      </trkpt>
      <trkpt lat="46.94824" lon="4.75097">
        <ele>234.22</ele>
        <time>2021-07-24T09:38:22Z</time>
      </trkpt>
      <trkpt lat="46.94821" lon="4.75097">
        <ele>234.22</ele>
        <time>2021-07-24T09:38:23Z</time>
      </trkpt>
      <trkpt lat="46.94819" lon="4.75097">
        <ele>234.22</ele>
        <time>2021-07-24T09:38:24Z</time>
      </trkpt>
      <trkpt lat="46.94798" lon="4.75091">
        <ele>235.66</ele>
        <time>2021-07-24T09:38:32Z</time>
      </trkpt>
      <trkpt lat="46.94794" lon="4.75091">
        <ele>235.66</ele>
        <time>2021-07-24T09:38:34Z</time>
      </trkpt>
      <trkpt lat="46.94792" lon="4.75088">
        <ele>235.66</ele>
        <time>2021-07-24T09:38:37Z</time>
      </trkpt>
      <trkpt lat="46.94791" lon="4.75088">
        <ele>235.66</ele>
        <time>2021-07-24T09:38:38Z</time>
      </trkpt>
      <trkpt lat="46.94791" lon="4.75089">
        <ele>235.66</ele>
        <time>2021-07-24T09:38:39Z</time>
      </trkpt>
      <trkpt lat="46.94792" lon="4.75091">
        <ele>235.66</ele>
        <time>2021-07-24T09:38:40Z</time>
      </trkpt>
      <trkpt lat="46.94793" lon="4.75092">
        <ele>235.66</ele>
        <time>2021-07-24T09:38:41Z</time>
      </trkpt>
      <trkpt lat="46.94793" lon="4.75094">
        <ele>235.66</ele>
        <time>2021-07-24T09:38:42Z</time>
      </trkpt>
      <trkpt lat="46.94793" lon="4.75097">
        <ele>235.66</ele>
        <time>2021-07-24T09:38:43Z</time>
      </trkpt>
      <trkpt lat="46.94792" lon="4.75104">
        <ele>235.66</ele>
        <time>2021-07-24T09:38:45Z</time>
      </trkpt>
      <trkpt lat="46.9479" lon="4.75131">
        <ele>235.66</ele>
        <time>2021-07-24T09:38:52Z</time>
      </trkpt>
      <trkpt lat="46.94786" lon="4.75145">
        <ele>235.66</ele>
        <time>2021-07-24T09:38:56Z</time>
      </trkpt>
      <trkpt lat="46.94779" lon="4.75196">
        <ele>235.66</ele>
        <time>2021-07-24T09:39:08Z</time>
      </trkpt>
      <trkpt lat="46.94767" lon="4.75246">
        <ele>234.22</ele>
        <time>2021-07-24T09:39:21Z</time>
      </trkpt>
      <trkpt lat="46.94749" lon="4.753">
        <ele>234.22</ele>
        <time>2021-07-24T09:39:36Z</time>
      </trkpt>
      <trkpt lat="46.94747" lon="4.75302">
        <ele>234.22</ele>
        <time>2021-07-24T09:39:37Z</time>
      </trkpt>
      <trkpt lat="46.94741" lon="4.75303">
        <ele>233.74</ele>
        <time>2021-07-24T09:39:40Z</time>
      </trkpt>
      <trkpt lat="46.94738" lon="4.75303">
        <ele>233.74</ele>
        <time>2021-07-24T09:39:41Z</time>
      </trkpt>
      <trkpt lat="46.94735" lon="4.75302">
        <ele>233.74</ele>
        <time>2021-07-24T09:39:42Z</time>
      </trkpt>
      <trkpt lat="46.94732" lon="4.75301">
        <ele>233.74</ele>
        <time>2021-07-24T09:39:43Z</time>
      </trkpt>
      <trkpt lat="46.94729" lon="4.753">
        <ele>233.74</ele>
        <time>2021-07-24T09:39:44Z</time>
      </trkpt>
      <trkpt lat="46.94696" lon="4.75286">
        <ele>233.74</ele>
        <time>2021-07-24T09:39:56Z</time>
      </trkpt>
      <trkpt lat="46.94652" lon="4.75267">
        <ele>233.26</ele>
        <time>2021-07-24T09:40:09Z</time>
      </trkpt>
      <trkpt lat="46.9462" lon="4.75259">
        <ele>232.3</ele>
        <time>2021-07-24T09:40:19Z</time>
      </trkpt>
      <trkpt lat="46.94575" lon="4.75248">
        <ele>230.85</ele>
        <time>2021-07-24T09:40:32Z</time>
      </trkpt>
      <trkpt lat="46.94556" lon="4.75251">
        <ele>230.37</ele>
        <time>2021-07-24T09:40:42Z</time>
      </trkpt>
      <trkpt lat="46.94559" lon="4.75253">
        <ele>230.37</ele>
        <time>2021-07-24T09:41:00Z</time>
      </trkpt>
      <trkpt lat="46.9456" lon="4.75255">
        <ele>230.37</ele>
        <time>2021-07-24T09:41:27Z</time>
      </trkpt>
      <trkpt lat="46.94557" lon="4.75249">
        <ele>230.37</ele>
        <time>2021-07-24T09:41:54Z</time>
      </trkpt>
      <trkpt lat="46.94556" lon="4.7525">
        <ele>230.37</ele>
        <time>2021-07-24T09:41:55Z</time>
      </trkpt>
      <trkpt lat="46.94554" lon="4.75253">
        <ele>230.37</ele>
        <time>2021-07-24T09:41:57Z</time>
      </trkpt>
      <trkpt lat="46.94552" lon="4.75253">
        <ele>230.37</ele>
        <time>2021-07-24T09:41:58Z</time>
      </trkpt>
      <trkpt lat="46.94549" lon="4.75253">
        <ele>230.37</ele>
        <time>2021-07-24T09:41:59Z</time>
      </trkpt>
      <trkpt lat="46.94547" lon="4.75255">
        <ele>230.37</ele>
        <time>2021-07-24T09:42:00Z</time>
      </trkpt>
      <trkpt lat="46.94545" lon="4.75257">
        <ele>230.37</ele>
        <time>2021-07-24T09:42:01Z</time>
      </trkpt>
      <trkpt lat="46.94543" lon="4.7526">
        <ele>230.37</ele>
        <time>2021-07-24T09:42:02Z</time>
      </trkpt>
      <trkpt lat="46.94541" lon="4.75264">
        <ele>230.37</ele>
        <time>2021-07-24T09:42:03Z</time>
      </trkpt>
      <trkpt lat="46.94521" lon="4.7531">
        <ele>229.41</ele>
        <time>2021-07-24T09:42:15Z</time>
      </trkpt>
      <trkpt lat="46.94521" lon="4.75368">
        <ele>228.93</ele>
        <time>2021-07-24T09:42:27Z</time>
      </trkpt>
      <trkpt lat="46.94517" lon="4.75396">
        <ele>228.93</ele>
        <time>2021-07-24T09:42:34Z</time>
      </trkpt>
      <trkpt lat="46.94512" lon="4.75396">
        <ele>228.93</ele>
        <time>2021-07-24T09:42:36Z</time>
      </trkpt>
      <trkpt lat="46.94507" lon="4.75394">
        <ele>228.93</ele>
        <time>2021-07-24T09:42:37Z</time>
      </trkpt>
      <trkpt lat="46.94505" lon="4.75392">
        <ele>228.93</ele>
        <time>2021-07-24T09:42:38Z</time>
      </trkpt>
      <trkpt lat="46.94478" lon="4.75379">
        <ele>228.93</ele>
        <time>2021-07-24T09:42:48Z</time>
      </trkpt>
      <trkpt lat="46.94478" lon="4.75375">
        <ele>228.93</ele>
        <time>2021-07-24T09:42:49Z</time>
      </trkpt>
      <trkpt lat="46.94479" lon="4.75372">
        <ele>228.93</ele>
        <time>2021-07-24T09:42:50Z</time>
      </trkpt>
      <trkpt lat="46.94479" lon="4.75369">
        <ele>228.93</ele>
        <time>2021-07-24T09:42:51Z</time>
      </trkpt>
      <trkpt lat="46.9448" lon="4.75365">
        <ele>228.93</ele>
        <time>2021-07-24T09:42:52Z</time>
      </trkpt>
      <trkpt lat="46.94481" lon="4.75361">
        <ele>228.93</ele>
        <time>2021-07-24T09:42:53Z</time>
      </trkpt>
      <trkpt lat="46.94482" lon="4.75358">
        <ele>228.93</ele>
        <time>2021-07-24T09:42:54Z</time>
      </trkpt>
      <trkpt lat="46.94492" lon="4.75307">
        <ele>229.89</ele>
        <time>2021-07-24T09:43:09Z</time>
      </trkpt>
      <trkpt lat="46.94498" lon="4.75286">
        <ele>230.37</ele>
        <time>2021-07-24T09:43:16Z</time>
      </trkpt>
      <trkpt lat="46.945" lon="4.75285">
        <ele>230.37</ele>
        <time>2021-07-24T09:43:17Z</time>
      </trkpt>
      <trkpt lat="46.94503" lon="4.75285">
        <ele>230.37</ele>
        <time>2021-07-24T09:43:18Z</time>
      </trkpt>
      <trkpt lat="46.94505" lon="4.75284">
        <ele>230.37</ele>
        <time>2021-07-24T09:43:19Z</time>
      </trkpt>
      <trkpt lat="46.94508" lon="4.75282">
        <ele>230.37</ele>
        <time>2021-07-24T09:43:20Z</time>
      </trkpt>
      <trkpt lat="46.9453" lon="4.75259">
        <ele>230.37</ele>
        <time>2021-07-24T09:43:29Z</time>
      </trkpt>
      <trkpt lat="46.94533" lon="4.75258">
        <ele>230.37</ele>
        <time>2021-07-24T09:43:30Z</time>
      </trkpt>
      <trkpt lat="46.94535" lon="4.75259">
        <ele>230.37</ele>
        <time>2021-07-24T09:43:31Z</time>
      </trkpt>
      <trkpt lat="46.94538" lon="4.7526">
        <ele>230.37</ele>
        <time>2021-07-24T09:43:32Z</time>
      </trkpt>
      <trkpt lat="46.94542" lon="4.7526">
        <ele>230.37</ele>
        <time>2021-07-24T09:43:33Z</time>
      </trkpt>
      <trkpt lat="46.94545" lon="4.75259">
        <ele>230.37</ele>
        <time>2021-07-24T09:43:34Z</time>
      </trkpt>
      <trkpt lat="46.94548" lon="4.75257">
        <ele>230.37</ele>
        <time>2021-07-24T09:43:35Z</time>
      </trkpt>
      <trkpt lat="46.94551" lon="4.75254">
        <ele>230.37</ele>
        <time>2021-07-24T09:43:36Z</time>
      </trkpt>
      <trkpt lat="46.94553" lon="4.7525">
        <ele>230.37</ele>
        <time>2021-07-24T09:43:37Z</time>
      </trkpt>
      <trkpt lat="46.94553" lon="4.75246">
        <ele>230.37</ele>
        <time>2021-07-24T09:43:38Z</time>
      </trkpt>
      <trkpt lat="46.94553" lon="4.75241">
        <ele>230.37</ele>
        <time>2021-07-24T09:43:39Z</time>
      </trkpt>
      <trkpt lat="46.94552" lon="4.75237">
        <ele>230.37</ele>
        <time>2021-07-24T09:43:40Z</time>
      </trkpt>
      <trkpt lat="46.94551" lon="4.75233">
        <ele>230.37</ele>
        <time>2021-07-24T09:43:41Z</time>
      </trkpt>
      <trkpt lat="46.9455" lon="4.75228">
        <ele>230.37</ele>
        <time>2021-07-24T09:43:42Z</time>
      </trkpt>
      <trkpt lat="46.94549" lon="4.75223">
        <ele>230.37</ele>
        <time>2021-07-24T09:43:43Z</time>
      </trkpt>
      <trkpt lat="46.94549" lon="4.75219">
        <ele>230.37</ele>
        <time>2021-07-24T09:43:44Z</time>
      </trkpt>
      <trkpt lat="46.9455" lon="4.75214">
        <ele>230.37</ele>
        <time>2021-07-24T09:43:45Z</time>
      </trkpt>
      <trkpt lat="46.94551" lon="4.75209">
        <ele>230.37</ele>
        <time>2021-07-24T09:43:46Z</time>
      </trkpt>
      <trkpt lat="46.94552" lon="4.75205">
        <ele>230.85</ele>
        <time>2021-07-24T09:43:47Z</time>
      </trkpt>
      <trkpt lat="46.94558" lon="4.75153">
        <ele>231.81</ele>
        <time>2021-07-24T09:43:58Z</time>
      </trkpt>
      <trkpt lat="46.94562" lon="4.75088">
        <ele>232.78</ele>
        <time>2021-07-24T09:44:12Z</time>
      </trkpt>
      <trkpt lat="46.94576" lon="4.75017">
        <ele>233.26</ele>
        <time>2021-07-24T09:44:27Z</time>
      </trkpt>
      <trkpt lat="46.94583" lon="4.74959">
        <ele>234.22</ele>
        <time>2021-07-24T09:44:39Z</time>
      </trkpt>
      <trkpt lat="46.94591" lon="4.74881">
        <ele>235.18</ele>
        <time>2021-07-24T09:44:54Z</time>
      </trkpt>
      <trkpt lat="46.94602" lon="4.74784">
        <ele>237.58</ele>
        <time>2021-07-24T09:45:14Z</time>
      </trkpt>
      <trkpt lat="46.94611" lon="4.74713">
        <ele>239.51</ele>
        <time>2021-07-24T09:45:29Z</time>
      </trkpt>
      <trkpt lat="46.9462" lon="4.7465">
        <ele>240.95</ele>
        <time>2021-07-24T09:45:45Z</time>
      </trkpt>
      <trkpt lat="46.9462" lon="4.74646">
        <ele>240.95</ele>
        <time>2021-07-24T09:45:57Z</time>
      </trkpt>
      <trkpt lat="46.94619" lon="4.74646">
        <ele>240.95</ele>
        <time>2021-07-24T09:46:26Z</time>
      </trkpt>
      <trkpt lat="46.94619" lon="4.74638">
        <ele>240.95</ele>
        <time>2021-07-24T09:46:43Z</time>
      </trkpt>
      <trkpt lat="46.94619" lon="4.74635">
        <ele>241.43</ele>
        <time>2021-07-24T09:46:44Z</time>
      </trkpt>
      <trkpt lat="46.9462" lon="4.74632">
        <ele>241.43</ele>
        <time>2021-07-24T09:46:45Z</time>
      </trkpt>
      <trkpt lat="46.94621" lon="4.74629">
        <ele>241.43</ele>
        <time>2021-07-24T09:46:46Z</time>
      </trkpt>
      <trkpt lat="46.94621" lon="4.74625">
        <ele>241.43</ele>
        <time>2021-07-24T09:46:47Z</time>
      </trkpt>
      <trkpt lat="46.94622" lon="4.74622">
        <ele>241.43</ele>
        <time>2021-07-24T09:46:48Z</time>
      </trkpt>
      <trkpt lat="46.94622" lon="4.74618">
        <ele>241.43</ele>
        <time>2021-07-24T09:46:49Z</time>
      </trkpt>
      <trkpt lat="46.9463" lon="4.7456">
        <ele>242.39</ele>
        <time>2021-07-24T09:47:03Z</time>
      </trkpt>
      <trkpt lat="46.94639" lon="4.74495">
        <ele>243.35</ele>
        <time>2021-07-24T09:47:18Z</time>
      </trkpt>
      <trkpt lat="46.94645" lon="4.74426">
        <ele>244.31</ele>
        <time>2021-07-24T09:47:35Z</time>
      </trkpt>
      <trkpt lat="46.94641" lon="4.74372">
        <ele>245.27</ele>
        <time>2021-07-24T09:47:48Z</time>
      </trkpt>
      <trkpt lat="46.94602" lon="4.74351">
        <ele>245.27</ele>
        <time>2021-07-24T09:47:59Z</time>
      </trkpt>
      <trkpt lat="46.94586" lon="4.74344">
        <ele>243.83</ele>
        <time>2021-07-24T09:48:03Z</time>
      </trkpt>
      <trkpt lat="46.94525" lon="4.74312">
        <ele>243.83</ele>
        <time>2021-07-24T09:48:17Z</time>
      </trkpt>
      <trkpt lat="46.94479" lon="4.74281">
        <ele>244.79</ele>
        <time>2021-07-24T09:48:29Z</time>
      </trkpt>
      <trkpt lat="46.94413" lon="4.74212">
        <ele>246.23</ele>
        <time>2021-07-24T09:48:49Z</time>
      </trkpt>
      <trkpt lat="46.94359" lon="4.7416">
        <ele>247.68</ele>
        <time>2021-07-24T09:49:06Z</time>
      </trkpt>
      <trkpt lat="46.94311" lon="4.74085">
        <ele>248.64</ele>
        <time>2021-07-24T09:49:25Z</time>
      </trkpt>
      <trkpt lat="46.94256" lon="4.7403">
        <ele>248.64</ele>
        <time>2021-07-24T09:49:42Z</time>
      </trkpt>
      <trkpt lat="46.94227" lon="4.74007">
        <ele>247.68</ele>
        <time>2021-07-24T09:49:50Z</time>
      </trkpt>
      <trkpt lat="46.94191" lon="4.73982">
        <ele>246.72</ele>
        <time>2021-07-24T09:50:00Z</time>
      </trkpt>
      <trkpt lat="46.94188" lon="4.73983">
        <ele>246.72</ele>
        <time>2021-07-24T09:50:01Z</time>
      </trkpt>
      <trkpt lat="46.94185" lon="4.73988">
        <ele>246.72</ele>
        <time>2021-07-24T09:50:02Z</time>
      </trkpt>
      <trkpt lat="46.94183" lon="4.73993">
        <ele>246.72</ele>
        <time>2021-07-24T09:50:03Z</time>
      </trkpt>
      <trkpt lat="46.9418" lon="4.73999">
        <ele>246.23</ele>
        <time>2021-07-24T09:50:04Z</time>
      </trkpt>
      <trkpt lat="46.94177" lon="4.74003">
        <ele>246.23</ele>
        <time>2021-07-24T09:50:05Z</time>
      </trkpt>
      <trkpt lat="46.94173" lon="4.74005">
        <ele>245.75</ele>
        <time>2021-07-24T09:50:06Z</time>
      </trkpt>
      <trkpt lat="46.94169" lon="4.74004">
        <ele>245.75</ele>
        <time>2021-07-24T09:50:07Z</time>
      </trkpt>
      <trkpt lat="46.94166" lon="4.74">
        <ele>245.75</ele>
        <time>2021-07-24T09:50:08Z</time>
      </trkpt>
      <trkpt lat="46.94163" lon="4.73996">
        <ele>245.27</ele>
        <time>2021-07-24T09:50:09Z</time>
      </trkpt>
      <trkpt lat="46.94156" lon="4.73988">
        <ele>245.27</ele>
        <time>2021-07-24T09:50:11Z</time>
      </trkpt>
      <trkpt lat="46.94143" lon="4.73971">
        <ele>243.83</ele>
        <time>2021-07-24T09:50:15Z</time>
      </trkpt>
      <trkpt lat="46.9412" lon="4.73947">
        <ele>242.39</ele>
        <time>2021-07-24T09:50:24Z</time>
      </trkpt>
      <trkpt lat="46.94118" lon="4.73948">
        <ele>242.39</ele>
        <time>2021-07-24T09:50:25Z</time>
      </trkpt>
      <trkpt lat="46.94116" lon="4.7395">
        <ele>242.39</ele>
        <time>2021-07-24T09:50:26Z</time>
      </trkpt>
      <trkpt lat="46.94115" lon="4.73953">
        <ele>242.39</ele>
        <time>2021-07-24T09:50:27Z</time>
      </trkpt>
      <trkpt lat="46.94114" lon="4.73956">
        <ele>242.39</ele>
        <time>2021-07-24T09:50:28Z</time>
      </trkpt>
      <trkpt lat="46.94114" lon="4.73961">
        <ele>242.39</ele>
        <time>2021-07-24T09:50:29Z</time>
      </trkpt>
      <trkpt lat="46.94099" lon="4.74029">
        <ele>241.91</ele>
        <time>2021-07-24T09:50:43Z</time>
      </trkpt>
      <trkpt lat="46.94063" lon="4.74121">
        <ele>239.02</ele>
        <time>2021-07-24T09:50:58Z</time>
      </trkpt>
      <trkpt lat="46.94024" lon="4.74203">
        <ele>237.58</ele>
        <time>2021-07-24T09:51:11Z</time>
      </trkpt>
      <trkpt lat="46.93974" lon="4.74309">
        <ele>236.14</ele>
        <time>2021-07-24T09:51:27Z</time>
      </trkpt>
      <trkpt lat="46.93927" lon="4.74447">
        <ele>235.18</ele>
        <time>2021-07-24T09:51:44Z</time>
      </trkpt>
      <trkpt lat="46.93882" lon="4.74558">
        <ele>234.22</ele>
        <time>2021-07-24T09:52:00Z</time>
      </trkpt>
      <trkpt lat="46.9388" lon="4.74558">
        <ele>234.22</ele>
        <time>2021-07-24T09:52:01Z</time>
      </trkpt>
      <trkpt lat="46.93878" lon="4.74556">
        <ele>233.74</ele>
        <time>2021-07-24T09:52:02Z</time>
      </trkpt>
      <trkpt lat="46.93841" lon="4.74525">
        <ele>232.3</ele>
        <time>2021-07-24T09:52:13Z</time>
      </trkpt>
      <trkpt lat="46.93836" lon="4.74531">
        <ele>232.3</ele>
        <time>2021-07-24T09:52:16Z</time>
      </trkpt>
      <trkpt lat="46.93829" lon="4.74527">
        <ele>231.33</ele>
        <time>2021-07-24T09:52:27Z</time>
      </trkpt>
      <trkpt lat="46.93828" lon="4.74521">
        <ele>231.33</ele>
        <time>2021-07-24T09:52:44Z</time>
      </trkpt>
      <trkpt lat="46.93829" lon="4.7452">
        <ele>231.33</ele>
        <time>2021-07-24T09:53:29Z</time>
      </trkpt>
      <trkpt lat="46.93827" lon="4.74521">
        <ele>232.3</ele>
        <time>2021-07-24T09:54:09Z</time>
      </trkpt>
      <trkpt lat="46.93825" lon="4.74523">
        <ele>232.78</ele>
        <time>2021-07-24T09:54:52Z</time>
      </trkpt>
      <trkpt lat="46.93826" lon="4.74522">
        <ele>234.22</ele>
        <time>2021-07-24T09:56:16Z</time>
      </trkpt>
      <trkpt lat="46.93823" lon="4.7452">
        <ele>234.22</ele>
        <time>2021-07-24T09:57:00Z</time>
      </trkpt>
      <trkpt lat="46.93825" lon="4.74521">
        <ele>234.22</ele>
        <time>2021-07-24T09:57:33Z</time>
      </trkpt>
      <trkpt lat="46.93827" lon="4.74526">
        <ele>234.22</ele>
        <time>2021-07-24T09:57:56Z</time>
      </trkpt>
      <trkpt lat="46.93837" lon="4.74535">
        <ele>234.7</ele>
        <time>2021-07-24T09:58:06Z</time>
      </trkpt>
      <trkpt lat="46.93842" lon="4.74525">
        <ele>234.7</ele>
        <time>2021-07-24T09:58:21Z</time>
      </trkpt>
      <trkpt lat="46.9384" lon="4.74518">
        <ele>234.7</ele>
        <time>2021-07-24T09:58:26Z</time>
      </trkpt>
      <trkpt lat="46.93811" lon="4.74482">
        <ele>234.7</ele>
        <time>2021-07-24T09:58:39Z</time>
      </trkpt>
      <trkpt lat="46.93775" lon="4.74433">
        <ele>233.26</ele>
        <time>2021-07-24T09:58:52Z</time>
      </trkpt>
      <trkpt lat="46.93772" lon="4.74431">
        <ele>233.26</ele>
        <time>2021-07-24T09:58:53Z</time>
      </trkpt>
      <trkpt lat="46.93768" lon="4.74428">
        <ele>233.26</ele>
        <time>2021-07-24T09:58:54Z</time>
      </trkpt>
      <trkpt lat="46.93726" lon="4.74395">
        <ele>233.26</ele>
        <time>2021-07-24T09:59:07Z</time>
      </trkpt>
      <trkpt lat="46.93734" lon="4.74344">
        <ele>232.78</ele>
        <time>2021-07-24T09:59:17Z</time>
      </trkpt>
      <trkpt lat="46.93757" lon="4.74257">
        <ele>234.22</ele>
        <time>2021-07-24T09:59:35Z</time>
      </trkpt>
      <trkpt lat="46.93762" lon="4.74184">
        <ele>235.66</ele>
        <time>2021-07-24T09:59:51Z</time>
      </trkpt>
      <trkpt lat="46.93774" lon="4.74113">
        <ele>236.14</ele>
        <time>2021-07-24T10:00:06Z</time>
      </trkpt>
      <trkpt lat="46.93794" lon="4.74036">
        <ele>236.14</ele>
        <time>2021-07-24T10:00:22Z</time>
      </trkpt>
      <trkpt lat="46.93818" lon="4.73962">
        <ele>236.62</ele>
        <time>2021-07-24T10:00:37Z</time>
      </trkpt>
      <trkpt lat="46.93851" lon="4.73856">
        <ele>237.1</ele>
        <time>2021-07-24T10:00:58Z</time>
      </trkpt>
      <trkpt lat="46.93855" lon="4.73831">
        <ele>237.1</ele>
        <time>2021-07-24T10:01:05Z</time>
      </trkpt>
      <trkpt lat="46.93868" lon="4.73776">
        <ele>238.06</ele>
        <time>2021-07-24T10:01:19Z</time>
      </trkpt>
      <trkpt lat="46.93881" lon="4.73728">
        <ele>239.02</ele>
        <time>2021-07-24T10:01:32Z</time>
      </trkpt>
      <trkpt lat="46.93871" lon="4.73669">
        <ele>239.02</ele>
        <time>2021-07-24T10:01:45Z</time>
      </trkpt>
      <trkpt lat="46.93839" lon="4.73617">
        <ele>239.02</ele>
        <time>2021-07-24T10:01:59Z</time>
      </trkpt>
      <trkpt lat="46.9381" lon="4.73552">
        <ele>239.51</ele>
        <time>2021-07-24T10:02:15Z</time>
      </trkpt>
      <trkpt lat="46.93809" lon="4.73483">
        <ele>240.95</ele>
        <time>2021-07-24T10:02:29Z</time>
      </trkpt>
      <trkpt lat="46.93807" lon="4.73402">
        <ele>242.39</ele>
        <time>2021-07-24T10:02:47Z</time>
      </trkpt>
      <trkpt lat="46.9381" lon="4.73339">
        <ele>242.39</ele>
        <time>2021-07-24T10:03:00Z</time>
      </trkpt>
      <trkpt lat="46.9381" lon="4.7332">
        <ele>242.39</ele>
        <time>2021-07-24T10:03:04Z</time>
      </trkpt>
      <trkpt lat="46.93783" lon="4.73261">
        <ele>242.39</ele>
        <time>2021-07-24T10:03:19Z</time>
      </trkpt>
      <trkpt lat="46.9379" lon="4.73219">
        <ele>244.31</ele>
        <time>2021-07-24T10:03:30Z</time>
      </trkpt>
      <trkpt lat="46.93807" lon="4.73169">
        <ele>246.23</ele>
        <time>2021-07-24T10:03:45Z</time>
      </trkpt>
      <trkpt lat="46.93826" lon="4.73111">
        <ele>248.64</ele>
        <time>2021-07-24T10:04:04Z</time>
      </trkpt>
      <trkpt lat="46.93827" lon="4.73067">
        <ele>250.08</ele>
        <time>2021-07-24T10:04:18Z</time>
      </trkpt>
      <trkpt lat="46.93828" lon="4.73065">
        <ele>250.08</ele>
        <time>2021-07-24T10:04:19Z</time>
      </trkpt>
      <trkpt lat="46.93829" lon="4.73064">
        <ele>250.08</ele>
        <time>2021-07-24T10:04:20Z</time>
      </trkpt>
      <trkpt lat="46.93829" lon="4.73062">
        <ele>250.56</ele>
        <time>2021-07-24T10:04:21Z</time>
      </trkpt>
      <trkpt lat="46.93828" lon="4.7306">
        <ele>250.56</ele>
        <time>2021-07-24T10:04:22Z</time>
      </trkpt>
      <trkpt lat="46.93827" lon="4.73059">
        <ele>250.56</ele>
        <time>2021-07-24T10:04:23Z</time>
      </trkpt>
      <trkpt lat="46.93825" lon="4.7306">
        <ele>250.56</ele>
        <time>2021-07-24T10:04:25Z</time>
      </trkpt>
      <trkpt lat="46.93824" lon="4.73064">
        <ele>250.56</ele>
        <time>2021-07-24T10:04:26Z</time>
      </trkpt>
      <trkpt lat="46.93824" lon="4.73067">
        <ele>250.56</ele>
        <time>2021-07-24T10:04:27Z</time>
      </trkpt>
      <trkpt lat="46.93824" lon="4.7307">
        <ele>250.56</ele>
        <time>2021-07-24T10:04:28Z</time>
      </trkpt>
      <trkpt lat="46.93824" lon="4.73085">
        <ele>250.56</ele>
        <time>2021-07-24T10:04:32Z</time>
      </trkpt>
      <trkpt lat="46.93827" lon="4.73088">
        <ele>250.56</ele>
        <time>2021-07-24T10:04:34Z</time>
      </trkpt>
      <trkpt lat="46.93831" lon="4.73086">
        <ele>249.6</ele>
        <time>2021-07-24T10:04:36Z</time>
      </trkpt>
      <trkpt lat="46.93832" lon="4.73084">
        <ele>249.6</ele>
        <time>2021-07-24T10:04:37Z</time>
      </trkpt>
      <trkpt lat="46.93834" lon="4.73081">
        <ele>249.6</ele>
        <time>2021-07-24T10:04:38Z</time>
      </trkpt>
      <trkpt lat="46.93835" lon="4.7308">
        <ele>249.6</ele>
        <time>2021-07-24T10:04:39Z</time>
      </trkpt>
      <trkpt lat="46.93837" lon="4.7308">
        <ele>249.6</ele>
        <time>2021-07-24T10:04:40Z</time>
      </trkpt>
      <trkpt lat="46.93839" lon="4.7308">
        <ele>249.6</ele>
        <time>2021-07-24T10:04:55Z</time>
      </trkpt>
      <trkpt lat="46.93838" lon="4.73072">
        <ele>249.6</ele>
        <time>2021-07-24T10:05:05Z</time>
      </trkpt>
      <trkpt lat="46.93839" lon="4.73071">
        <ele>249.6</ele>
        <time>2021-07-24T10:05:06Z</time>
      </trkpt>
      <trkpt lat="46.93839" lon="4.73069">
        <ele>249.6</ele>
        <time>2021-07-24T10:05:07Z</time>
      </trkpt>
      <trkpt lat="46.9384" lon="4.73068">
        <ele>250.56</ele>
        <time>2021-07-24T10:05:08Z</time>
      </trkpt>
      <trkpt lat="46.9384" lon="4.73066">
        <ele>250.56</ele>
        <time>2021-07-24T10:05:09Z</time>
      </trkpt>
      <trkpt lat="46.93841" lon="4.73064">
        <ele>250.56</ele>
        <time>2021-07-24T10:05:10Z</time>
      </trkpt>
      <trkpt lat="46.93842" lon="4.73059">
        <ele>251.52</ele>
        <time>2021-07-24T10:05:12Z</time>
      </trkpt>
      <trkpt lat="46.9384" lon="4.73049">
        <ele>251.52</ele>
        <time>2021-07-24T10:05:16Z</time>
      </trkpt>
      <trkpt lat="46.93825" lon="4.73026">
        <ele>251.52</ele>
        <time>2021-07-24T10:05:25Z</time>
      </trkpt>
      <trkpt lat="46.93824" lon="4.73022">
        <ele>251.52</ele>
        <time>2021-07-24T10:05:26Z</time>
      </trkpt>
      <trkpt lat="46.93824" lon="4.73017">
        <ele>252</ele>
        <time>2021-07-24T10:05:27Z</time>
      </trkpt>
      <trkpt lat="46.93825" lon="4.73013">
        <ele>252</ele>
        <time>2021-07-24T10:05:28Z</time>
      </trkpt>
      <trkpt lat="46.93826" lon="4.73009">
        <ele>252</ele>
        <time>2021-07-24T10:05:29Z</time>
      </trkpt>
      <trkpt lat="46.93826" lon="4.73005">
        <ele>252</ele>
        <time>2021-07-24T10:05:30Z</time>
      </trkpt>
      <trkpt lat="46.93826" lon="4.73001">
        <ele>252.48</ele>
        <time>2021-07-24T10:05:31Z</time>
      </trkpt>
      <trkpt lat="46.93825" lon="4.72997">
        <ele>252.48</ele>
        <time>2021-07-24T10:05:32Z</time>
      </trkpt>
      <trkpt lat="46.93824" lon="4.72992">
        <ele>252.48</ele>
        <time>2021-07-24T10:05:33Z</time>
      </trkpt>
      <trkpt lat="46.93823" lon="4.72988">
        <ele>252.48</ele>
        <time>2021-07-24T10:05:34Z</time>
      </trkpt>
      <trkpt lat="46.93821" lon="4.72985">
        <ele>252.48</ele>
        <time>2021-07-24T10:05:35Z</time>
      </trkpt>
      <trkpt lat="46.93819" lon="4.72981">
        <ele>252.48</ele>
        <time>2021-07-24T10:05:36Z</time>
      </trkpt>
      <trkpt lat="46.93816" lon="4.72978">
        <ele>252.48</ele>
        <time>2021-07-24T10:05:37Z</time>
      </trkpt>
      <trkpt lat="46.93814" lon="4.72975">
        <ele>252.48</ele>
        <time>2021-07-24T10:05:38Z</time>
      </trkpt>
      <trkpt lat="46.93811" lon="4.72973">
        <ele>252.48</ele>
        <time>2021-07-24T10:05:39Z</time>
      </trkpt>
      <trkpt lat="46.93808" lon="4.7297">
        <ele>252.48</ele>
        <time>2021-07-24T10:05:40Z</time>
      </trkpt>
      <trkpt lat="46.93773" lon="4.7295">
        <ele>252.96</ele>
        <time>2021-07-24T10:05:52Z</time>
      </trkpt>
      <trkpt lat="46.93726" lon="4.72917">
        <ele>253.44</ele>
        <time>2021-07-24T10:06:08Z</time>
      </trkpt>
      <trkpt lat="46.93715" lon="4.72904">
        <ele>253.44</ele>
        <time>2021-07-24T10:06:13Z</time>
      </trkpt>
      <trkpt lat="46.93715" lon="4.72902">
        <ele>253.44</ele>
        <time>2021-07-24T10:06:14Z</time>
      </trkpt>
      <trkpt lat="46.93726" lon="4.72892">
        <ele>253.93</ele>
        <time>2021-07-24T10:06:21Z</time>
      </trkpt>
      <trkpt lat="46.93732" lon="4.7288">
        <ele>254.41</ele>
        <time>2021-07-24T10:06:27Z</time>
      </trkpt>
      <trkpt lat="46.93722" lon="4.72897">
        <ele>254.41</ele>
        <time>2021-07-24T10:06:36Z</time>
      </trkpt>
      <trkpt lat="46.93719" lon="4.729">
        <ele>254.41</ele>
        <time>2021-07-24T10:06:37Z</time>
      </trkpt>
      <trkpt lat="46.93717" lon="4.72901">
        <ele>254.41</ele>
        <time>2021-07-24T10:06:38Z</time>
      </trkpt>
      <trkpt lat="46.93714" lon="4.72902">
        <ele>254.41</ele>
        <time>2021-07-24T10:06:39Z</time>
      </trkpt>
      <trkpt lat="46.93711" lon="4.729">
        <ele>254.41</ele>
        <time>2021-07-24T10:06:40Z</time>
      </trkpt>
      <trkpt lat="46.93676" lon="4.72857">
        <ele>254.41</ele>
        <time>2021-07-24T10:06:54Z</time>
      </trkpt>
      <trkpt lat="46.93651" lon="4.72795">
        <ele>256.81</ele>
        <time>2021-07-24T10:07:07Z</time>
      </trkpt>
      <trkpt lat="46.93622" lon="4.72727">
        <ele>258.25</ele>
        <time>2021-07-24T10:07:22Z</time>
      </trkpt>
      <trkpt lat="46.9359" lon="4.72668">
        <ele>259.69</ele>
        <time>2021-07-24T10:07:38Z</time>
      </trkpt>
      <trkpt lat="46.93554" lon="4.72617">
        <ele>261.14</ele>
        <time>2021-07-24T10:07:54Z</time>
      </trkpt>
      <trkpt lat="46.9355" lon="4.72569">
        <ele>263.54</ele>
        <time>2021-07-24T10:08:08Z</time>
      </trkpt>
      <trkpt lat="46.93553" lon="4.72529">
        <ele>265.46</ele>
        <time>2021-07-24T10:08:22Z</time>
      </trkpt>
      <trkpt lat="46.93554" lon="4.72514">
        <ele>266.42</ele>
        <time>2021-07-24T10:08:27Z</time>
      </trkpt>
      <trkpt lat="46.93553" lon="4.72511">
        <ele>266.42</ele>
        <time>2021-07-24T10:08:28Z</time>
      </trkpt>
      <trkpt lat="46.93552" lon="4.72509">
        <ele>266.42</ele>
        <time>2021-07-24T10:08:29Z</time>
      </trkpt>
      <trkpt lat="46.93551" lon="4.72507">
        <ele>266.9</ele>
        <time>2021-07-24T10:08:30Z</time>
      </trkpt>
      <trkpt lat="46.9355" lon="4.72505">
        <ele>266.9</ele>
        <time>2021-07-24T10:08:31Z</time>
      </trkpt>
      <trkpt lat="46.93547" lon="4.72502">
        <ele>266.9</ele>
        <time>2021-07-24T10:08:33Z</time>
      </trkpt>
      <trkpt lat="46.93519" lon="4.72475">
        <ele>268.83</ele>
        <time>2021-07-24T10:08:48Z</time>
      </trkpt>
      <trkpt lat="46.93503" lon="4.72433">
        <ele>270.27</ele>
        <time>2021-07-24T10:09:02Z</time>
      </trkpt>
      <trkpt lat="46.93484" lon="4.72404">
        <ele>270.27</ele>
        <time>2021-07-24T10:09:13Z</time>
      </trkpt>
      <trkpt lat="46.93476" lon="4.72386">
        <ele>268.83</ele>
        <time>2021-07-24T10:09:18Z</time>
      </trkpt>
      <trkpt lat="46.93469" lon="4.72375">
        <ele>268.83</ele>
        <time>2021-07-24T10:09:22Z</time>
      </trkpt>
      <trkpt lat="46.93465" lon="4.72375">
        <ele>267.86</ele>
        <time>2021-07-24T10:09:23Z</time>
      </trkpt>
      <trkpt lat="46.93462" lon="4.72376">
        <ele>267.86</ele>
        <time>2021-07-24T10:09:24Z</time>
      </trkpt>
      <trkpt lat="46.9346" lon="4.72379">
        <ele>267.86</ele>
        <time>2021-07-24T10:09:25Z</time>
      </trkpt>
      <trkpt lat="46.93458" lon="4.72381">
        <ele>266.9</ele>
        <time>2021-07-24T10:09:26Z</time>
      </trkpt>
      <trkpt lat="46.93441" lon="4.72414">
        <ele>264.98</ele>
        <time>2021-07-24T10:09:33Z</time>
      </trkpt>
      <trkpt lat="46.93439" lon="4.72421">
        <ele>264.98</ele>
        <time>2021-07-24T10:09:34Z</time>
      </trkpt>
      <trkpt lat="46.93438" lon="4.72427">
        <ele>264.98</ele>
        <time>2021-07-24T10:09:35Z</time>
      </trkpt>
      <trkpt lat="46.93436" lon="4.72434">
        <ele>264.5</ele>
        <time>2021-07-24T10:09:36Z</time>
      </trkpt>
      <trkpt lat="46.93435" lon="4.7244">
        <ele>264.5</ele>
        <time>2021-07-24T10:09:37Z</time>
      </trkpt>
      <trkpt lat="46.93427" lon="4.72488">
        <ele>263.54</ele>
        <time>2021-07-24T10:09:48Z</time>
      </trkpt>
      <trkpt lat="46.93425" lon="4.72518">
        <ele>261.62</ele>
        <time>2021-07-24T10:09:57Z</time>
      </trkpt>
      <trkpt lat="46.93424" lon="4.72533">
        <ele>261.14</ele>
        <time>2021-07-24T10:10:08Z</time>
      </trkpt>
      <trkpt lat="46.93426" lon="4.72534">
        <ele>261.62</ele>
        <time>2021-07-24T10:10:38Z</time>
      </trkpt>
      <trkpt lat="46.93428" lon="4.7254">
        <ele>261.14</ele>
        <time>2021-07-24T10:11:00Z</time>
      </trkpt>
      <trkpt lat="46.93427" lon="4.72544">
        <ele>261.14</ele>
        <time>2021-07-24T10:11:01Z</time>
      </trkpt>
      <trkpt lat="46.93426" lon="4.7255">
        <ele>260.65</ele>
        <time>2021-07-24T10:11:02Z</time>
      </trkpt>
      <trkpt lat="46.93424" lon="4.72555">
        <ele>260.17</ele>
        <time>2021-07-24T10:11:03Z</time>
      </trkpt>
      <trkpt lat="46.93422" lon="4.72561">
        <ele>259.69</ele>
        <time>2021-07-24T10:11:04Z</time>
      </trkpt>
      <trkpt lat="46.9342" lon="4.72568">
        <ele>259.21</ele>
        <time>2021-07-24T10:11:05Z</time>
      </trkpt>
      <trkpt lat="46.93406" lon="4.72612">
        <ele>255.85</ele>
        <time>2021-07-24T10:11:10Z</time>
      </trkpt>
      <trkpt lat="46.93387" lon="4.72672">
        <ele>252.48</ele>
        <time>2021-07-24T10:11:16Z</time>
      </trkpt>
      <trkpt lat="46.93363" lon="4.72731">
        <ele>249.12</ele>
        <time>2021-07-24T10:11:22Z</time>
      </trkpt>
      <trkpt lat="46.93349" lon="4.72761">
        <ele>247.68</ele>
        <time>2021-07-24T10:11:26Z</time>
      </trkpt>
      <trkpt lat="46.93343" lon="4.72771">
        <ele>247.2</ele>
        <time>2021-07-24T10:11:28Z</time>
      </trkpt>
      <trkpt lat="46.9334" lon="4.72774">
        <ele>247.2</ele>
        <time>2021-07-24T10:11:29Z</time>
      </trkpt>
      <trkpt lat="46.93335" lon="4.72774">
        <ele>246.72</ele>
        <time>2021-07-24T10:11:30Z</time>
      </trkpt>
      <trkpt lat="46.9333" lon="4.72772">
        <ele>246.72</ele>
        <time>2021-07-24T10:11:31Z</time>
      </trkpt>
      <trkpt lat="46.93327" lon="4.72769">
        <ele>246.72</ele>
        <time>2021-07-24T10:11:32Z</time>
      </trkpt>
      <trkpt lat="46.93325" lon="4.72765">
        <ele>246.72</ele>
        <time>2021-07-24T10:11:33Z</time>
      </trkpt>
      <trkpt lat="46.93293" lon="4.72726">
        <ele>246.72</ele>
        <time>2021-07-24T10:11:44Z</time>
      </trkpt>
      <trkpt lat="46.9329" lon="4.72724">
        <ele>246.72</ele>
        <time>2021-07-24T10:11:46Z</time>
      </trkpt>
      <trkpt lat="46.93289" lon="4.72724">
        <ele>246.72</ele>
        <time>2021-07-24T10:12:00Z</time>
      </trkpt>
      <trkpt lat="46.93288" lon="4.72724">
        <ele>246.72</ele>
        <time>2021-07-24T10:12:01Z</time>
      </trkpt>
      <trkpt lat="46.93283" lon="4.72722">
        <ele>246.72</ele>
        <time>2021-07-24T10:12:04Z</time>
      </trkpt>
      <trkpt lat="46.93281" lon="4.72721">
        <ele>246.72</ele>
        <time>2021-07-24T10:12:05Z</time>
      </trkpt>
      <trkpt lat="46.9328" lon="4.72719">
        <ele>246.72</ele>
        <time>2021-07-24T10:12:06Z</time>
      </trkpt>
      <trkpt lat="46.93278" lon="4.7271">
        <ele>246.72</ele>
        <time>2021-07-24T10:12:11Z</time>
      </trkpt>
      <trkpt lat="46.9328" lon="4.7271">
        <ele>246.72</ele>
        <time>2021-07-24T10:12:13Z</time>
      </trkpt>
      <trkpt lat="46.93281" lon="4.72714">
        <ele>246.72</ele>
        <time>2021-07-24T10:12:14Z</time>
      </trkpt>
      <trkpt lat="46.9328" lon="4.72717">
        <ele>246.72</ele>
        <time>2021-07-24T10:12:15Z</time>
      </trkpt>
      <trkpt lat="46.93279" lon="4.72719">
        <ele>246.72</ele>
        <time>2021-07-24T10:12:16Z</time>
      </trkpt>
      <trkpt lat="46.93276" lon="4.72721">
        <ele>246.72</ele>
        <time>2021-07-24T10:12:17Z</time>
      </trkpt>
      <trkpt lat="46.93274" lon="4.72722">
        <ele>246.72</ele>
        <time>2021-07-24T10:12:18Z</time>
      </trkpt>
      <trkpt lat="46.93257" lon="4.72741">
        <ele>245.27</ele>
        <time>2021-07-24T10:12:24Z</time>
      </trkpt>
      <trkpt lat="46.93215" lon="4.72818">
        <ele>241.91</ele>
        <time>2021-07-24T10:12:37Z</time>
      </trkpt>
      <trkpt lat="46.93207" lon="4.72829">
        <ele>241.91</ele>
        <time>2021-07-24T10:12:39Z</time>
      </trkpt>
      <trkpt lat="46.93203" lon="4.72834">
        <ele>241.91</ele>
        <time>2021-07-24T10:12:40Z</time>
      </trkpt>
      <trkpt lat="46.93148" lon="4.72884">
        <ele>238.54</ele>
        <time>2021-07-24T10:12:51Z</time>
      </trkpt>
      <trkpt lat="46.9312" lon="4.72908">
        <ele>237.1</ele>
        <time>2021-07-24T10:12:56Z</time>
      </trkpt>
      <trkpt lat="46.93115" lon="4.72915">
        <ele>237.1</ele>
        <time>2021-07-24T10:12:57Z</time>
      </trkpt>
      <trkpt lat="46.93111" lon="4.72923">
        <ele>236.62</ele>
        <time>2021-07-24T10:12:58Z</time>
      </trkpt>
      <trkpt lat="46.93075" lon="4.72991">
        <ele>234.7</ele>
        <time>2021-07-24T10:13:07Z</time>
      </trkpt>
      <trkpt lat="46.93026" lon="4.73083">
        <ele>233.26</ele>
        <time>2021-07-24T10:13:20Z</time>
      </trkpt>
      <trkpt lat="46.93023" lon="4.73088">
        <ele>232.78</ele>
        <time>2021-07-24T10:13:21Z</time>
      </trkpt>
      <trkpt lat="46.93018" lon="4.73092">
        <ele>232.78</ele>
        <time>2021-07-24T10:13:22Z</time>
      </trkpt>
      <trkpt lat="46.93014" lon="4.73095">
        <ele>232.78</ele>
        <time>2021-07-24T10:13:23Z</time>
      </trkpt>
      <trkpt lat="46.93009" lon="4.73097">
        <ele>232.78</ele>
        <time>2021-07-24T10:13:24Z</time>
      </trkpt>
      <trkpt lat="46.93004" lon="4.73097">
        <ele>232.78</ele>
        <time>2021-07-24T10:13:25Z</time>
      </trkpt>
      <trkpt lat="46.92999" lon="4.73095">
        <ele>232.78</ele>
        <time>2021-07-24T10:13:26Z</time>
      </trkpt>
      <trkpt lat="46.92996" lon="4.73092">
        <ele>232.78</ele>
        <time>2021-07-24T10:13:27Z</time>
      </trkpt>
      <trkpt lat="46.92992" lon="4.73088">
        <ele>232.78</ele>
        <time>2021-07-24T10:13:28Z</time>
      </trkpt>
      <trkpt lat="46.9299" lon="4.73085">
        <ele>232.78</ele>
        <time>2021-07-24T10:13:29Z</time>
      </trkpt>
      <trkpt lat="46.92988" lon="4.73085">
        <ele>232.78</ele>
        <time>2021-07-24T10:13:30Z</time>
      </trkpt>
      <trkpt lat="46.92988" lon="4.73086">
        <ele>232.78</ele>
        <time>2021-07-24T10:13:31Z</time>
      </trkpt>
      <trkpt lat="46.92989" lon="4.73087">
        <ele>232.78</ele>
        <time>2021-07-24T10:13:32Z</time>
      </trkpt>
      <trkpt lat="46.92996" lon="4.73095">
        <ele>232.78</ele>
        <time>2021-07-24T10:13:37Z</time>
      </trkpt>
      <trkpt lat="46.92997" lon="4.73097">
        <ele>232.78</ele>
        <time>2021-07-24T10:13:38Z</time>
      </trkpt>
      <trkpt lat="46.92997" lon="4.731">
        <ele>232.78</ele>
        <time>2021-07-24T10:13:39Z</time>
      </trkpt>
      <trkpt lat="46.92998" lon="4.73104">
        <ele>232.78</ele>
        <time>2021-07-24T10:13:40Z</time>
      </trkpt>
      <trkpt lat="46.92996" lon="4.73106">
        <ele>232.78</ele>
        <time>2021-07-24T10:13:42Z</time>
      </trkpt>
      <trkpt lat="46.92994" lon="4.73105">
        <ele>232.78</ele>
        <time>2021-07-24T10:13:43Z</time>
      </trkpt>
      <trkpt lat="46.92992" lon="4.73105">
        <ele>232.78</ele>
        <time>2021-07-24T10:13:45Z</time>
      </trkpt>
      <trkpt lat="46.92991" lon="4.73106">
        <ele>232.78</ele>
        <time>2021-07-24T10:13:46Z</time>
      </trkpt>
      <trkpt lat="46.9299" lon="4.73105">
        <ele>232.78</ele>
        <time>2021-07-24T10:13:47Z</time>
      </trkpt>
      <trkpt lat="46.92989" lon="4.73105">
        <ele>232.78</ele>
        <time>2021-07-24T10:13:48Z</time>
      </trkpt>
      <trkpt lat="46.92986" lon="4.73105">
        <ele>232.78</ele>
        <time>2021-07-24T10:14:01Z</time>
      </trkpt>
      <trkpt lat="46.92986" lon="4.73106">
        <ele>232.78</ele>
        <time>2021-07-24T10:14:48Z</time>
      </trkpt>
      <trkpt lat="46.92987" lon="4.73107">
        <ele>232.3</ele>
        <time>2021-07-24T10:15:26Z</time>
      </trkpt>
      <trkpt lat="46.92987" lon="4.73106">
        <ele>232.3</ele>
        <time>2021-07-24T10:16:08Z</time>
      </trkpt>
      <trkpt lat="46.92986" lon="4.73104">
        <ele>233.26</ele>
        <time>2021-07-24T10:16:59Z</time>
      </trkpt>
      <trkpt lat="46.92985" lon="4.73106">
        <ele>233.26</ele>
        <time>2021-07-24T10:17:07Z</time>
      </trkpt>
      <trkpt lat="46.92986" lon="4.73108">
        <ele>233.26</ele>
        <time>2021-07-24T10:17:12Z</time>
      </trkpt>
      <trkpt lat="46.92987" lon="4.73109">
        <ele>233.26</ele>
        <time>2021-07-24T10:17:13Z</time>
      </trkpt>
      <trkpt lat="46.92988" lon="4.73109">
        <ele>233.26</ele>
        <time>2021-07-24T10:17:14Z</time>
      </trkpt>
      <trkpt lat="46.92997" lon="4.73105">
        <ele>233.26</ele>
        <time>2021-07-24T10:17:19Z</time>
      </trkpt>
      <trkpt lat="46.92998" lon="4.73102">
        <ele>233.26</ele>
        <time>2021-07-24T10:17:20Z</time>
      </trkpt>
      <trkpt lat="46.92998" lon="4.73098">
        <ele>233.74</ele>
        <time>2021-07-24T10:17:21Z</time>
      </trkpt>
      <trkpt lat="46.92998" lon="4.73096">
        <ele>233.74</ele>
        <time>2021-07-24T10:17:22Z</time>
      </trkpt>
      <trkpt lat="46.92997" lon="4.73094">
        <ele>233.74</ele>
        <time>2021-07-24T10:17:23Z</time>
      </trkpt>
      <trkpt lat="46.92996" lon="4.73092">
        <ele>233.74</ele>
        <time>2021-07-24T10:17:24Z</time>
      </trkpt>
      <trkpt lat="46.92995" lon="4.73089">
        <ele>233.74</ele>
        <time>2021-07-24T10:17:25Z</time>
      </trkpt>
      <trkpt lat="46.92993" lon="4.73088">
        <ele>233.74</ele>
        <time>2021-07-24T10:17:26Z</time>
      </trkpt>
      <trkpt lat="46.92952" lon="4.7305">
        <ele>234.22</ele>
        <time>2021-07-24T10:17:43Z</time>
      </trkpt>
      <trkpt lat="46.92909" lon="4.73006">
        <ele>234.22</ele>
        <time>2021-07-24T10:17:57Z</time>
      </trkpt>
      <trkpt lat="46.92844" lon="4.7295">
        <ele>232.3</ele>
        <time>2021-07-24T10:18:14Z</time>
      </trkpt>
      <trkpt lat="46.92766" lon="4.72884">
        <ele>231.81</ele>
        <time>2021-07-24T10:18:34Z</time>
      </trkpt>
      <trkpt lat="46.92713" lon="4.72854">
        <ele>231.81</ele>
        <time>2021-07-24T10:18:47Z</time>
      </trkpt>
      <trkpt lat="46.9271" lon="4.72851">
        <ele>231.81</ele>
        <time>2021-07-24T10:18:48Z</time>
      </trkpt>
      <trkpt lat="46.92652" lon="4.72795">
        <ele>231.81</ele>
        <time>2021-07-24T10:19:04Z</time>
      </trkpt>
      <trkpt lat="46.92615" lon="4.7275">
        <ele>231.33</ele>
        <time>2021-07-24T10:19:15Z</time>
      </trkpt>
      <trkpt lat="46.92609" lon="4.72742">
        <ele>231.33</ele>
        <time>2021-07-24T10:19:17Z</time>
      </trkpt>
      <trkpt lat="46.92605" lon="4.72738">
        <ele>231.33</ele>
        <time>2021-07-24T10:19:18Z</time>
      </trkpt>
      <trkpt lat="46.92548" lon="4.72681">
        <ele>230.37</ele>
        <time>2021-07-24T10:19:35Z</time>
      </trkpt>
      <trkpt lat="46.92545" lon="4.72677">
        <ele>230.37</ele>
        <time>2021-07-24T10:19:36Z</time>
      </trkpt>
      <trkpt lat="46.92479" lon="4.7261">
        <ele>230.37</ele>
        <time>2021-07-24T10:19:55Z</time>
      </trkpt>
      <trkpt lat="46.9242" lon="4.7255">
        <ele>229.89</ele>
        <time>2021-07-24T10:20:13Z</time>
      </trkpt>
      <trkpt lat="46.9237" lon="4.7252">
        <ele>229.89</ele>
        <time>2021-07-24T10:20:27Z</time>
      </trkpt>
      <trkpt lat="46.92351" lon="4.72519">
        <ele>229.89</ele>
        <time>2021-07-24T10:20:32Z</time>
      </trkpt>
      <trkpt lat="46.92334" lon="4.72522">
        <ele>229.89</ele>
        <time>2021-07-24T10:20:36Z</time>
      </trkpt>
      <trkpt lat="46.92288" lon="4.72516">
        <ele>229.89</ele>
        <time>2021-07-24T10:20:47Z</time>
      </trkpt>
      <trkpt lat="46.92284" lon="4.72513">
        <ele>229.89</ele>
        <time>2021-07-24T10:20:48Z</time>
      </trkpt>
      <trkpt lat="46.9228" lon="4.72511">
        <ele>229.89</ele>
        <time>2021-07-24T10:20:49Z</time>
      </trkpt>
      <trkpt lat="46.92226" lon="4.72478">
        <ele>231.33</ele>
        <time>2021-07-24T10:21:04Z</time>
      </trkpt>
      <trkpt lat="46.92182" lon="4.72453">
        <ele>231.81</ele>
        <time>2021-07-24T10:21:18Z</time>
      </trkpt>
      <trkpt lat="46.92143" lon="4.72417">
        <ele>233.26</ele>
        <time>2021-07-24T10:21:33Z</time>
      </trkpt>
      <trkpt lat="46.92113" lon="4.72386">
        <ele>234.22</ele>
        <time>2021-07-24T10:21:46Z</time>
      </trkpt>
      <trkpt lat="46.92062" lon="4.7233">
        <ele>234.7</ele>
        <time>2021-07-24T10:22:04Z</time>
      </trkpt>
      <trkpt lat="46.92015" lon="4.72286">
        <ele>234.7</ele>
        <time>2021-07-24T10:22:20Z</time>
      </trkpt>
      <trkpt lat="46.91996" lon="4.72278">
        <ele>233.26</ele>
        <time>2021-07-24T10:22:25Z</time>
      </trkpt>
      <trkpt lat="46.91942" lon="4.7227">
        <ele>231.81</ele>
        <time>2021-07-24T10:22:39Z</time>
      </trkpt>
      <trkpt lat="46.91922" lon="4.72266">
        <ele>230.85</ele>
        <time>2021-07-24T10:22:44Z</time>
      </trkpt>
      <trkpt lat="46.91918" lon="4.72265">
        <ele>230.85</ele>
        <time>2021-07-24T10:22:45Z</time>
      </trkpt>
      <trkpt lat="46.91887" lon="4.72257">
        <ele>229.41</ele>
        <time>2021-07-24T10:22:53Z</time>
      </trkpt>
      <trkpt lat="46.91882" lon="4.72257">
        <ele>229.41</ele>
        <time>2021-07-24T10:22:54Z</time>
      </trkpt>
      <trkpt lat="46.91877" lon="4.72257">
        <ele>228.93</ele>
        <time>2021-07-24T10:22:55Z</time>
      </trkpt>
      <trkpt lat="46.91873" lon="4.72257">
        <ele>228.93</ele>
        <time>2021-07-24T10:22:56Z</time>
      </trkpt>
      <trkpt lat="46.91868" lon="4.72257">
        <ele>228.93</ele>
        <time>2021-07-24T10:22:57Z</time>
      </trkpt>
      <trkpt lat="46.91862" lon="4.72259">
        <ele>228.45</ele>
        <time>2021-07-24T10:22:58Z</time>
      </trkpt>
      <trkpt lat="46.91857" lon="4.72261">
        <ele>227.97</ele>
        <time>2021-07-24T10:22:59Z</time>
      </trkpt>
      <trkpt lat="46.91798" lon="4.72277">
        <ele>225.09</ele>
        <time>2021-07-24T10:23:09Z</time>
      </trkpt>
      <trkpt lat="46.91716" lon="4.72277">
        <ele>222.2</ele>
        <time>2021-07-24T10:23:23Z</time>
      </trkpt>
      <trkpt lat="46.91671" lon="4.7228">
        <ele>221.24</ele>
        <time>2021-07-24T10:23:31Z</time>
      </trkpt>
      <trkpt lat="46.91656" lon="4.72279">
        <ele>221.24</ele>
        <time>2021-07-24T10:23:34Z</time>
      </trkpt>
      <trkpt lat="46.91651" lon="4.72277">
        <ele>221.24</ele>
        <time>2021-07-24T10:23:35Z</time>
      </trkpt>
      <trkpt lat="46.91641" lon="4.72273">
        <ele>220.76</ele>
        <time>2021-07-24T10:23:37Z</time>
      </trkpt>
      <trkpt lat="46.91638" lon="4.7227">
        <ele>220.76</ele>
        <time>2021-07-24T10:23:38Z</time>
      </trkpt>
      <trkpt lat="46.91635" lon="4.72267">
        <ele>220.76</ele>
        <time>2021-07-24T10:23:39Z</time>
      </trkpt>
      <trkpt lat="46.91628" lon="4.72258">
        <ele>220.76</ele>
        <time>2021-07-24T10:23:41Z</time>
      </trkpt>
      <trkpt lat="46.91612" lon="4.72234">
        <ele>219.8</ele>
        <time>2021-07-24T10:23:46Z</time>
      </trkpt>
      <trkpt lat="46.91609" lon="4.72227">
        <ele>219.8</ele>
        <time>2021-07-24T10:23:47Z</time>
      </trkpt>
      <trkpt lat="46.91608" lon="4.72218">
        <ele>219.8</ele>
        <time>2021-07-24T10:23:48Z</time>
      </trkpt>
      <trkpt lat="46.91583" lon="4.72098">
        <ele>219.8</ele>
        <time>2021-07-24T10:24:05Z</time>
      </trkpt>
      <trkpt lat="46.91574" lon="4.72066">
        <ele>219.8</ele>
        <time>2021-07-24T10:24:10Z</time>
      </trkpt>
      <trkpt lat="46.91565" lon="4.72037">
        <ele>219.8</ele>
        <time>2021-07-24T10:24:15Z</time>
      </trkpt>
      <trkpt lat="46.91564" lon="4.72032">
        <ele>219.8</ele>
        <time>2021-07-24T10:24:16Z</time>
      </trkpt>
      <trkpt lat="46.91562" lon="4.72026">
        <ele>219.8</ele>
        <time>2021-07-24T10:24:17Z</time>
      </trkpt>
      <trkpt lat="46.91559" lon="4.72013">
        <ele>219.8</ele>
        <time>2021-07-24T10:24:19Z</time>
      </trkpt>
      <trkpt lat="46.91556" lon="4.71904">
        <ele>218.84</ele>
        <time>2021-07-24T10:24:35Z</time>
      </trkpt>
      <trkpt lat="46.9155" lon="4.71827">
        <ele>218.84</ele>
        <time>2021-07-24T10:24:49Z</time>
      </trkpt>
      <trkpt lat="46.91544" lon="4.71756">
        <ele>218.84</ele>
        <time>2021-07-24T10:25:03Z</time>
      </trkpt>
      <trkpt lat="46.9154" lon="4.71703">
        <ele>218.84</ele>
        <time>2021-07-24T10:25:19Z</time>
      </trkpt>
      <trkpt lat="46.9154" lon="4.71701">
        <ele>218.36</ele>
        <time>2021-07-24T10:26:13Z</time>
      </trkpt>
      <trkpt lat="46.91539" lon="4.717">
        <ele>217.88</ele>
        <time>2021-07-24T10:26:14Z</time>
      </trkpt>
      <trkpt lat="46.91538" lon="4.71698">
        <ele>217.88</ele>
        <time>2021-07-24T10:26:15Z</time>
      </trkpt>
      <trkpt lat="46.91538" lon="4.71695">
        <ele>217.88</ele>
        <time>2021-07-24T10:26:16Z</time>
      </trkpt>
      <trkpt lat="46.91538" lon="4.71693">
        <ele>217.88</ele>
        <time>2021-07-24T10:26:17Z</time>
      </trkpt>
      <trkpt lat="46.91538" lon="4.7169">
        <ele>217.88</ele>
        <time>2021-07-24T10:26:18Z</time>
      </trkpt>
      <trkpt lat="46.91538" lon="4.71687">
        <ele>217.88</ele>
        <time>2021-07-24T10:26:19Z</time>
      </trkpt>
      <trkpt lat="46.91538" lon="4.71684">
        <ele>217.88</ele>
        <time>2021-07-24T10:26:20Z</time>
      </trkpt>
      <trkpt lat="46.91537" lon="4.7168">
        <ele>217.88</ele>
        <time>2021-07-24T10:26:21Z</time>
      </trkpt>
      <trkpt lat="46.91531" lon="4.71624">
        <ele>218.84</ele>
        <time>2021-07-24T10:26:36Z</time>
      </trkpt>
      <trkpt lat="46.91517" lon="4.71547">
        <ele>220.76</ele>
        <time>2021-07-24T10:26:56Z</time>
      </trkpt>
      <trkpt lat="46.91507" lon="4.71479">
        <ele>221.24</ele>
        <time>2021-07-24T10:27:13Z</time>
      </trkpt>
      <trkpt lat="46.91506" lon="4.71456">
        <ele>219.8</ele>
        <time>2021-07-24T10:27:17Z</time>
      </trkpt>
      <trkpt lat="46.91505" lon="4.71428">
        <ele>218.84</ele>
        <time>2021-07-24T10:27:21Z</time>
      </trkpt>
      <trkpt lat="46.915" lon="4.71318">
        <ele>217.4</ele>
        <time>2021-07-24T10:27:37Z</time>
      </trkpt>
      <trkpt lat="46.91497" lon="4.713">
        <ele>217.4</ele>
        <time>2021-07-24T10:27:40Z</time>
      </trkpt>
      <trkpt lat="46.91485" lon="4.71263">
        <ele>217.4</ele>
        <time>2021-07-24T10:27:47Z</time>
      </trkpt>
      <trkpt lat="46.91442" lon="4.71162">
        <ele>217.4</ele>
        <time>2021-07-24T10:28:07Z</time>
      </trkpt>
      <trkpt lat="46.91419" lon="4.71097">
        <ele>220.76</ele>
        <time>2021-07-24T10:28:24Z</time>
      </trkpt>
      <trkpt lat="46.9141" lon="4.71053">
        <ele>222.2</ele>
        <time>2021-07-24T10:28:38Z</time>
      </trkpt>
      <trkpt lat="46.91409" lon="4.71051">
        <ele>222.68</ele>
        <time>2021-07-24T10:28:39Z</time>
      </trkpt>
      <trkpt lat="46.91409" lon="4.71048">
        <ele>222.68</ele>
        <time>2021-07-24T10:28:40Z</time>
      </trkpt>
      <trkpt lat="46.91409" lon="4.71046">
        <ele>222.68</ele>
        <time>2021-07-24T10:28:41Z</time>
      </trkpt>
      <trkpt lat="46.91408" lon="4.71043">
        <ele>222.68</ele>
        <time>2021-07-24T10:28:42Z</time>
      </trkpt>
      <trkpt lat="46.91408" lon="4.71041">
        <ele>223.16</ele>
        <time>2021-07-24T10:28:43Z</time>
      </trkpt>
      <trkpt lat="46.91408" lon="4.71039">
        <ele>223.16</ele>
        <time>2021-07-24T10:28:44Z</time>
      </trkpt>
      <trkpt lat="46.91408" lon="4.71037">
        <ele>223.16</ele>
        <time>2021-07-24T10:28:45Z</time>
      </trkpt>
      <trkpt lat="46.91407" lon="4.71034">
        <ele>223.64</ele>
        <time>2021-07-24T10:28:46Z</time>
      </trkpt>
      <trkpt lat="46.91404" lon="4.70991">
        <ele>226.05</ele>
        <time>2021-07-24T10:29:03Z</time>
      </trkpt>
      <trkpt lat="46.91406" lon="4.70956">
        <ele>227.01</ele>
        <time>2021-07-24T10:29:16Z</time>
      </trkpt>
      <trkpt lat="46.91403" lon="4.7091">
        <ele>227.97</ele>
        <time>2021-07-24T10:29:33Z</time>
      </trkpt>
      <trkpt lat="46.91412" lon="4.70871">
        <ele>228.93</ele>
        <time>2021-07-24T10:29:47Z</time>
      </trkpt>
      <trkpt lat="46.91415" lon="4.70823">
        <ele>229.41</ele>
        <time>2021-07-24T10:30:01Z</time>
      </trkpt>
      <trkpt lat="46.91408" lon="4.70766">
        <ele>229.41</ele>
        <time>2021-07-24T10:30:16Z</time>
      </trkpt>
      <trkpt lat="46.91395" lon="4.70705">
        <ele>229.89</ele>
        <time>2021-07-24T10:30:32Z</time>
      </trkpt>
      <trkpt lat="46.91383" lon="4.70635">
        <ele>229.89</ele>
        <time>2021-07-24T10:30:49Z</time>
      </trkpt>
      <trkpt lat="46.91376" lon="4.70571">
        <ele>230.37</ele>
        <time>2021-07-24T10:31:04Z</time>
      </trkpt>
      <trkpt lat="46.91385" lon="4.705">
        <ele>231.81</ele>
        <time>2021-07-24T10:31:20Z</time>
      </trkpt>
      <trkpt lat="46.91394" lon="4.70452">
        <ele>233.26</ele>
        <time>2021-07-24T10:31:35Z</time>
      </trkpt>
      <trkpt lat="46.91398" lon="4.70403">
        <ele>233.74</ele>
        <time>2021-07-24T10:31:49Z</time>
      </trkpt>
      <trkpt lat="46.91399" lon="4.70345">
        <ele>233.74</ele>
        <time>2021-07-24T10:32:04Z</time>
      </trkpt>
      <trkpt lat="46.91399" lon="4.70305">
        <ele>232.3</ele>
        <time>2021-07-24T10:32:13Z</time>
      </trkpt>
      <trkpt lat="46.91391" lon="4.70231">
        <ele>232.3</ele>
        <time>2021-07-24T10:32:28Z</time>
      </trkpt>
      <trkpt lat="46.91378" lon="4.70155">
        <ele>231.81</ele>
        <time>2021-07-24T10:32:45Z</time>
      </trkpt>
      <trkpt lat="46.91353" lon="4.70124">
        <ele>229.89</ele>
        <time>2021-07-24T10:32:55Z</time>
      </trkpt>
      <trkpt lat="46.91317" lon="4.70114">
        <ele>227.01</ele>
        <time>2021-07-24T10:33:01Z</time>
      </trkpt>
      <trkpt lat="46.91261" lon="4.70096">
        <ele>223.64</ele>
        <time>2021-07-24T10:33:11Z</time>
      </trkpt>
      <trkpt lat="46.91198" lon="4.7008">
        <ele>220.28</ele>
        <time>2021-07-24T10:33:25Z</time>
      </trkpt>
      <trkpt lat="46.91151" lon="4.70072">
        <ele>222.8</ele>
      </trkpt>
      <trkpt lat="46.91143" lon="4.70039">
        <ele>222.3</ele>
      </trkpt>
      <trkpt lat="46.91143" lon="4.70036">
        <ele>216.43</ele>
        <time>2021-07-24T10:33:43Z</time>
      </trkpt>
      <trkpt lat="46.9115" lon="4.70002">
        <ele>216.91</ele>
        <time>2021-07-24T10:33:52Z</time>
      </trkpt>
      <trkpt lat="46.9115" lon="4.69999">
        <ele>216.91</ele>
        <time>2021-07-24T10:33:53Z</time>
      </trkpt>
      <trkpt lat="46.9115" lon="4.69987">
        <ele>216.91</ele>
        <time>2021-07-24T10:34:05Z</time>
      </trkpt>
      <trkpt lat="46.9115" lon="4.69993">
        <ele>216.91</ele>
        <time>2021-07-24T10:34:40Z</time>
      </trkpt>
      <trkpt lat="46.90882" lon="4.70196">
        <ele>212.3</ele>
        <time>2021-07-24T10:37:28Z</time>
      </trkpt>
      <trkpt lat="46.90896" lon="4.69997">
        <ele>213</ele>
        <time>2021-07-24T10:38:05Z</time>
      </trkpt>
      <trkpt lat="46.90909" lon="4.7036">
        <ele>213</ele>
      </trkpt>
      <trkpt lat="46.91141" lon="4.69993">
        <ele>222.2</ele>
        <time>2021-07-24T10:40:42Z</time>
      </trkpt>
      <trkpt lat="46.91141" lon="4.69992">
        <ele>222.68</ele>
        <time>2021-07-24T10:41:12Z</time>
      </trkpt>
      <trkpt lat="46.91141" lon="4.69993">
        <ele>222.1</ele>
      </trkpt>
      <trkpt lat="46.91141" lon="4.69994">
        <ele>223.16</ele>
        <time>2021-07-24T10:41:43Z</time>
      </trkpt>
      <trkpt lat="46.91155" lon="4.69981">
        <ele>224.61</ele>
        <time>2021-07-24T10:42:35Z</time>
      </trkpt>
      <trkpt lat="46.91156" lon="4.6998">
        <ele>224.61</ele>
        <time>2021-07-24T10:42:47Z</time>
      </trkpt>
      <trkpt lat="46.91156" lon="4.69978">
        <ele>224.61</ele>
        <time>2021-07-24T10:42:48Z</time>
      </trkpt>
      <trkpt lat="46.91157" lon="4.69976">
        <ele>224.61</ele>
        <time>2021-07-24T10:42:49Z</time>
      </trkpt>
      <trkpt lat="46.91158" lon="4.69973">
        <ele>222.7</ele>
      </trkpt>
      <trkpt lat="46.91162" lon="4.69967">
        <ele>222.8</ele>
      </trkpt>
      <trkpt lat="46.91158" lon="4.69988">
        <ele>229.41</ele>
        <time>2021-07-24T10:46:33Z</time>
      </trkpt>
      <trkpt lat="46.91156" lon="4.70004">
        <ele>229.41</ele>
        <time>2021-07-24T10:46:41Z</time>
      </trkpt>
      <trkpt lat="46.91151" lon="4.70008">
        <ele>230.37</ele>
        <time>2021-07-24T10:47:17Z</time>
      </trkpt>
      <trkpt lat="46.91152" lon="4.70008">
        <ele>231.33</ele>
        <time>2021-07-24T10:47:54Z</time>
      </trkpt>
      <trkpt lat="46.91148" lon="4.70008">
        <ele>222.4</ele>
        <time>2021-07-24T10:48:37Z</time>
      </trkpt>
      <trkpt lat="46.9116" lon="4.70011">
        <ele>228.45</ele>
        <time>2021-07-24T10:55:31Z</time>
      </trkpt>
      <trkpt lat="46.91153" lon="4.70012">
        <ele>222.7</ele>
      </trkpt>
      <trkpt lat="46.91157" lon="4.7">
        <ele>217.4</ele>
        <time>2021-07-24T11:07:06Z</time>
      </trkpt>
      <trkpt lat="46.91163" lon="4.69993">
        <ele>222.9</ele>
      </trkpt>
      <trkpt lat="46.91162" lon="4.69983">
        <ele>217.4</ele>
        <time>2021-07-24T11:07:43Z</time>
      </trkpt>
      <trkpt lat="46.9116" lon="4.69981">
        <ele>216.91</ele>
        <time>2021-07-24T11:08:21Z</time>
      </trkpt>
      <trkpt lat="46.91154" lon="4.69976">
        <ele>215.95</ele>
        <time>2021-07-24T11:08:32Z</time>
      </trkpt>
      <trkpt lat="46.91153" lon="4.69974">
        <ele>215.95</ele>
        <time>2021-07-24T11:08:47Z</time>
      </trkpt>
      <trkpt lat="46.91154" lon="4.69978">
        <ele>215.95</ele>
        <time>2021-07-24T11:08:51Z</time>
      </trkpt>
      <trkpt lat="46.9113" lon="4.70002">
        <ele>221.7</ele>
      </trkpt>
      <trkpt lat="46.91091" lon="4.69928">
        <ele>220.7</ele>
      </trkpt>
      <trkpt lat="46.9102" lon="4.69749">
        <ele>218.7</ele>
      </trkpt>
      <trkpt lat="46.90942" lon="4.69648">
        <ele>217.5</ele>
      </trkpt>
      <trkpt lat="46.90824" lon="4.6954">
        <ele>216</ele>
      </trkpt>
      <trkpt lat="46.9078" lon="4.69456">
        <ele>217</ele>
      </trkpt>
      <trkpt lat="46.9066" lon="4.69538">
        <ele>215</ele>
      </trkpt>
      <trkpt lat="46.90501" lon="4.69567">
        <ele>215</ele>
      </trkpt>
      <trkpt lat="46.90267" lon="4.69377">
        <ele>222.8</ele>
      </trkpt>
      <trkpt lat="46.90307" lon="4.69445">
        <ele>223.9</ele>
      </trkpt>
      <trkpt lat="46.90412" lon="4.6955">
        <ele>222.6</ele>
      </trkpt>
      <trkpt lat="46.90478" lon="4.69727">
        <ele>223.1</ele>
      </trkpt>
      <trkpt lat="46.90501" lon="4.6982">
        <ele>223.3</ele>
      </trkpt>
      <trkpt lat="46.90516" lon="4.69926">
        <ele>221.9</ele>
      </trkpt>
      <trkpt lat="46.90519" lon="4.70068">
        <ele>222.6</ele>
      </trkpt>
      <trkpt lat="46.90486" lon="4.70379">
        <ele>222.4</ele>
      </trkpt>
      <trkpt lat="46.90448" lon="4.70602">
        <ele>222.6</ele>
      </trkpt>
      <trkpt lat="46.9046" lon="4.7067">
        <ele>223.1</ele>
      </trkpt>
      <trkpt lat="46.90495" lon="4.70728">
        <ele>222.5</ele>
      </trkpt>
      <trkpt lat="46.90495" lon="4.7095">
        <ele>223.7</ele>
      </trkpt>
      <trkpt lat="46.90475" lon="4.71087">
        <ele>223.6</ele>
      </trkpt>
      <trkpt lat="46.90613" lon="4.71482">
        <ele>223.4</ele>
      </trkpt>
      <trkpt lat="46.90716" lon="4.71733">
        <ele>222.7</ele>
      </trkpt>
      <trkpt lat="46.90742" lon="4.71906">
        <ele>222.1</ele>
      </trkpt>
      <trkpt lat="46.90643" lon="4.7205">
        <ele>223.3</ele>
      </trkpt>
      <trkpt lat="46.90624" lon="4.72276">
        <ele>222.1</ele>
      </trkpt>
      <trkpt lat="46.9067" lon="4.72445">
        <ele>223.3</ele>
      </trkpt>
      <trkpt lat="46.90684" lon="4.72613">
        <ele>224</ele>
      </trkpt>
      <trkpt lat="46.90728" lon="4.7272">
        <ele>223</ele>
      </trkpt>
      <trkpt lat="46.90731" lon="4.7285">
        <ele>222.1</ele>
      </trkpt>
      <trkpt lat="46.9075" lon="4.72919">
        <ele>224</ele>
      </trkpt>
      <trkpt lat="46.90862" lon="4.73101">
        <ele>223.2</ele>
      </trkpt>
      <trkpt lat="46.90867" lon="4.73263">
        <ele>222.9</ele>
      </trkpt>
      <trkpt lat="46.90953" lon="4.73365">
        <ele>223.4</ele>
      </trkpt>
      <trkpt lat="46.90978" lon="4.73426">
        <ele>222.7</ele>
      </trkpt>
      <trkpt lat="46.91026" lon="4.73685">
        <ele>223.7</ele>
      </trkpt>
      <trkpt lat="46.91027" lon="4.73812">
        <ele>223.4</ele>
      </trkpt>
      <trkpt lat="46.91104" lon="4.74106">
        <ele>221.8</ele>
      </trkpt>
      <trkpt lat="46.91101" lon="4.74164">
        <ele>222.2</ele>
      </trkpt>
      <trkpt lat="46.91063" lon="4.74258">
        <ele>221.7</ele>
      </trkpt>
      <trkpt lat="46.90995" lon="4.74335">
        <ele>223.5</ele>
      </trkpt>
      <trkpt lat="46.90896" lon="4.74376">
        <ele>222.1</ele>
      </trkpt>
      <trkpt lat="46.90434" lon="4.74931">
        <ele>223.6</ele>
      </trkpt>
      <trkpt lat="46.90333" lon="4.74978">
        <ele>223.1</ele>
      </trkpt>
      <trkpt lat="46.90309" lon="4.75029">
        <ele>223.2</ele>
      </trkpt>
      <trkpt lat="46.90275" lon="4.75224">
        <ele>225.2</ele>
      </trkpt>
      <trkpt lat="46.9024" lon="4.75255">
        <ele>225.9</ele>
      </trkpt>
      <trkpt lat="46.90231" lon="4.75291">
        <ele>225.5</ele>
      </trkpt>
      <trkpt lat="46.90201" lon="4.75344">
        <ele>224.7</ele>
      </trkpt>
      <trkpt lat="46.89178" lon="4.75674">
        <ele>225.2</ele>
      </trkpt>
      <trkpt lat="46.89118" lon="4.75707">
        <ele>224.4</ele>
      </trkpt>
      <trkpt lat="46.88845" lon="4.76356">
        <ele>219.6</ele>
      </trkpt>
      <trkpt lat="46.88822" lon="4.76411">
        <ele>218.8</ele>
      </trkpt>
      <trkpt lat="46.88682" lon="4.76481">
        <ele>218</ele>
      </trkpt>
      <trkpt lat="46.88246" lon="4.76476">
        <ele>213.6</ele>
      </trkpt>
      <trkpt lat="46.8807" lon="4.76807">
        <ele>209.6</ele>
      </trkpt>
      <trkpt lat="46.87888" lon="4.77008">
        <ele>208.1</ele>
      </trkpt>
      <trkpt lat="46.878" lon="4.77197">
        <ele>205.6</ele>
      </trkpt>
      <trkpt lat="46.87633" lon="4.77373">
        <ele>206.8</ele>
      </trkpt>
      <trkpt lat="46.8756" lon="4.77704">
        <ele>201.6</ele>
      </trkpt>
      <trkpt lat="46.87193" lon="4.78">
        <ele>197.9</ele>
      </trkpt>
      <trkpt lat="46.87034" lon="4.78613">
        <ele>198</ele>
      </trkpt>
      <trkpt lat="46.86712" lon="4.79094">
        <ele>195</ele>
      </trkpt>
      <trkpt lat="46.8643" lon="4.79257">
        <ele>192.5</ele>
      </trkpt>
      <trkpt lat="46.86172" lon="4.79506">
        <ele>192.2</ele>
      </trkpt>
      <trkpt lat="46.85409" lon="4.80004">
        <ele>190.9</ele>
      </trkpt>
      <trkpt lat="46.8535" lon="4.80077">
        <ele>192.8</ele>
      </trkpt>
      <trkpt lat="46.85133" lon="4.80073">
        <ele>191.4</ele>
      </trkpt>
      <trkpt lat="46.8488" lon="4.80261">
        <ele>192</ele>
      </trkpt>
      <trkpt lat="46.8474" lon="4.80815">
        <ele>188.4</ele>
      </trkpt>
      <trkpt lat="46.84719" lon="4.8109">
        <ele>188.3</ele>
      </trkpt>
      <trkpt lat="46.84757" lon="4.81437">
        <ele>185.5</ele>
      </trkpt>
      <trkpt lat="46.8471" lon="4.81806">
        <ele>186.6</ele>
      </trkpt>
      <trkpt lat="46.84713" lon="4.81982">
        <ele>186.7</ele>
      </trkpt>
      <trkpt lat="46.8459" lon="4.823">
        <ele>187</ele>
      </trkpt>
      <trkpt lat="46.84387" lon="4.82313">
        <ele>186.2</ele>
      </trkpt>
      <trkpt lat="46.84176" lon="4.82579">
        <ele>187</ele>
      </trkpt>
      <trkpt lat="46.84067" lon="4.82639">
        <ele>182.8</ele>
      </trkpt>
      <trkpt lat="46.84029" lon="4.82763">
        <ele>184</ele>
      </trkpt>
      <trkpt lat="46.83865" lon="4.82862">
        <ele>184</ele>
      </trkpt>
      <trkpt lat="46.8373" lon="4.82991">
        <ele>183.5</ele>
      </trkpt>
      <trkpt lat="46.83583" lon="4.83042">
        <ele>184.5</ele>
      </trkpt>
      <trkpt lat="46.83427" lon="4.83467">
        <ele>183.4</ele>
      </trkpt>
      <trkpt lat="46.8326" lon="4.84686">
        <ele>180.9</ele>
      </trkpt>
      <trkpt lat="46.83336" lon="4.84304">
        <ele>182.9</ele>
      </trkpt>
      <trkpt lat="46.83269" lon="4.8472">
        <ele>182.9</ele>
      </trkpt>
      <trkpt lat="46.82902" lon="4.84991">
        <ele>182.1</ele>
      </trkpt>
      <trkpt lat="46.82664" lon="4.85076">
        <ele>182.8</ele>
      </trkpt>
      <trkpt lat="46.82514" lon="4.84965">
        <ele>182.4</ele>
      </trkpt>
      <trkpt lat="46.82458" lon="4.8466">
        <ele>181.8</ele>
      </trkpt>
      <trkpt lat="46.82376" lon="4.84677">
        <ele>183.2</ele>
      </trkpt>
      <trkpt lat="46.82256" lon="4.84832">
        <ele>187</ele>
      </trkpt>
      <trkpt lat="46.82056" lon="4.84986">
        <ele>188</ele>
      </trkpt>
      <trkpt lat="46.81989" lon="4.85119">
        <ele>188</ele>
      </trkpt>
      <trkpt lat="46.81692" lon="4.85776">
        <ele>189</ele>
      </trkpt>
      <trkpt lat="46.81548" lon="4.86162">
        <ele>189</ele>
      </trkpt>
      <trkpt lat="46.81357" lon="4.8645">
        <ele>189</ele>
      </trkpt>
      <trkpt lat="46.81172" lon="4.86862">
        <ele>186.2</ele>
      </trkpt>
      <trkpt lat="46.81298" lon="4.87192">
        <ele>187.7</ele>
      </trkpt>
      <trkpt lat="46.81528" lon="4.87669">
        <ele>191</ele>
      </trkpt>
      <trkpt lat="46.81721" lon="4.88308">
        <ele>186</ele>
      </trkpt>
      <trkpt lat="46.82544" lon="4.89458">
        <ele>184.1</ele>
      </trkpt>
      <trkpt lat="46.82602" lon="4.89922">
        <ele>180.1</ele>
      </trkpt>
      <trkpt lat="46.82908" lon="4.91261">
        <ele>179</ele>
      </trkpt>
      <trkpt lat="46.83143" lon="4.926">
        <ele>180</ele>
      </trkpt>
      <trkpt lat="46.83847" lon="4.93612">
        <ele>180</ele>
      </trkpt>
      <trkpt lat="46.84193" lon="4.94599">
        <ele>170.77</ele>
        <time>2021-07-24T15:52:24Z</time>
      </trkpt>
      <trkpt lat="46.84191" lon="4.94601">
        <ele>170.77</ele>
        <time>2021-07-24T15:52:25Z</time>
      </trkpt>
      <trkpt lat="46.84187" lon="4.94603">
        <ele>170.77</ele>
        <time>2021-07-24T15:52:37Z</time>
      </trkpt>
    </trkseg>
  </trk>
</gpx>